     2.11           OBSERVATION DATA    G (GPS)             RINEX VERSION / TYPE
teqc 2010Oct21 OPUS Account 20111026 21:06:34UTC            PGM / RUN BY / DATE
R 1523                                                      MARKER NAME
1196                                                        MARKER NUMBER
CSMIDDLETON NGS                                             OBSERVER / AGENCY
4624K01583 TRIMBLE NETR5 4.41                               REC # / TYPE / VERS
60154430 TRM41249.00 NONE                                   ANT # / TYPE
  -752258.9499 -5516156.6053  3102092.4665                  APPROX POSITION XYZ
        2.0000        0.0000        0.0000                  ANTENNA: DELTA H/E/N
     1     1                                                WAVELENGTH FACT L1/2
     5    L1    L2    C1    P1    P2                        # / TYPES OF OBSERV
    15                                                      LEAP SECONDS
  2011     8    11     0     0    0.0000000     GPS         TIME OF FIRST OBS
                                                            END OF HEADER
 11  8 11  0  0  0.0000000  0  9G17G10G04G27G05G09G02G12G28
 116403658.685 8  90704229.680 7  22150867.953                    22150876.008
 113940507.885 7  88784964.09945  21682154.516                    21682163.242
 106566171.492 8  83038715.95846  20278848.172                    20278856.113
 119450440.719 7  93078316.97045  22730660.242                    22730669.742
 127455900.877 7  99316287.383 6  24254037.820                    24254050.027
 117338084.089 7  91432398.71545  22328712.078                    22328721.223
 110499673.975 8  86103780.40346  21027384.055                    21027389.656
 121417952.583 7  94611501.007 6  23105085.484                    23105093.535
 122292994.746 7  95293273.46643  23271585.586                    23271594.578
 11  8 11  0  0 30.0000000  0  9G17G10G04G27G05G09G02G12G28
 116443212.239 8  90735050.618 7  22158395.242                    22158402.691
 113874837.458 8  88733792.37045  21669658.336                    21669666.023
 106611164.128 8  83073775.13846  20287410.195                    20287417.645
 119489234.749 7  93108546.03745  22738042.453                    22738051.836
 127350283.722 7  99233988.653 6  24233938.766                    24233952.133
 117377588.292 7  91463181.18445  22336229.477                    22336238.852
 110459507.309 8  86072481.73246  21019740.578                    21019746.563
 121325955.476 7  94539815.023 6  23087578.367                    23087586.176
 122381257.762 6  95362049.74343  23288381.484                    23288390.477
 11  8 11  0  1  0.0000000  0  9G17G10G04G27G05G09G02G12G28
 116482860.643 8  90765945.459 7  22165939.977                    22165947.375
 113809589.006 8  88682949.46045  21657241.914                    21657250.430
 106656562.474 8  83109150.47046  20296049.078                    20296057.063
 119528389.625 7  93139056.30845  22745493.414                    22745502.535
 127244631.829 7  99151662.834 6  24213834.211                    24213846.035
 117417613.615 7  91494369.70945  22343846.336                    22343854.988
 110419709.311 8  86041470.32846  21012167.344                    21012172.914
 121234107.858 7  94468245.479 6  23070100.484                    23070108.285
 122469812.849 6  95431053.59344  23305234.023                    23305242.520
 11  8 11  0  1 30.0000000  0  9G17G10G04G27G05G09G02G12G28
 116522604.633 8  90796914.776 7  22173502.578                    22173510.543
 113744764.819 7  88632437.15245  21644906.406                    21644914.238
 106702364.262 8  83144840.15546  20304764.961                    20304772.535
 119567902.984 7  93169845.88744  22753012.234                    22753021.949
 127138947.400 6  99069311.675 6  24193722.680                    24193734.859
 117458157.348 7  91525962.19845  22351561.094                    22351570.254
 110380279.923 8  86010746.16546  21004664.172                    21004669.863
 121142412.133 7  94396794.291 6  23052651.672                    23052659.582
 122558658.099 7  95500283.57343  23322140.258                    23322148.969
 11  8 11  0  2  0.0000000  0  9G17G10G04G27G05G09G02G12G28
 116562443.874 7  90827958.316 7  22181084.219                    22181091.582
 113680368.790 7  88582258.46145  21632651.945                    21632660.598
 106748567.577 8  83180842.73046  20313556.961                    20313564.750
 119607773.351 7  93200913.64144  22760599.063                    22760609.297
 127033234.065 6  98986937.978 6  24173605.883                    24173618.125
 117499217.739 7  91557957.26145  22359374.719                    22359383.563
 110341219.891 8  85980309.79746  20997231.430                    20997236.695
 121050870.995 7  94325463.576 6  23035231.883                    23035239.949
 122647792.588 7  95569738.93144  23339101.867                    23339111.480
 11  8 11  0  2 30.0000000  0  9G17G10G04G27G05G09G02G12G28
 116602379.120 7  90859076.658 7  22188683.359                    22188691.039
 113616403.461 7  88532415.38945  21620479.086                    21620488.125
 106795170.177 8  83217156.43646  20322425.023                    20322432.730
 119647998.254 7  93232257.66845  22768254.367                    22768263.859
 126927494.457 6  98904543.820 6  24153483.469                    24153496.000
 117540792.026 7  91590352.77245  22367286.219                    22367295.109
 110302528.642 8  85950160.81046  20989868.555                    20989874.059
 120959486.497 7  94254254.899 6  23017841.977                    23017849.898
 122737214.401 6  95639418.15743  23356118.328                    23356127.313
 11  8 11  0  3  0.0000000  0  9G17G10G04G27G05G09G02G12G28
 116642411.265 8  90890270.519 7  22196301.523                    22196308.949
 113552871.703 7  88482910.17645  21608389.641                    21608398.434
 106842169.322 8  83253779.13946  20331369.273                    20331376.652
 119688575.435 7  93263876.18144  22775975.492                    22775985.480
 126821730.806 6  98822130.943 6  24133356.734                    24133369.309
 117582877.704 7  91623146.75845  22375294.789                    22375303.758
 110264206.007 8  85920299.05046  20982575.867                    20982581.414
 120868261.008 7  94183170.122 6  23000482.305                    23000490.180
 122826921.864 6  95709319.97744  23373189.523                    23373197.898
 11  8 11  0  3 30.0000000  0  9G17G10G04G27G05G09G02G12G28
 116682539.910 8  90921539.561 7  22203937.875                    22203945.254
 113489776.293 7  88433744.95245  21596383.141                    21596391.918
 106889562.765 8  83290709.09846  20340387.305                    20340394.703
 119729502.651 7  93295767.46645  22783763.914                    22783773.723
 126715945.665 6  98739701.325 6  24113226.688                    24113238.488
 117625471.984 7  91656337.06045  22383399.852                    22383408.742
 110226251.669 8  85890724.25946  20975353.555                    20975359.422
 120777197.093 7  94112211.245 6  22983153.414                    22983161.254
 122916913.589 7  95779443.30043  23390315.000                    23390323.313
 11  8 11  0  4  0.0000000  0  9G17G10G04G27G05G09G02G12G28
 116722766.132 7  90952884.660 7  22211592.742                    22211600.164
 113427120.702 7  88384922.45945  21584460.320                    21584468.762
 106937348.841 8  83327944.99346  20349480.922                    20349488.535
 119770777.999 7  93327930.04744  22791618.313                    22791627.555
 126610142.491 6  98657257.614 6  24093092.641                    24093104.465
 117668572.847 7  91689922.09645  22391602.117                    22391611.164
 110188665.905 8  85861436.68146  20968201.398                    20968206.379
 120686297.309 7  94041380.263 7  22965855.594                    22965863.555
 123007187.855 6  95849786.79644  23407493.531                    23407501.738
 11  8 11  0  4 30.0000000  0  9G17G10G04G27G05G09G02G12G28
 116763090.083 8  90984305.904 7  22219266.023                    22219273.051
 113364907.540 7  88336444.71645  21572621.234                    21572629.621
 106985524.866 8  83365484.74646  20358648.578                    20358656.184
 119812399.058 7  93360361.97944  22799538.688                    22799547.746
 126504323.768 6  98574801.794 6  24072956.063                    24072967.289
 117712177.354 7  91723899.58145  22399899.477                    22399908.266
 110151448.620 8  85832436.22646  20961118.930                    20961124.500
 120595564.005 7  93970679.009 7  22948589.820                    22948597.957
 123097743.046 7  95920349.19944  23424725.930                    23424734.457
 11  8 11  0  5  0.0000000  0  9G17G10G04G27G05G09G02G12G28
 116803513.006 8  91015804.267 7  22226957.938                    22226965.711
 113303139.544 7  88288313.83145  21560867.563                    21560875.793
 107034088.619 8  83403326.62846  20367890.156                    20367897.512
 119854363.597 7  93393061.56444  22807524.555                    22807533.816
 126398492.231 7  98492335.946 6  24052816.641                    24052828.500
 117756282.766 7  91758267.40745  22408292.742                    22408302.020
 110114599.565 8  85803722.69746  20954106.773                    20954112.617
 120504999.455 7  93900109.265 7  22931355.531                    22931363.984
 123188577.499 7  95991129.18343  23442011.070                    23442019.359
 11  8 11  0  5 30.0000000  0  9G17G10G04G27G05G09G02G12G28
 116844034.504 7  91047379.435 7  22234669.438                    22234676.656
 113241819.908 7  88240532.34545  21549198.078                    21549207.129
 107083038.031 8  83441469.03046  20377204.664                    20377212.602
 119896669.671 7  93426027.30944  22815575.094                    22815584.715
 126292650.897 7  98409862.463 6  24032675.875                    24032687.426
 117800886.965 7  91793023.88545  22416780.820                    22416790.074
 110078119.003 8  85775296.31246  20947165.047                    20947170.523
 120414606.436 7  93829673.179 6  22914154.414                    22914162.883
 123279690.397 6  96062126.13743  23459348.648                    23459357.785
 11  8 11  0  6  0.0000000  0  9G17G10G04G27G05G09G02G12G28
 116884655.338 7  91079032.010 7  22242399.219                    22242406.762
 113180951.552 8  88193102.49845  21537615.633                    21537623.754
 107132371.068 8  83479910.34946  20386592.367                    20386599.809
 119939315.068 7  93459257.42444  22823690.336                    22823699.184
 126186802.143 7  98327383.197 6  24012533.117                    24012544.145
 117845987.175 7  91828166.83045  22425363.438                    22425372.074
 110042006.676 8  85747156.85946  20940292.758                    20940298.242
 120324387.598 7  93759372.818 7  22896986.836                    22896994.715
 123371079.663 6  96133338.45643  23476740.047                    23476748.637
 11  8 11  0  6 30.0000000  0  9G17G10G04G27G05G09G02G12G28
 116925375.555 8  91110762.033 7  22250147.945                    22250155.328
 113120536.799 8  88146026.09945  21526119.086                    21526127.164
 107182084.701 8  83518648.23846  20396052.719                    20396060.684
 119982297.079 7  93492749.84444  22831869.695                    22831879.328
 126080948.963 7  98244900.516 6  23992389.828                    23992400.883
 117891580.381 7  91863693.98044  22434039.219                    22434048.266
 110006261.770 8  85719303.70846  20933491.109                    20933496.820
 120234344.958 7  93689209.772 7  22879852.148                    22879859.977
 123462743.361 6  96204764.62743  23494183.375                    23494192.246
 11  8 11  0  7  0.0000000  0  9G17G10G04G27G05G09G02G12G28
 116966196.081 8  91142570.210 7  22257915.977                    22257923.207
 113060578.180 7  88099305.12645  21514709.375                    21514717.641
 107232176.525 8  83557680.82146  20405584.813                    20405593.012
 120025613.166 7  93526502.61444  22840112.391                    22840121.410
 125975093.631 7  98162416.128 6  23972245.891                    23972257.051
 117937663.662 7  91899602.99645  22442809.016                    22442817.566
 109970883.904 8  85691736.56546  20926758.445                    20926764.246
 120144480.740 7  93619185.760 7  22862751.250                    22862759.633
 123554679.632 6  96276403.20843  23511677.820                    23511687.395
 11  8 11  0  7 30.0000000  0  9G17G10G04G27G05G09G02G12G28
 117007117.336 7  91174456.876 7  22265702.625                    22265710.582
 113001079.076 7  88052942.22445  21503386.898                    21503395.309
 107282644.587 8  83597006.57846  20415188.695                    20415196.598
 120069261.704 7  93560514.41744  22848418.750                    22848427.016
 125869238.860 7  98079932.185 6  23952102.531                    23952114.039
 117984234.770 7  91935892.12745  22451670.805                    22451679.402
 109935873.820 8  85664456.00346  20920096.375                    20920101.781
 120054798.164 7  93549303.293 6  22845685.398                    22845693.484
 123646887.358 6  96348253.26443  23529223.984                    23529233.324
 11  8 11  0  8  0.0000000  0  9G17G10G04G27G05G09G02G12G28
 117048139.708 7  91206422.337 7  22273509.078                    22273516.895
 112942042.377 8  88006939.63545  21492152.867                    21492161.055
 107333486.657 8  83636623.77246  20424863.602                    20424871.418
 120113240.462 7  93594783.50844  22856787.367                    22856796.871
 125763388.175 7  97997451.410 6  23931959.445                    23931971.051
 118031291.054 7  91972559.33145  22460625.156                    22460634.016
 109901230.891 8  85637461.53646  20913503.703                    20913509.395
 119965299.375 7  93479564.026 6  22828654.367                    22828661.965
 123739364.793 6  96420313.48243  23546822.414                    23546831.320
 11  8 11  0  8 30.0000000  0  9G17G10G04G27G05G09G02G12G28
 117089263.818 8  91238467.081 7  22281334.867                    22281342.789
 112883470.421 8  87961299.18945  21481006.734                    21481015.332
 107384700.191 8  83676530.41746  20434609.305                    20434617.012
 120157546.607 7  93629307.74744  22865218.609                    22865227.844
 125657543.862 7  97914975.588 6  23911817.313                    23911828.910
 118078829.659 7  92009602.35145  22469671.703                    22469680.422
 109866954.582 8  85610752.74246  20906981.391                    20906986.988
 119875986.277 7  93409969.465 6  22811658.430                    22811666.164
 123832110.014 6  96492582.38743  23564471.195                    23564480.711
 11  8 11  0  9  0.0000000  0  9G17G10G04G27G05G09G02G12G28
 117130489.960 7  91270591.319 7  22289179.711                    22289187.102
 112825366.059 7  87916023.09645  21469950.133                    21469957.922
 107436283.090 8  83716724.87446  20444425.281                    20444432.855
 120202178.185 7  93664085.54744  22873711.750                    22873720.629
 125551708.950 7  97832507.083 6  23891677.289                    23891688.887
 118126847.843 7  92047019.09845  22478808.930                    22478817.832
 109833045.115 8  85584329.81046  20900528.664                    20900534.273
 119786861.944 7  93340522.002 6  22794698.773                    22794706.219
 123925121.772 6  96565059.00243  23582170.906                    23582180.016
 11  8 11  0  9 30.0000000  0  9G17G10G04G27G05G09G02G12G28
 117171818.748 7  91302795.547 7  22297044.484                    22297051.941
 112767732.130 7  87871113.58945  21458982.352                    21458990.563
 107488233.052 8  83757205.36046  20454310.703                    20454318.613
 120247132.975 7  93699115.19544  22882266.734                    22882275.980
 125445886.279 7  97750048.130 7  23871539.734                    23871551.469
 118175343.022 7  92084807.51345  22488037.781                    22488046.488
 109799502.219 8  85558192.50646  20894145.477                    20894151.004
 119697928.814 7  93271223.504 6  22777775.625                    22777782.652
 124018397.979 6  96637741.65443  23599921.539                    23599929.773
 11  8 11  0 10  0.0000000  0  9G17G10G04G27G05G09G02G12G28
 117213250.493 8  91335080.000 7  22304928.703                    22304935.855
 112710571.222 7  87826572.66145  21448104.711                    21448113.129
 107540547.643 8  83797969.96646  20464265.867                    20464273.875
 120292408.491 7  93734394.77944  22890882.688                    22890890.926
 125340078.490 7  97667600.748 7  23851405.469                    23851416.602
 118224312.007 7  92122965.12145  22497356.305                    22497365.066
 109766325.235 8  85532340.33446  20887832.375                    20887838.039
 119609189.351 7  93202075.950 6  22760888.602                    22760896.285
 124111936.902 6  96710629.03143  23617720.945                    23617730.262
 11  8 11  0 10 30.0000000  0  9G17G10G04G27G05G09G02G12G28
 117254785.657 8  91367445.050 7  22312832.813                    22312840.125
 112653885.995 7  87782402.40545  21437318.195                    21437326.551
 107593224.123 8  83839016.56746  20474290.125                    20474297.934
 120338002.163 7  93769922.23944  22899558.328                    22899567.910
 125234287.966 7  97585166.801 6  23831274.195                    23831284.398
 118273751.999 7  92161489.76245  22506764.414                    22506773.066
 109733513.865 8  85506773.05646  20881588.492                    20881594.219
 119520646.054 7  93133081.237 6  22744039.453                    22744047.191
 124205736.855 6  96783719.76643  23635570.570                    23635580.367
 11  8 11  0 11  0.0000000  0  9G17G10G04G27G05G09G02G12G28
 117296425.384 7  91399891.547 7  22320756.625                    22320763.891
 112597679.430 8  87738605.11845  21426622.664                    21426630.527
 107646260.701 8  83880343.75846  20484382.453                    20484390.328
 120383911.864 7  93805695.98844  22908294.617                    22908304.383
 125128518.558 7  97502749.332 6  23811146.359                    23811157.691
 118323660.448 7  92200379.43245  22516261.305                    22516269.926
 109701068.458 8  85481490.95946  20875414.234                    20875419.547
 119432301.191 7  93064241.145 7  22727227.867                    22727235.516
 124299796.444 6  96857012.85343  23653469.164                    23653478.152
 11  8 11  0 11 30.0000000  0  9G17G10G04G27G05G09G02G12G28
 117338169.842 7  91432419.673 7  22328699.813                    22328708.082
 112541954.287 8  87695182.96945  21416017.984                    21416026.617
 107699655.165 8  83921949.82546  20494543.148                    20494550.867
 120430135.355 7  93841714.24944  22917090.914                    22917099.703
 125022772.410 7  97420349.977 6  23791024.070                    23791034.195
 118374034.768 7  92239632.10444  22525847.703                    22525856.148
 109668988.500 8  85456493.61046  20869309.203                    20869314.871
 119344157.600 7  92995557.878 7  22710454.484                    22710462.391
 124394113.875 6  96930506.83443  23671417.703                    23671427.066
 11  8 11  0 12  0.0000000  0  9G17G10G04G27G05G09G02G12G28
 117380019.178 7  91465029.508 7  22336664.070                    22336671.453
 112486712.850 8  87652137.72445  21405506.391                    21405514.176
 107753404.800 8  83963832.64846  20504771.078                    20504779.000
 120476670.040 7  93877974.97145  22925946.438                    22925956.234
 124917052.325 7  97337970.921 6  23770905.570                    23770916.410
 118424871.618 7  92279245.19744  22535521.836                    22535530.000
 109637273.221 8  85431780.42346  20863274.141                    20863279.844
 119256217.701 7  92927033.329 7  22693720.156                    22693727.980
 124488686.989 6  97004200.08243  23689413.836                    23689422.809
 11  8 11  0 12 30.0000000  0  9G17G10G04G27G05G09G02G12G28
 117421974.327 7  91497721.804 7  22344647.508                    22344655.441
 112431958.239 8  87609471.81945  21395086.813                    21395094.871
 107807507.576 8  84005990.62946  20515066.906                    20515074.438
 120523513.704 7  93914476.46744  22934860.422                    22934869.797
 124811361.545 7  97255614.692 6  23750793.125                    23750803.898
 118476168.480 7  92319216.74345  22545283.289                    22545292.363
 109605922.847 8  85407351.58246  20857308.391                    20857314.289
 119168484.074 7  92858669.511 7  22677024.883                    22677032.941
 124583514.584 6  97078091.60643  23707459.234                    23707469.020
 11  8 11  0 13  0.0000000  0  9G17G10G04G27G05G09G02G12G28
 117464035.714 7  91530496.887 7  22352651.563                    22352659.758
 112377693.362 8  87567187.53445  21384760.406                    21384768.637
 107861960.970 8  84048421.83546  20525429.000                    20525437.016
 120570664.079 7  93951216.94144  22943832.492                    22943842.023
 124705702.796 7  97173283.397 6  23730687.031                    23730696.758
 118527922.622 7  92359544.62445  22555131.719                    22555140.406
 109574937.115 8  85383206.87346  20851411.930                    20851418.121
 119080959.267 7  92790468.400 7  22660369.547                    22660377.176
 124678594.643 6  97152179.86643  23725552.570                    23725561.539
 11  8 11  0 13 30.0000000  0  9G17G10G04G27G05G09G02G12G28
 117506204.121 7  91563355.354 7  22360676.195                    22360683.879
 112323920.171 8  87525286.36745  21374527.672                    21374536.180
 107916762.542 8  84091124.35246  20535857.359                    20535865.137
 120618118.309 7  93988194.23244  22952862.680                    22952872.523
 124600078.574 7  97090979.019 6  23710586.859                    23710596.875
 118580130.889 7  92400226.36444  22565065.930                    22565075.355
 109544315.266 8  85359345.70846  20845584.758                    20845590.602
 118993645.475 7  92722431.702 7  22643754.055                    22643761.844
 124773925.056 6  97226463.20143  23743693.109                    23743702.988
 11  8 11  0 14  0.0000000  0  9G17G10G04G27G05G09G02G12G28
 117548479.298 7  91596297.030 7  22368720.836                    22368728.586
 112270641.135 8  87483770.26346  21364389.031                    21364396.938
 107971909.829 8  84134096.24646  20546351.719                    20546359.277
 120665873.993 7  94025406.37544  22961950.641                    22961959.809
 124494492.275 7  97008704.178 6  23690493.992                    23690504.375
 118632790.377 7  92441259.68644  22575086.891                    22575096.051
 109514057.120 8  85335767.94646  20839827.141                    20839832.531
 118906545.374 7  92654561.504 7  22627179.836                    22627187.395
 124869504.358 6  97300940.47543  23761881.227                    23761891.234
 11  8 11  0 14 30.0000000  0  9G17G10G04G27G05G09G02G12G28
 117590861.976 7  91629322.462 7  22376785.984                    22376793.398
 112217859.002 8  87442641.34845  21354344.836                    21354353.039
 108027400.627 8  84177335.81546  20556911.313                    20556918.926
 120713928.813 7  94062851.61144  22971095.539                    22971105.398
 124388946.083 7  96926460.594 6  23670409.047                    23670419.867
 118685898.307 7  92482642.44344  22585193.367                    22585202.379
 109484162.155 8  85312473.18346  20834138.344                    20834144.117
 118819661.578 7  92586859.854 7  22610646.266                    22610653.574
 124965331.092 6  97375610.50343  23780116.438                    23780126.254
 11  8 11  0 15  0.0000000  0  9G17G10G04G27G05G09G02G12G28
 117633353.201 8  91662432.470 7  22384872.250                    22384879.980
 112165576.255 8  87401901.56845  21344395.641                    21344403.789
 108083232.641 8  84220841.26346  20567535.789                    20567543.055
 120762280.396 7  94100528.12944  22980296.023                    22980305.738
 124283443.193 7  96844250.768 6  23650332.750                    23650343.266
 118739451.566 7  92524372.20844  22595384.492                    22595393.246
 109454630.051 8  85289461.17546  20828518.484                    20828523.840
 118732996.445 7  92519328.587 7  22594154.172                    22594161.883
 125061402.828 6  97450471.53143  23798398.617                    23798408.066
 11  8 11  0 15 30.0000000  0  9G17G10G04G27G05G09G02G12G28
 117675953.396 8  91695627.403 7  22392978.805                    22392986.137
 112113795.953 8  87361553.29345  21334542.453                    21334550.523
 108139403.813 8  84264610.99846  20578224.742                    20578232.219
 120810926.560 7  94138434.15144  22989552.953                    22989563.344
 124177986.690 7  96762077.098 6  23630264.750                    23630274.984
 118793447.433 7  92566446.87344  22605659.227                    22605668.551
 109425460.953 8  85266732.02946  20822967.617                    20822973.242
 118646553.020 7  92451970.076 7  22577704.695                    22577712.344
 125157718.200 6  97525522.37543  23816726.672                    23816736.875
 11  8 11  0 16  0.0000000  0  9G17G10G04G27G05G09G02G12G28
 117718662.220 7  91728906.975 7  22401105.844                    22401113.461
 112062519.518 8  87321597.65445  21324784.492                    21324792.617
 108195910.892 8  84308642.47546  20588977.797                    20588985.465
 120859864.038 7  94176567.19144  22998866.328                    22998875.695
 124072578.883 7  96679941.313 6  23610206.141                    23610216.074
 118847882.350 7  92608863.64644  22616017.477                    22616026.652
 109396653.328 8  85244284.54946  20817485.563                    20817490.980
 118560333.319 7  92384785.892 7  22561297.953                    22561305.352
 125254274.719 6  97600761.08143  23835101.297                    23835110.793
 11  8 11  0 16 30.0000000  0  9G17G10G04G27G05G09G02G12G28
 117761481.043 7  91762272.261 7  22409253.977                    22409261.785
 112011750.127 8  87282037.11245  21315123.398                    21315131.684
 108252752.071 8  84352934.28846  20599793.930                    20599801.648
 120909090.710 7  94214925.56144  23008233.992                    23008243.148
 123967222.818 7  96597845.914 6  23590157.727                    23590168.000
 118902753.914 7  92651620.66945  22626459.898                    22626468.492
 109368207.361 8  85222118.87746  20812072.547                    20812078.340
 118474339.852 7  92317777.995 7  22544933.352                    22544940.969
 125351071.181 6  97676186.80143  23853520.703                    23853531.293
 11  8 11  0 17  0.0000000  0  9G17G10G04G27G05G09G02G12G28
 117804410.240 7  91795723.562 7  22417423.430                    22417430.762
 111961489.967 8  87242873.38445  21305559.273                    21305567.410
 108309924.687 8  84397484.36446  20610673.703                    20610681.574
 120958604.105 7  94253507.36045  23017655.547                    23017665.746
 123861921.554 7  96515793.194 6  23570119.188                    23570129.418
 118958058.721 7  92694715.26644  22636984.086                    22636993.164
 109340122.583 8  85200234.64946  20806728.445                    20806733.859
 118388575.337 7  92250948.531 7  22528613.031                    22528620.668
 125448105.270 6  97751797.64743  23871986.461                    23871995.852
 11  8 11  0 17 30.0000000  0  9G17G10G04G27G05G09G02G12G28
 117847450.253 7  91829261.210 7  22425613.414                    22425620.945
 111911742.109 8  87204108.83346  21296092.570                    21296101.043
 108367426.885 8  84442291.25046  20621616.109                    20621623.922
 121008402.133 7  94292310.96444  23027131.594                    23027141.594
 123756678.172 7  96433785.559 6  23550091.445                    23550101.422
 119013794.231 7  92738145.48745  22647589.617                    22647599.383
 109312398.927 8  85178631.81846  20801452.719                    20801457.879
 118303042.667 7  92184299.712 7  22512337.078                    22512345.148
 125545375.670 6  97827592.62043  23890496.336                    23890506.320
 11  8 11  0 18  0.0000000  0  9G17G10G04G27G05G09G02G12G28
 117890601.802 7  91862885.769 7  22433824.781                    22433832.270
 111862508.636 8  87165745.12145  21286723.742                    21286731.848
 108425256.363 8  84487353.16246  20632620.594                    20632628.449
 121058482.127 7  94331334.26644  23036661.906                    23036671.863
 123651495.205 7  96351824.985 6  23530076.320                    23530086.086
 119069957.184 7  92781908.76645  22658277.742                    22658286.602
 109285035.631 8  85157309.77746  20796245.477                    20796251.074
 118217744.040 7  92117833.312 7  22496104.695                    22496112.676
 125642880.437 6  97903570.21643  23909050.438                    23909060.516
 11  8 11  0 18 30.0000000  0  9G17G10G04G27G05G09G02G12G28
 117933865.499 7  91896597.722 7  22442057.602                    22442065.688
 111813791.733 8  87127783.92546  21277453.250                    21277461.707
 108483410.154 8  84532667.79546  20643687.023                    20643694.973
 121108841.262 7  94370575.08144  23046244.984                    23046254.336
 123546375.395 7  96269913.631 6  23510072.336                    23510082.266
 119126544.246 7  92826002.52744  22669045.516                    22669054.797
 109258031.853 8  85136267.88346  20791106.680                    20791112.504
 118132681.915 7  92051551.184 7  22479918.359                    22479926.121
 125740617.167 6  97979728.60143  23927649.484                    23927659.707
 11  8 11  0 19  0.0000000  0  9G17G10G04G27G05G09G02G12G28
 117977241.724 7  91930397.337 7  22450312.172                    22450319.563
 111765594.457 8  87090227.62146  21268281.547                    21268289.773
 108541886.422 8  84578233.69446  20654814.609                    20654822.816
 121159477.667 7  94410031.93644  23055880.789                    23055890.801
 123441322.368 7  96188054.292 6  23490081.008                    23490091.168
 119183553.222 7  92870425.05345  22679893.797                    22679903.414
 109231388.148 8  85115506.58146  20786036.922                    20786042.305
 118047859.135 7  91985455.565 7  22463776.820                    22463784.680
 125838584.737 6  98056066.82343  23946292.211                    23946302.414
 11  8 11  0 19 30.0000000  0  9G17G10G04G27G05G09G02G12G28
 118020730.782 7  91964284.876 7  22458587.797                    22458595.465
 111717918.537 8  87053077.58546  21259209.320                    21259217.191
 108600682.447 8  84624048.75746  20666002.938                    20666011.020
 121210388.214 7  94449702.45044  23065569.063                    23065577.871
 123336338.433 7  96106248.806 6  23470103.258                    23470113.555
 119240980.358 7  92915173.41644  22690822.539                    22690831.422
 109205103.219 8  85095024.84446  20781035.055                    20781040.094
 117963278.122 7  91919548.336 7  22447681.633                    22447689.309
 125936780.838 6  98132583.12143  23964979.141                    23964988.934
 11  8 11  0 20  0.0000000  0  9G17G10G04G27G05G09G02G12G28
 118064333.654 7  91998261.093 7  22466885.086                    22466892.844
 111670766.706 8  87016335.93245  21250236.125                    21250244.422
 108659796.045 8  84670111.28646  20677252.242                    20677260.051
 121261570.517 7  94489584.69044  23075308.859                    23075317.836
 123231426.625 7  96024499.535 6  23450139.070                    23450149.707
 119298822.621 7  92960245.26744  22701829.094                    22701838.250
 109179176.731 8  85074822.40746  20776101.031                    20776106.285
 117878941.378 7  91853831.454 7  22431632.453                    22431640.234
 126035203.680 6  98209276.14343  23983707.609                    23983717.898
 11  8 11  0 20 30.0000000  0  9G17G10G04G27G05G09G02G12G28
 118108050.376 7  92032326.046 7  22475203.742                    22475211.949
 111624140.883 8  86980004.15146  21241364.133                    21241371.898
 108719224.530 8  84716419.17746  20688560.906                    20688568.637
 121313021.771 7  94529676.53644  23085098.727                    23085108.789
 123126589.601 7  95942808.517 6  23430189.273                    23430198.922
 119357076.815 7  93005638.10644  22712914.797                    22712924.027
 109153607.785 8  85054898.58546  20771235.734                    20771240.988
 117794851.567 7  91788306.982 7  22415630.563                    22415638.887
 126133851.117 6  98286144.13042  24002479.773                    24002489.984
 11  8 11  0 21  0.0000000  0  9G17G10G04G27G05G09G02G12G28
 118151882.092 7  92066480.607 7  22483545.156                    22483552.715
 111578043.839 8  86944084.40345  21232592.094                    21232600.070
 108778965.869 8  84762970.84446  20699929.477                    20699937.297
 121364739.816 7  94569976.20144  23094940.625                    23094950.984
 123021830.591 7  95861178.256 6  23410254.344                    23410263.902
 119415740.475 7  93051349.99245  22724077.914                    22724087.445
 109128396.724 8  85035253.61846  20766437.906                    20766443.156
 117711011.329 7  91722976.972 7  22399676.609                    22399684.375
 126232721.664 6  98363185.99343  24021295.016                    24021304.043
 11  8 11  0 21 30.0000000  0 10G17G10G04G27G05G09G02G12G30G28
 118195829.092 7  92100724.994 7  22491907.898                    22491915.906
 111532477.695 8  86908578.35045  21223920.844                    21223929.098
 108839017.480 8  84809764.28446  20711356.664                    20711364.617
 121416721.925 7  94610481.67644  23104832.828                    23104842.949
 122917152.377 7  95779610.960 6  23390334.648                    23390344.617
 119474810.101 7  93097378.20544  22735318.500                    22735328.133
 109103542.607 8  85015886.79846  20761708.266                    20761713.781
 117627422.910 8  91657843.176 7  22383770.570                    22383777.930
 127948093.38916  99699984.40453  24347746.703                    24347755.801
 126331813.281 6  98440400.08143  24040150.469                    24040162.035
 11  8 11  0 22  0.0000000  0 10G17G10G04G27G05G09G02G12G30G28
 118239891.993 7  92135059.698 7  22500292.484                    22500300.336
 111487444.864 8  86873487.86945  21215351.656                    21215359.504
 108899377.394 8  84856797.95946  20722843.188                    20722850.445
 121468965.738 7  94651191.04444  23114774.438                    23114784.727
 122812557.997 7  95698108.979 6  23370430.648                    23370440.230
 119534282.884 7  93143720.60145  22746635.945                    22746645.730
 109079045.013 8  84996797.78546  20757046.828                    20757052.121
 117544089.307 7  91592907.944 7  22367912.289                    22367920.059
 127841322.118 6  99616786.07243  24327428.406                    24327438.504
 126431123.817 6  98517784.83543  24059050.445                    24059059.512
 11  8 11  0 22 30.0000000  0 10G17G10G04G27G05G09G02G12G30G28
 118284071.095 7  92169484.948 7  22508699.570                    22508707.520
 111442947.340 8  86838814.49846  21206883.688                    21206891.957
 108960042.578 8  84904069.51246  20734387.281                    20734395.477
 121521468.456 7  94692102.19344  23124765.344                    23124775.059
 122708050.182 7  95616674.421 6  23350543.641                    23350552.723
 119594155.346 7  93190374.41545  22758029.727                    22758038.742
 109054902.855 8  84977985.73046  20752452.875                    20752458.195
 117461012.702 8  91528172.975 7  22352103.477                    22352111.469
 127734688.277 7  99533694.83443  24307137.133                    24307145.828
 126530651.178 6  98595338.44743  24077989.398                    24077999.215
 11  8 11  0 23  0.0000000  0 10G17G10G04G27G05G09G02G12G30G28
 118328367.365 7  92204001.483 7  22517128.750                    22517137.094
 111398987.329 8  86804559.98046  21198518.750                    21198526.621
 109021011.424 8  84951577.67846  20745989.469                    20745997.203
 121574227.776 7  94733213.28744  23134805.859                    23134815.555
 122603632.149 7  95535309.843 6  23330672.977                    23330683.605
 119654424.318 7  93237337.19144  22769497.891                    22769507.195
 109031116.380 8  84959450.82846  20747926.289                    20747931.645
 117378195.923 7  91463640.457 7  22336343.461                    22336351.344
 127628194.872 6  99450713.01143  24286872.070                    24286881.387
 126630393.916 6  98673059.94343  24096969.734                    24096979.738
 11  8 11  0 23 30.0000000  0 10G17G10G04G27G05G09G02G12G30G28
 118372781.054 7  92238609.528 7  22525580.875                    22525588.922
 111355567.243 8  86770726.18546  21190255.594                    21190263.891
 109082281.172 8  84999320.31646  20757648.563                    20757656.523
 121627241.015 7  94774522.24044  23144893.469                    23144903.352
 122499306.822 7  95454017.508 6  23310820.586                    23310829.871
 119715086.900 7  93284606.66944  22781042.055                    22781051.738
 109007684.719 8  84941192.39746  20743467.617                    20743472.727
 117295641.714 8  91399312.532 7  22320634.281                    22320641.586
 127521844.580 7  99367842.68743  24266634.359                    24266643.391
 126730349.788 6  98750947.47843  24115991.031                    24116000.621
 11  8 11  0 24  0.0000000  0 10G17G10G04G27G05G09G02G12G30G28
 118417313.152 7  92273309.840 7  22534054.781                    22534062.789
 111312689.606 8  86737315.07146  21182096.391                    21182104.469
 109143849.794 8  85047295.84646  20769364.813                    20769372.441
 121680505.887 7  94816027.27144  23155029.578                    23155039.328
 122395076.936 7  95372799.543 6  23290986.211                    23290995.770
 119776139.913 7  93332180.39445  22792660.320                    22792669.266
 108984607.543 8  84923210.20346  20739075.750                    20739081.238
 117213352.418 7  91335191.029 7  22304974.758                    22304982.582
 127415640.229 7  99285086.13143  24246424.469                    24246432.727
 126830517.235 6  98828999.87443  24135052.086                    24135061.680
 11  8 11  0 24 30.0000000  0 10G17G10G04G27G05G09G02G12G30G28
 118461963.964 7  92308102.646 7  22542551.430                    22542559.277
 111270356.131 8  86704327.96145  21174040.789                    21174048.988
 109205714.420 8  85095502.03746  20781137.133                    20781144.773
 121734019.304 7  94857725.95044  23165212.539                    23165222.723
 122290945.518 7  95291658.302 6  23271170.172                    23271180.672
 119837579.941 7  93380055.68344  22804352.352                    22804361.051
 108961883.519 8  84905503.18446  20734751.469                    20734757.348
 117131330.495 7  91271277.864 7  22289366.797                    22289374.672
 127309584.023 6  99202444.97843  24226241.945                    24226251.426
 126930893.762 6  98907215.22942  24154153.156                    24154162.180
 11  8 11  0 25  0.0000000  0 10G17G10G04G27G05G09G02G12G30G28
 118506733.794 7  92342988.212 7  22551071.211                    22551079.352
 111228568.847 8  86671766.46846  21166088.719                    21166096.613
 109267872.913 8  85143937.21446  20792965.500                    20792973.387
 121787778.859 7  94899616.44444  23175443.227                    23175452.746
 122186915.403 7  95210595.994 6  23251374.313                    23251383.742
 119899404.115 7  93428230.32744  22816116.961                    22816126.090
 108939512.438 8  84888071.18746  20730494.219                    20730499.801
 117049578.411 7  91207574.956 7  22273809.688                    22273816.824
 127203678.753 6  99119921.39043  24206088.969                    24206098.320
 127031477.699 6  98985592.24342  24173293.367                    24173302.895
 11  8 11  0 25 30.0000000  0 10G17G10G04G27G05G09G02G12G30G28
 118551623.393 7  92377967.093 7  22559613.539                    22559621.063
 111187330.277 8  86639632.53346  21158241.141                    21158249.117
 109330322.987 8  85192599.59646  20804849.102                    20804857.379
 121841781.971 7  94941696.73644  23185719.594                    23185729.395
 122082989.536 7  95129614.908 6  23231597.703                    23231607.477
 119961609.028 7  93476701.63044  22827953.500                    22827962.531
 108917493.780 8  84870913.80346  20726304.484                    20726309.762
 116968099.368 7  91144084.814 7  22258305.258                    22258312.195
 127097927.287 6  99037517.74242  24185964.898                    24185973.961
 127132266.966 6  99064129.16442  24192473.617                    24192483.191
 11  8 11  0 26  0.0000000  0 10G17G10G04G27G05G09G02G12G30G28
 118596633.477 7  92413039.871 7  22568178.664                    22568186.074
 111146642.302 8  86607927.63646  21150498.875                    21150506.578
 109393062.094 8  85241487.19046  20816788.125                    20816795.895
 121896025.803 7  94983964.57644  23196042.336                    23196052.309
 121979170.964 7  95048717.483 7  23211841.281                    23211851.328
 120024191.493 7  93525467.15244  22839863.281                    22839872.480
 108895826.919 8  84854030.54646  20722181.492                    20722186.844
 116886895.521 7  91080809.110 7  22242852.453                    22242859.918
 126992332.269 6  98955235.93843  24165870.477                    24165880.344
 127233259.488 6  99142824.54543  24211692.008                    24211701.367
 11  8 11  0 26 30.0000000  0 10G17G10G04G27G05G09G02G12G30G28
 118641764.478 7  92448206.856 7  22576766.461                    22576773.961
 111106506.698 8  86576653.17346  21142861.336                    21142869.016
 109456087.691 8  85290598.04146  20828781.539                    20828789.500
 121950507.588 7  95026417.86444  23206409.727                    23206419.668
 121875462.416 7  94967905.747 6  23192106.766                    23192115.816
 120087148.023 7  93574524.13844  22851843.336                    22851852.328
 108874510.906 8  84837420.67246  20718125.219                    20718130.520
 116805969.277 7  91017749.722 7  22227452.563                    22227460.008
 126886896.019 6  98873077.91743  24145807.172                    24145816.676
 127334453.407 6  99221676.76643  24230948.641                    24230958.125
 11  8 11  0 27  0.0000000  0 10G17G10G04G27G05G09G02G12G30G28
 118687017.024 7  92483468.552 7  22585378.180                    22585385.785
 111066925.887 8  86545810.99146  21135329.188                    21135337.270
 109519398.049 8  85339930.77246  20840828.945                    20840837.160
 122005225.201 7  95069054.87244  23216821.695                    23216831.980
 121771867.084 7  94887182.232 6  23172392.820                    23172401.871
 120150475.684 7  93623870.29844  22863894.328                    22863903.273
 108853545.548 8  84821084.04446  20714135.781                    20714141.133
 116725323.540 7  90954908.919 7  22212106.148                    22212114.125
 126781621.871 6  98791046.17343  24125774.484                    24125783.746
 127435846.775 6  99300684.45143  24250243.563                    24250253.230
 11  8 11  0 27 30.0000000  0 10G17G10G04G27G05G09G02G12G30G28
 118732391.727 8  92518825.437 7  22594012.492                    22594020.266
 111027901.824 8  86515402.65946  21127903.148                    21127910.934
 109582990.599 8  85389483.38946  20852930.305                    20852937.988
 122060176.001 7  95111873.60844  23227279.133                    23227288.996
 121668388.079 7  94806549.380 6  23152701.266                    23152711.109
 120214171.481 7  93673503.32744  22876014.695                    22876024.895
 108832930.392 8  84805020.30646  20710212.516                    20710218.125
 116644960.981 8  90892288.770 7  22196813.820                    22196821.133
 126676512.396 6  98709142.74543  24105772.945                    24105781.988
 127537437.556 6  99379845.92243  24269574.969                    24269586.227
 11  8 11  0 28  0.0000000  0 10G17G10G04G27G05G09G02G12G30G28
 118777888.854 7  92554277.710 7  22602670.633                    22602678.660
 110989436.328 8  86485429.57246  21120583.586                    21120591.387
 109646862.653 8  85439253.82546  20865084.820                    20865092.582
 122115356.795 7  95154871.54044  23237779.250                    23237789.176
 121565027.937 7  94726009.141 6  23133032.539                    23133041.879
 120278232.042 7  93723420.57544  22888205.344                    22888214.801
 108812664.254 8  84789228.52246  20706356.195                    20706361.496
 116564883.976 8  90829891.136 7  22181575.656                    22181582.898
 126571570.141 7  98627369.63143  24085801.859                    24085811.953
 127639223.701 5  99459159.65242  24288943.969                    24288955.504
 11  8 11  0 28 30.0000000  0 10G17G10G04G27G05G09G02G12G30G28
 118823510.008 7  92589826.617 7  22611352.055                    22611359.578
 110951532.344 8  86455894.02646  21113370.469                    21113378.121
 109711012.784 8  85489240.92546  20877292.172                    20877300.418
 122170765.954 7  95198047.45744  23248323.477                    23248333.070
 121461790.400 7  94645564.443 7  23113386.625                    23113396.488
 120342654.601 7  93773619.90444  22900464.844                    22900474.121
 108792747.205 8  84773708.76146  20702565.891                    20702571.055
 116485095.752 8  90767718.521 7  22166392.531                    22166400.223
 126466798.379 6  98545729.37343  24065865.281                    24065874.477
 127741203.71115  99538624.30452  24308350.391                    24308361.840
 11  8 11  0 29  0.0000000  0 10G17G10G04G27G05G09G02G12G30G28
 118869255.685 7  92625472.550 7  22620057.047                    22620064.758
 110914191.572 8  86426797.33946  21106264.852                    21106272.672
 109775438.355 8  85539442.66246  20889551.727                    20889559.734
 122226400.793 7  95241399.22144  23258910.922                    23258920.602
 121358678.231 7  94565217.420 6  23093765.047                    23093774.207
 120407435.874 7  93824098.75144  22912792.469                    22912801.207
 108773178.456 8  84758460.40446  20698842.203                    20698847.715
 116405598.779 8  90705772.869 7  22151264.602                    22151271.902
 126362199.849 7  98464224.03643  24045960.930                    24045969.633
 127843375.418 6  99618238.49142  24327793.789                    24327804.723
 11  8 11  0 29 30.0000000  0  9G17G10G04G27G05G09G02G12G30
 118915125.748 7  92661215.411 7  22628786.055                    22628793.523
 110877415.543 8  86398140.70646  21099266.453                    21099274.211
 109840136.748 8  85589856.98046  20901863.836                    20901871.391
 122282258.087 7  95284924.30344  23269539.773                    23269549.512
 121255694.623 7  94484970.568 6  23074167.813                    23074177.137
 120472572.218 7  93874854.30244  22925186.836                    22925196.566
 108753956.960 8  84743482.62346  20695184.641                    20695189.430
 116326395.229 8  90644055.846 7  22136193.023                    22136200.254
 126257776.854 7  98382855.49544  24026090.180                    24026098.863
 11  8 11  0 30  0.0000000  0  9G17G10G04G27G05G09G02G12G30
 118961120.904 7  92697055.753 7  22637537.961                    22637546.234
 110841206.040 8  86369925.52746  21092376.063                    21092383.703
 109905105.818 8  85640482.23246  20914227.047                    20914234.695
 122338335.261 7  95328620.74644  23280210.828                    23280221.258
 121152841.696 7  94404825.554 6  23054595.773                    23054604.660
 120538060.330 7  93925883.92244  22937649.633                    22937658.855
 108735082.220 8  84728775.03946  20691592.453                    20691598.105
 116247487.795 8  90582569.549 7  22121177.313                    22121184.422
 126153532.320 7  98301625.99144  24006252.711                    24006261.691
 11  8 11  0 30 30.0000000  0  9G17G10G04G27G05G09G02G12G30
 119007241.307 7  92732993.672 7  22646315.047                    22646322.703
 110805564.520 8  86342152.92346  21085593.688                    21085601.266
 109970342.379 8  85691315.90646  20926640.875                    20926648.730
 122394629.088 6  95372485.97744  23290922.711                    23290933.539
 121050122.306 7  94324784.569 6  23035048.523                    23035057.426
 120603896.410 7  93977184.70344  22950177.430                    22950186.969
 108716552.853 8  84714336.57746  20688066.320                    20688072.000
 116168878.714 7  90521315.739 7  22106218.172                    22106225.617
 126049468.228 7  98220537.09444  23986450.617                    23986458.766
 11  8 11  0 31  0.0000000  0  9G17G10G04G27G05G09G02G12G30
 119053488.022 7  92769030.045 7  22655114.859                    22655123.273
 110770493.608 8  86314824.95746  21078919.766                    21078928.063
 110035844.584 8  85742356.57046  20939105.641                    20939113.414
 122451137.335 6  95416518.28244  23301676.539                    23301686.570
 120947539.938 7  94244850.364 6  23015527.570                    23015536.633
 120670077.404 7  94028754.23244  22962771.195                    22962781.207
 108698368.537 8  84700166.98946  20684606.594                    20684611.477
 116090570.446 8  90460296.320 7  22091316.906                    22091323.895
 125945587.974 6  98139591.47543  23966682.211                    23966691.434
 11  8 11  0 31 30.0000000  0  9G17G10G04G27G05G09G02G12G30
 119099861.398 7  92805165.099 6  22663940.492                    22663947.488
 110735994.800 8  86287942.78546  21072354.750                    21072362.664
 110101610.122 8  85793602.43046  20951620.266                    20951628.020
 122507857.260 7  95460715.50744  23312470.383                    23312480.234
 120845097.274 7  94165024.994 6  22996033.828                    22996042.879
 120736600.010 7  94080589.95044  22975430.547                    22975440.371
 108680528.372 8  84686265.57046  20681211.797                    20681216.559
 116012565.826 8  90399513.498 7  22076472.766                    22076480.258
 125841894.009 6  98058791.02943  23946950.039                    23946958.934
 11  8 11  0 32  0.0000000  0  9G17G10G04G27G05G09G02G12G30
 119146361.854 7  92841399.159 7  22672788.742                    22672796.547
 110702069.821 8  86261507.75046  21065898.836                    21065907.184
 110167636.550 8  85845051.59446  20964185.039                    20964192.617
 122564786.144 6  95505075.62844  23323303.555                    23323312.871
 120742797.249 7  94085310.798 6  22976566.539                    22976574.961
 120803461.162 7  94132689.49044  22988153.695                    22988163.520
 108663031.821 8  84672631.90246  20677881.844                    20677886.961
 115934867.840 8  90338969.628 7  22061687.531                    22061694.852
 125738389.267 6  97978138.05043  23927252.727                    23927262.188
 11  8 11  0 32 30.0000000  0  9G17G10G04G27G05G09G02G12G30
 119192990.371 7  92877733.043 7  22681661.578                    22681669.797
 110668720.733 8  86235521.46446  21059553.359                    21059561.145
 110233921.854 8  85896702.46546  20976798.641                    20976806.535
 122621921.381 7  95549596.52043  23334175.828                    23334185.746
 120640643.166 7  94005710.315 6  22957126.727                    22957136.090
 120870657.661 7  94185050.33444  23000940.797                    23000950.223
 108645878.166 8  84659265.41946  20674617.906                    20674623.137
 115857478.407 8  90278666.184 7  22046960.734                    22046968.230
 125635076.599 6  97897634.75143  23907593.438                    23907602.414
 11  8 11  0 33  0.0000000  0  9G17G10G04G27G05G09G02G12G30
 119239747.167 7  92914166.858 7  22690559.820                    22690567.082
 110635948.793 8  86209984.90146  21053316.688                    21053324.559
 110300463.178 8  85948552.83246  20989461.094                    20989468.992
 122679260.010 7  95594275.90044  23345086.945                    23345097.301
 120538637.465 7  93926225.445 7  22937716.102                    22937724.996
 120938185.642 7  94237669.51244  23013791.172                    23013800.691
 108629066.236 8  84646165.22646  20671418.477                    20671424.008
 115780400.197 8  90218605.253 7  22032293.430                    22032300.301
 125531958.492 6  97817283.05043  23887969.656                    23887979.336
 11  8 11  0 33 30.0000000  0  9G17G10G04G27G05G09G02G12G30
 119286633.257 7  92950701.422 7  22699481.000                    22699489.219
 110603756.502 8  86184900.01646  21047191.031                    21047198.855
 110367258.990 8  86000601.48946  21002171.789                    21002179.738
 122736799.860 6  95639112.04444  23356036.789                    23356046.980
 120436783.857 7  93846859.088 7  22918334.109                    22918342.906
 121006042.595 7  94290545.00044  23026704.258                    23026713.426
 108612596.183 8  84633331.43646  20668284.289                    20668289.609
 115703636.146 8  90158789.119 7  22017685.805                    22017692.703
 125429038.119 6  97737085.42943  23868385.344                    23868394.246
 11  8 11  0 34  0.0000000  0  9G17G10G04G27G05G09G02G12G30
 119333649.041 7  92987337.053 6  22708428.273                    22708436.410
 110572145.154 8  86160267.80946  21041175.258                    21041183.262
 110434306.057 8  86052845.93646  21014930.484                    21014938.211
 122794537.789 6  95684102.54444  23367023.695                    23367034.031
 120335084.836 7  93767613.194 7  22898981.367                    22898990.141
 121074224.475 7  94343673.68144  23039678.969                    23039687.809
 108596466.420 8  84620762.79446  20665214.984                    20665220.434
 115627188.509 8  90099219.542 7  22003138.109                    22003145.070
 125326317.862 6  97657043.70343  23848838.313                    23848847.082
 11  8 11  0 34 30.0000000  0  9G17G10G04G27G05G09G02G12G30
 119380795.253 7  93024074.317 6  22717400.008                    22717407.672
 110541116.937 8  86136089.98246  21035270.977                    21035278.852
 110501602.900 8  86105285.01246  21027736.742                    21027744.867
 122852471.499 7  95729245.60344  23378048.688                    23378059.098
 120233543.690 7  93688490.324 7  22879658.430                    22879667.309
 121142728.713 7  94397053.57444  23052713.938                    23052723.742
 108580676.971 8  84608459.33746  20662210.031                    20662215.605
 115551060.320 8  90039898.888 7  21988651.500                    21988658.625
 125223800.996 6  97577160.50543  23829329.820                    23829338.816
 11  8 11  0 35  0.0000000  0  9G17G10G04G27G05G09G02G12G30
 119428072.180 7  93060913.445 7  22726396.625                    22726404.434
 110510672.961 8  86112367.42346  21029477.563                    21029485.551
 110569146.884 8  86157916.66246  21040589.828                    21040597.684
 122910597.935 7  95774538.81844  23389109.961                    23389119.949
 120132163.085 7  93609492.548 7  22860365.898                    22860375.113
 121211551.689 7  94450681.80444  23065810.906                    23065820.527
 108565226.441 8  84596419.97546  20659270.086                    20659275.508
 115475253.799 8  89980828.900 7  21974225.969                    21974233.387
 125121489.970 6  97497437.70643  23809860.570                    23809869.656
 11  8 11  0 35 30.0000000  0  9G17G10G04G27G05G09G02G12G30
 119475480.407 7  93097854.890 7  22735418.086                    22735425.797
 110480814.825 8  86089101.36546  21023795.961                    21023803.695
 110636935.439 8  86210738.88846  21053489.297                    21053497.387
 122968914.207 7  95819979.98344  23400207.469                    23400217.414
 120030945.945 7  93530622.153 7  22841104.852                    22841114.102
 121280689.542 7  94504555.41944  23078967.523                    23078976.820
 108550113.703 8  84584643.82446  20656394.453                    20656399.996
 115399771.572 8  89922011.603 7  21959861.953                    21959869.508
 125019387.325 6  97417877.29244  23790431.672                    23790440.496
 11  8 11  0 36  0.0000000  0  9G17G10G04G27G05G09G02G12G30
 119523020.158 7  93134898.819 7  22744464.164                    22744472.633
 110451543.430 8  86066292.51046  21018225.133                    21018233.352
 110704965.900 8  86263749.60946  21066435.641                    21066443.379
 123027417.425 7  95865566.82544  23411340.633                    23411350.512
 119929894.880 7  93451881.178 7  22821875.539                    22821884.422
 121350138.905 7  94558671.72544  23092183.570                    23092192.340
 108535337.651 8  84573130.02646  20653582.398                    20653587.711
 115324615.809 8  89863448.703 7  21945560.367                    21945567.777
 124917495.529 6  97338481.16544  23771042.266                    23771050.828
 11  8 11  0 36 30.0000000  0  9G17G10G04G27G05G09G02G12G30
 119570692.893 7  93172046.380 6  22753536.320                    22753544.480
 110422861.936 8  86043943.32146  21012767.844                    21012775.621
 110773237.081 8  86316947.91046  21079426.969                    21079435.035
 123086105.866 6  95911298.02544  23422507.813                    23422518.512
 119829013.986 7  93373272.798 7  22802678.398                    22802687.676
 121419897.250 7  94613028.83844  23105457.750                    23105467.133
 108520898.887 8  84561879.05146  20650834.703                    20650840.066
 115249789.954 8  89805142.874 7  21931321.414                    21931328.684
 124815818.478 6  97259252.37344  23751693.078                    23751702.629
 11  8 11  0 37  0.0000000  0  9G17G10G04G27G05G09G02G12G30
 119618499.091 7  93209297.928 7  22762633.586                    22762642.063
 110394771.659 8  86022054.81346  21007422.297                    21007430.461
 110841746.447 8  86370331.80046  21092463.984                    21092471.773
 123144976.656 6  95957171.26044  23433710.813                    23433721.418
 119728305.978 7  93294799.132 7  22783514.258                    22783523.000
 121489961.227 7  94667624.09144  23118790.922                    23118799.938
 108506796.500 8  84550890.18446  20648151.430                    20648156.656
 115175296.329 8  89747095.912 7  21917145.219                    21917152.516
 124714358.865 6  97180193.01844  23732386.617                    23732395.355
 11  8 11  0 37 30.0000000  0  9G17G10G04G27G05G09G02G12G30
 119666438.962 7  93246653.648 7  22771757.070                    22771765.051
 110367273.210 8  86000627.47646  21002189.219                    21002197.113
 110910491.236 8  86423899.14146  21105545.648                    21105553.668
 123204026.287 6  96003183.86644  23444947.523                    23444958.293
 119627773.232 7  93216462.040 7  22764383.672                    22764392.629
 121560326.615 7  94722454.21344  23132181.016                    23132190.609
 108493028.650 8  84540161.99946  20645531.375                    20645536.555
 115101137.012 8  89689309.461 7  21903033.375                    21903040.945
 124613118.780 6  97101304.71844  23713121.344                    23713129.402
 11  8 11  0 38  0.0000000  0  9G17G10G04G27G05G09G02G12G30
 119714512.908 7  93284113.835 7  22780904.273                    22780912.883
 110340368.322 8  85979662.65446  20997069.414                    20997077.410
 110979469.305 8  86477648.25846  21118671.742                    21118679.809
 123263252.355 7  96049333.97344  23456218.641                    23456228.641
 119527419.099 7  93138264.121 7  22745287.281                    22745295.266
 121630990.380 7  94777516.85044  23145627.547                    23145637.055
 108479594.804 8  84529694.06946  20642974.867                    20642980.324
 115027314.767 8  89631785.663 7  21888985.367                    21888992.691
 124512101.075 6  97022589.67543  23693897.336                    23693906.684
 11  8 11  0 38 30.0000000  0  9G17G10G04G27G05G09G02G12G30
 119762722.117 7  93321679.428 7  22790078.320                    22790086.551
 110314059.047 8  85959161.94446  20992063.008                    20992070.746
 111048678.348 8  86531577.35846  21131842.016                    21131849.902
 123322652.377 7  96095619.60844  23467521.391                    23467532.523
 119427246.652 7  93060207.762 7  22726224.602                    22726233.375
 121701949.206 7  94832809.37044  23159130.820                    23159140.719
 108466494.126 8  84519485.75446  20640482.031                    20640487.191
 114953832.090 8  89574526.465 7  21875002.180                    21875009.926
 124411308.873 6  96944050.37243  23674717.242                    23674726.148
 11  8 11  0 39  0.0000000  0  9G17G10G04G27G05G09G02G12G30
 119811067.036 7  93359350.767 7  22799278.094                    22799286.383
 110288346.750 8  85939126.41046  20987170.469                    20987178.039
 111118116.607 8  86585685.07046  21145055.484                    21145063.660
 123382223.683 7  96142038.71644  23478857.875                    23478868.355
 119327258.801 7  92982295.265 7  22707197.484                    22707206.246
 121773199.839 7  94888329.25844  23172689.461                    23172699.102
 108453726.160 8  84509536.71146  20638052.414                    20638057.730
 114880691.811 8  89517534.059 7  21861084.148                    21861091.402
 124310745.158 6  96865689.05143  23655580.328                    23655589.688
 11  8 11  0 39 30.0000000  0  9G17G10G04G27G05G09G02G12G30
 119859548.067 7  93397128.152 7  22808504.195                    22808511.969
 110263232.567 8  85919556.95146  20982391.297                    20982398.930
 111187781.157 8  86639969.11146  21158312.008                    21158320.668
 123441963.118 7  96188588.84044  23490226.305                    23490235.922
 119227458.402 7  92904528.808 7  22688205.813                    22688214.734
 121844738.827 7  94944073.84844  23186302.867                    23186312.262
 108441289.636 8  84499845.92446  20635685.672                    20635691.035
 114807896.318 7  89460810.329 7  21847231.430                    21847239.188
 124210412.555 6  96787507.85243  23636488.289                    23636497.102
 11  8 11  0 40  0.0000000  0  9G17G10G04G27G05G09G02G12G30
 119908165.757 7  93435012.062 7  22817755.820                    22817763.555
 110238717.805 8  85900454.55946  20977725.836                    20977733.477
 111257670.148 8  86694428.03646  21171611.656                    21171620.145
 123501868.153 7  96235268.00544  23501625.250                    23501636.117
 119127848.490 7  92826910.797 7  22669250.547                    22669259.363
 121916562.595 7  95000040.36844  23199970.750                    23199979.707
 108429183.738 8  84490412.76746  20633381.852                    20633387.117
 114735448.283 8  89404357.328 7  21833445.453                    21833452.699
 124110313.812 6  96709508.84443  23617440.219                    23617448.719
 11  8 11  0 40 30.0000000  0  9G17G10G04G27G05G09G02G12G30
 119956921.045 7  93473003.170 7  22827033.172                    22827041.461
 110214804.311 8  85881820.70346  20973175.477                    20973183.133
 111327781.627 8  86749060.34246  21184953.680                    21184961.539
 123561936.457 7  96282074.37844  23513055.688                    23513066.938
 119028432.530 7  92749443.899 7  22650332.258                    22650341.086
 121988668.305 7  95056226.59644  23213692.078                    23213700.609
 108417408.459 8  84481237.22746  20631141.211                    20631146.473
 114663350.536 8  89348177.280 7  21819725.586                    21819733.152
 124010452.278 6  96631694.68743  23598436.938                    23598445.367
 11  8 11  0 41  0.0000000  0  9G17G10G04G27G05G09G02G12G30
 120005814.144 7  93511101.674 7  22836337.477                    22836345.695
 110191492.632 8  85863655.77446  20968739.313                    20968747.199
 111398112.458 8  86803863.55846  21198337.258                    21198344.785
 123622164.604 6  96329005.27543  23524517.406                    23524527.875
 118929212.690 7  92672129.845 7  22631451.484                    22631460.270
 122061051.795 7  95112629.24644  23227466.797                    23227475.355
 108405961.690 8  84472317.66246  20628963.328                    20628968.273
 114591604.813 8  89292271.535 7  21806072.523                    21806080.098
 123910829.950 7  96554066.92743  23579479.539                    23579488.125
 11  8 11  0 41 30.0000000  0  9G17G10G04G27G05G09G02G12G30
 120054845.574 7  93549307.943 7  22845668.172                    22845676.078
 110168784.583 8  85845961.20946  20964418.070                    20964425.469
 111468661.047 8  86858836.47846  21211761.891                    21211769.766
 123682549.913 6  96376058.70243  23536008.133                    23536018.488
 118830192.390 7  92594971.242 7  22612608.117                    22612617.395
 122133710.124 7  95169246.06544  23241291.805                    23241301.617
 108394842.837 8  84463653.63146  20626847.180                    20626852.125
 114520214.016 8  89236642.363 7  21792487.617                    21792495.445
 123811450.075 7  96476628.08644  23560568.445                    23560576.859
 11  8 11  0 42  0.0000000  0  9G17G10G04G27G05G09G02G12G30
 120104015.945 7  93587622.464 7  22855024.867                    22855033.109
 110146681.381 8  85828737.94646  20960212.094                    20960219.680
 111539424.644 8  86913976.91746  21225227.938                    21225235.844
 123743089.792 7  96423232.55644  23547528.828                    23547538.863
 118731374.850 7  92517970.663 7  22593803.820                    22593812.914
 122206640.042 7  95226074.51244  23255170.656                    23255180.203
 108384051.161 8  84455244.53646  20624793.438                    20624799.180
 114449180.651 8  89181291.716 7  21778970.273                    21778977.734
 123712315.508 7  96399380.39143  23541703.219                    23541711.547
 11  8 11  0 42 30.0000000  0  9G17G10G04G27G05G09G02G12G30
 120153326.223 7  93626046.012 7  22864408.664                    22864416.715
 110125184.844 8  85811987.40846  20956121.758                    20956129.039
 111610401.838 8  86969283.80246  21238734.625                    21238742.379
 123803781.990 7  96470525.10343  23559078.008                    23559088.402
 118632762.802 7  92441130.186 7  22575038.055                    22575047.223
 122279838.142 7  95283111.88344  23269099.664                    23269109.773
 108373586.270 8  84447090.08846  20622802.164                    20622807.188
 114378507.843 8  89126221.994 7  21765521.555                    21765528.957
 123613429.357 7  96322326.28844  23522886.109                    23522894.770
 11  8 11  0 43  0.0000000  0 10G17G10G04G27G05G09G02G12G30G25
 120202776.595 7  93664578.727 7  22873818.273                    22873826.277
 110104295.587 8  85795710.07546  20952146.367                    20952153.719
 111681589.670 8  87024754.81946  21252281.453                    21252289.055
 123864623.152 7  96517933.68744  23570656.500                    23570666.219
 118534358.980 7  92364451.978 7  22556312.930                    22556321.777
 122353300.591 7  95340355.26344  23283079.352                    23283089.477
 108363446.408 8  84439188.89546  20620872.555                    20620878.031
 114308197.530 8  89071434.751 7  21752141.852                    21752149.125
 123514793.971 6  96245467.54743  23504116.148                    23504124.758
 129557171.99816 100953695.67516  24653920.523                    24653931.559
 11  8 11  0 43 30.0000000  0 10G17G10G04G27G05G09G02G12G30G25
 120252367.267 7  93703220.764 7  22883255.289                    22883263.172
 110084014.336 8  85779906.51446  20948286.969                    20948294.438
 111752985.607 8  87080388.00246  21265867.695                    21265874.953
 123925609.915 7  96565455.79144  23582261.297                    23582271.863
 118436166.080 7  92287938.132 7  22537627.758                    22537636.387
 122427023.660 7  95397801.74744  23297108.586                    23297118.844
 108353630.528 8  84431540.15546  20619004.953                    20619010.012
 114238251.515 8  89016931.365 7  21738832.195                    21738838.977
 123416411.616 6  96168806.01944  23485395.398                    23485403.297
 129453890.643 7 100873216.718 6  24634265.898                    24634277.512
 11  8 11  0 44  0.0000000  0 10G17G10G04G27G05G09G02G12G30G25
 120302099.091 7  93741972.792 7  22892718.578                    22892727.316
 110064342.589 8  85764577.89446  20944543.445                    20944551.395
 111824587.619 8  87136181.76346  21279492.648                    21279500.773
 123986740.076 7  96613089.60644  23593894.211                    23593904.742
 118338187.322 7  92211591.123 7  22518982.594                    22518991.262
 122501004.387 7  95455448.99644  23311186.656                    23311196.406
 108344138.042 8  84424143.41246  20617198.258                    20617203.602
 114168672.813 8  88962714.217 7  21725591.438                    21725598.941
 123318285.739 6  96092344.35444  23466722.266                    23466730.652
 129350715.469 7 100792820.521 6  24614632.688                    24614644.234
 11  8 11  0 44 30.0000000  0 10G17G10G04G27G05G09G02G12G30G25
 120351973.095 7  93780835.610 6  22902209.453                    22902217.625
 110045281.938 8  85749725.44446  20940916.227                    20940923.891
 111896394.261 8  87192134.96145  21293156.813                    21293165.199
 124048011.413 7  96660833.37944  23605553.445                    23605564.527
 118240426.088 7  92135413.646 7  22500378.719                    22500387.820
 122575239.693 7  95513294.62144  23325313.188                    23325322.656
 108334968.500 8  84416998.31746  20615453.344                    20615458.762
 114099464.329 8  88908785.552 7  21712421.734                    21712428.785
 123220419.432 6  96016084.94744  23448098.430                    23448107.105
 129247649.323 7 100712509.244 6  24595019.859                    24595031.152
 11  8 11  0 45  0.0000000  0 10G17G10G04G27G05G09G02G12G30G25
 120401989.687 7  93819809.568 6  22911726.977                    22911735.961
 110026833.512 8  85735350.05746  20937405.859                    20937413.383
 111968402.793 8  87248245.48846  21306860.008                    21306867.582
 124109420.764 6  96708684.69743  23617239.109                    23617249.988
 118142885.098 7  92059407.769 7  22481817.625                    22481826.215
 122649725.918 7  95571335.79444  23339487.734                    23339497.035
 108326120.401 8  84410103.70346  20613770.063                    20613774.926
 114030628.288 8  88855147.082 7  21699322.547                    21699329.652
 123122815.447 6  95940029.95044  23429525.406                    23429534.137
 129144694.462 7 100632284.698 6  24575428.148                    24575439.836
 11  8 11  0 45 30.0000000  0 10G17G10G04G27G05G09G02G12G30G25
 120452149.453 7  93858895.055 6  22921272.195                    22921280.594
 110008998.229 8  85721452.44046  20934011.820                    20934019.496
 112040611.268 8  87304511.80246  21320600.648                    21320608.301
 124170965.456 7  96756641.49344  23628950.680                    23628961.742
 118045567.692 7  91983576.112 7  22463298.742                    22463307.285
 122724459.783 7  95629569.88844  23353708.727                    23353718.023
 108317593.085 8  84403459.04546  20612147.133                    20612152.051
 113962167.532 8  88801801.050 7  21686294.656                    21686301.816
 123025476.538 6  95864181.52643  23411001.617                    23411011.203
 129041853.470 6 100552148.898 6  24555858.008                    24555869.379
 11  8 11  0 46  0.0000000  0 10G17G10G04G27G05G09G02G12G30G25
 120502453.116 7  93898092.672 6  22930844.570                    22930853.488
 109991777.358 8  85708033.58446  20930734.664                    20930742.648
 112113017.485 8  87360932.20845  21334379.227                    21334387.320
 124232642.884 7  96804701.70044  23640688.297                    23640698.387
 117948477.044 7  91907921.132 7  22444822.797                    22444831.820
 122799437.933 7  95687994.36944  23367976.789                    23367986.840
 108309385.918 8  84397063.85246  20610585.234                    20610590.441
 113894084.838 8  88748749.606 7  21673339.313                    21673345.949
 122928405.898 6  95788542.10144  23392530.094                    23392538.742
 128939129.048 6 100472103.955 5  24536310.023                    24536321.250
 11  8 11  0 46 30.0000000  0 10G17G10G04G27G05G09G02G12G30G25
 120552901.177 7  93937402.800 6  22940444.977                    22940453.109
 109975171.925 8  85695094.29546  20927575.109                    20927582.434
 112185619.408 8  87417505.10346  21348194.859                    21348203.172
 124294450.277 7  96852863.21644  23652449.711                    23652460.152
 117851615.980 7  91832445.060 7  22426391.359                    22426399.699
 122874656.850 7  95746606.43544  23382290.125                    23382300.336
 108301497.830 8  84390917.29946  20609084.141                    20609089.234
 113826382.116 8  88695994.254 7  21660455.406                    21660463.070
 122831606.127 6  95713113.78544  23374108.953                    23374118.594
 128836523.529 6 100392151.677 5  24516784.805                    24516796.453
 11  8 11  0 47  0.0000000  0 10G17G10G04G27G05G09G02G12G30G25
 120603494.333 7  93976825.997 7  22950072.750                    22950080.957
 109959183.131 8  85682635.50746  20924532.430                    20924539.848
 112258414.682 8  87474228.66646  21362047.500                    21362055.289
 124356384.963 7  96901123.93443  23664236.094                    23664246.191
 117754987.094 7  91757149.908 7  22408002.891                    22408011.590
 122950113.180 7  95805403.50544  23396649.938                    23396659.301
 108293927.493 8  84385018.34746  20607643.438                    20607648.879
 113759062.168 8  88643537.169 7  21647645.219                    21647652.027
 122735080.242 6  95637898.87444  23355741.211                    23355750.016
 128734039.426 6 100312293.990 5  24497282.492                    24497294.195
 11  8 11  0 47 30.0000000  0 10G17G10G04G27G05G09G02G12G30G25
 120654232.956 7  94016362.541 6  22959727.836                    22959735.918
 109943811.678 8  85670657.76046  20921607.086                    20921614.445
 112331401.118 8  87531101.18246  21375936.406                    21375944.199
 124418443.955 6  96949481.47744  23676045.344                    23676055.703
 117658593.412 7  91682038.022 7  22389659.648                    22389667.914
 123025803.484 7  95864382.88444  23411053.281                    23411063.246
 108286673.946 8  84379366.24246  20606262.953                    20606268.090
 113692127.329 8  88591380.160 7  21634907.766                    21634914.883
 122638830.769 6  95562899.33844  23337425.742                    23337434.188
 128631679.038 6 100232532.754 6  24477803.688                    24477815.613
 11  8 11  0 48  0.0000000  0 10G17G10G04G27G05G09G02G12G30G25
 120705117.734 7  94056012.966 7  22969411.656                    22969419.480
 109929058.494 8  85659161.78346  20918799.633                    20918807.180
 112404576.691 8  87588121.08746  21389860.930                    21389868.973
 124480624.602 6  96997933.83643  23687877.500                    23687888.238
 117562437.973 7  91607111.780 7  22371361.734                    22371370.188
 123101724.320 7  95923541.90844  23425500.055                    23425510.512
 108279736.637 8  84373960.55146  20604942.922                    20604948.320
 113625580.257 8  88539525.321 7  21622244.258                    21622251.645
 122542860.939 7  95488117.67144  23319163.008                    23319171.664
 128529445.133 6 100152870.060 6  24458349.586                    24458361.160
 11  8 11  0 48 30.0000000  0 10G17G10G04G27G05G09G02G12G30G25
 120756148.624 7  94095777.254 7  22979122.406                    22979130.316
 109914923.983 8  85648147.89246  20916110.180                    20916117.645
 112477938.603 8  87645286.19845  21403821.563                    21403829.707
 124542923.603 6  97046478.38143  23699733.211                    23699743.391
 117466523.603 7  91532373.380 7  22353109.664                    22353118.383
 123177872.100 6  95982877.77344  23439990.391                    23440000.531
 108273113.659 8  84368799.79446  20603682.648                    20603687.727
 113559422.633 8  88487973.941 7  21609654.781                    21609662.086
 122447172.855 7  95413555.59944  23300954.219                    23300962.691
 128427339.593 6 100073307.381 6  24438919.461                    24438931.480
 11  8 11  0 49  0.0000000  0 10G17G10G04G27G05G09G02G12G30G25
 120807326.703 7  94135656.250 7  22988860.594                    22988869.188
 109901409.643 8  85637617.25746  20913538.125                    20913546.035
 112551485.415 8  87702595.37945  21417816.625                    21417824.957
 124605338.583 6  97095113.33843  23711609.531                    23711621.250
 117370853.639 7  91457825.417 7  22334904.383                    22334912.363
 123254243.664 7  96042387.98243  23454523.422                    23454533.469
 108266804.931 8  84363883.91846  20602481.992                    20602487.457
 113493657.459 8  88436728.359 7  21597140.227                    21597147.145
 122351769.927 7  95339215.69344  23282799.758                    23282807.934
 128325365.469 6  99993847.142 7  24419514.789                    24419526.984
 11  8 11  0 49 30.0000000  0 10G17G10G04G27G05G09G02G12G30G25
 120858652.492 7  94175650.335 7  22998627.773                    22998636.207
 109888515.967 8  85627570.25346  20911084.461                    20911092.273
 112625214.401 8  87760046.51445  21431846.844                    21431855.309
 124667866.610 6  97143836.35243  23723508.242                    23723519.738
 117275430.454 7  91383469.765 7  22316745.750                    22316754.250
 123330835.307 7  96102069.73743  23469098.211                    23469108.051
 108260808.837 8  84359211.64646  20601341.539                    20601346.660
 113428286.959 8  88385790.329 7  21584700.852                    21584707.898
 122256654.691 7  95265099.95444  23264699.922                    23264708.129
 128223524.904 7  99914490.973 6  24400134.906                    24400146.406
 11  8 11  0 50  0.0000000  0 10G17G10G04G27G05G09G02G12G30G25
 120910126.597 7  94215759.976 6  23008423.094                    23008431.000
 109876244.246 8  85618007.89146  20908749.352                    20908757.043
 112699124.081 8  87817638.44545  21445911.367                    21445919.629
 124730505.214 6  97192645.48343  23735428.414                    23735440.043
 117180257.574 7  91309309.134 7  22298634.789                    22298643.438
 123407643.909 7  96161920.52944  23483714.938                    23483724.520
 108255124.889 8  84354782.60046  20600259.617                    20600265.016
 113363313.920 8  88335161.990 7  21572336.977                    21572343.988
 122161830.362 7  95191210.90044  23246655.602                    23246663.848
 128121820.824 7  99835241.123 7  24380780.906                    24380792.711
 11  8 11  0 50 30.0000000  0 10G17G10G04G27G05G09G02G12G30G25
 120961749.726 7  94255985.745 7  23018246.773                    23018254.836
 109864595.445 8  85608930.91446  20906532.531                    20906540.285
 112773212.015 8  87875369.27146  21460010.266                    21460017.992
 124793251.693 6  97241538.73043  23747368.367                    23747380.066
 117085337.620 7  91235345.606 7  22280572.328                    22280580.559
 123484665.904 7  96221937.63244  23498372.102                    23498381.734
 108249752.157 8  84350596.07446  20599237.375                    20599242.961
 113298740.583 8  88284845.128 7  21560048.766                    21560055.734
 122067299.633 6  95117550.63743  23228666.570                    23228675.031
 128020255.720 7  99756099.546 6  24361454.117                    24361465.789
 11  8 11  0 51  0.0000000  0 10G17G10G04G27G05G09G02G12G30G25
 121013522.340 7  94296327.993 6  23028098.656                    23028106.914
 109853569.791 8  85600339.50046  20904434.922                    20904442.172
 112847476.068 8  87933237.34245  21474142.313                    21474150.008
 124856103.079 6  97290513.70443  23759329.375                    23759340.289
 116990673.511 7  91161581.435 7  22262557.945                    22262566.875
 123561897.707 7  96282118.20644  23513068.211                    23513078.195
 108244689.387 8  84346651.06846  20598273.727                    20598279.270
 113234569.451 8  88234841.662 7  21547837.313                    21547844.273
 121973065.417 7  95044121.42244  23210734.406                    23210742.578
 127918832.028 7  99677068.156 6  24342153.852                    24342164.871
 11  8 11  0 51 30.0000000  0 10G17G10G04G27G05G09G02G12G30G25
 121065444.786 7  94336787.000 7  23037978.820                    23037987.340
 109843168.536 8  85592234.63946  20902455.227                    20902463.258
 112921914.088 8  87991240.98045  21488307.109                    21488315.219
 124919056.750 6  97339568.40243  23771309.648                    23771320.359
 116896268.553 8  91088019.192 7  22244593.625                    22244602.172
 123639336.229 6  96342459.83744  23527804.867                    23527815.262
 108239935.515 8  84342946.74346  20597369.422                    20597374.371
 113170803.168 8  88185153.667 7  21535702.938                    21535710.184
 121879130.542 6  94970925.46744  23192859.414                    23192867.621
 127817552.389 7  99598148.970 6  24322880.789                    24322892.547
 11  8 11  0 52  0.0000000  0 10G17G10G04G27G05G09G02G12G30G25
 121117517.603 7  94377363.191 7  23047888.289                    23047896.441
 109833392.033 8  85584616.59146  20900594.875                    20900602.313
 112996523.953 8  88049378.51245  21502505.297                    21502512.906
 124982109.652 7  97388700.44743  23783308.016                    23783318.184
 116802125.448 7  91014661.000 7  22226678.555                    22226687.215
 123716977.838 6  96402959.70344  23542578.539                    23542589.465
 108235489.474 8  84339482.31346  20596522.742                    20596528.230
 113107443.661 8  88135782.642 7  21523646.055                    21523653.688
 121785497.644 7  94897964.80744  23175040.961                    23175049.961
 127716419.106 7  99519343.829 6  24303636.406                    24303647.473
 11  8 11  0 52 30.0000000  0 10G17G10G04G27G05G09G02G12G30G25
 121169741.492 7  94418057.081 6  23057826.086                    23057834.070
 109824240.876 8  85577485.82946  20898853.508                    20898861.352
 113071303.598 8  88107648.33345  21516735.273                    21516743.391
 125045259.028 7  97437907.67843  23795325.211                    23795335.445
 116708247.156 7  90941509.141 7  22208814.516                    22208822.633
 123794819.065 6  96463615.14344  23557391.867                    23557402.375
 108231350.157 8  84336256.87746  20595735.531                    20595740.813
 113044493.477 8  88086730.557 7  21511667.125                    21511674.324
 121692169.667 7  94825241.73144  23157281.945                    23157290.508
 127615434.772 7  99440654.721 6  24284418.922                    24284430.859
 11  8 11  0 53  0.0000000  0 10G17G10G04G27G05G09G02G12G30G25
 121222117.076 7  94458869.197 6  23067793.188                    23067801.152
 109815716.093 8  85570843.15046  20897231.289                    20897239.055
 113146251.109 8  88166048.96545  21530997.234                    21531005.152
 125108502.574 7  97487188.29743  23807359.125                    23807371.023
 116614636.537 7  90868565.869 7  22191000.555                    22191009.336
 123872856.715 7  96524423.60244  23572241.938                    23572252.227
 108227516.965 8  84333269.99046  20595006.086                    20595011.504
 112981955.443 7  88037999.624 7  21499766.242                    21499773.371
 121599149.679 6  94752758.67044  23139580.555                    23139589.590
 127514602.284 6  99362083.969 6  24265231.344                    24265241.945
 11  8 11  0 53 30.0000000  0 10G17G10G04G27G05G09G02G12G30G25
 121274644.875 7  94499799.919 6  23077788.992                    23077797.090
 109807818.172 8  85564688.93746  20895728.609                    20895736.125
 113221364.244 8  88224578.66945  21545290.633                    21545298.828
 125171837.208 6  97536539.84443  23819412.078                    23819422.699
 116521296.697 7  90795833.600 7  22173238.602                    22173247.211
 123951087.129 7  96585382.28844  23587128.953                    23587139.238
 108223988.448 8  84330520.50646  20594334.445                    20594339.813
 112919831.482 8  87989591.362 7  21487944.930                    21487951.816
 121506440.239 7  94680517.59644  23121938.281                    23121947.145
 127413923.975 6  99283633.345 6  24246073.281                    24246084.063
 11  8 11  0 54  0.0000000  0 10G17G10G04G27G05G09G02G12G30G25
 121327325.223 7  94540849.488 6  23087813.656                    23087821.715
 109800547.643 8  85559023.60046  20894344.969                    20894352.391
 113296640.923 8  88283235.79545  21559615.352                    21559623.832
 125235260.123 6  97585960.13143  23831481.195                    23831492.242
 116428230.275 7  90723314.368 7  22155528.594                    22155536.730
 124029507.056 7  96646488.65544  23602052.320                    23602062.648
 108220763.506 8  84328007.58446  20593720.695                    20593725.945
 112858123.785 8  87941507.458 7  21476202.016                    21476209.051
 121414044.280 7  94608520.77744  23104355.773                    23104365.336
 127313402.297 6  99205304.806 6  24226943.594                    24226955.648
 11  8 11  0 54 30.0000000  0 10G17G10G04G27G05G09G02G12G30G25
 121380158.913 7  94582018.576 6  23097867.781                    23097875.910
 109793904.871 8  85553847.41546  20893081.070                    20893088.777
 113372079.033 8  88342018.71945  21573970.664                    21573979.332
 125298768.625 6  97635447.16843  23843566.648                    23843578.137
 116335440.402 7  90651010.627 7  22137871.336                    22137879.344
 124108112.928 7  96707739.91544  23617010.891                    23617020.215
 108217841.372 8  84325730.59946  20593164.570                    20593169.984
 112796834.947 7  87893749.941 7  21464539.188                    21464546.328
 121321964.546 7  94536770.36344  23086833.766                    23086842.980
 127213039.952 6  99127100.403 6  24207846.180                    24207857.109
 11  8 11  0 55  0.0000000  0 10G17G10G04G27G05G09G02G12G30G25
 121433146.144 7  94623307.281 6  23107950.547                    23107959.180
 109787890.535 8  85549160.93146  20891936.383                    20891944.254
 113447676.325 8  88400925.67045  21588356.547                    21588364.547
 125362359.846 6  97684998.63343  23855667.648                    23855678.836
 116242929.865 7  90578924.561 7  22120266.922                    22120275.359
 124186901.575 7  96769133.59844  23632004.039                    23632013.438
 108215220.683 8  84323688.50446  20592665.930                    20592671.125
 112735967.328 8  87846320.649 7  21452956.227                    21452963.645
 121230203.903 7  94465268.58444  23069372.602                    23069380.980
 127112839.491 6  99049022.128 6  24188778.070                    24188789.523
 11  8 11  0 55 30.0000000  0 10G17G10G04G27G05G09G02G12G30G25
 121486287.587 7  94664716.140 6  23118063.141                    23118071.891
 109782505.132 8  85544964.51546  20890911.453                    20890919.484
 113523430.973 8  88459955.25045  21602772.000                    21602780.324
 125426030.905 6  97734612.29243  23867784.047                    23867794.961
 116150701.588 7  90507058.417 7  22102716.836                    22102725.250
 124265869.341 7  96830666.86544  23647029.750                    23647040.953
 108212900.467 8  84321880.55146  20592224.352                    20592229.641
 112675523.232 8  87799221.373 7  21441454.461                    21441461.125
 121138765.104 6  94394017.58944  23051972.070                    23051980.547
 127012803.438 7  98971071.979 6  24169741.891                    24169752.805
 11  8 11  0 56  0.0000000  0 10G17G10G04G27G05G09G02G12G30G25
 121539583.999 7  94706245.772 7  23128205.398                    23128213.559
 109777749.020 8  85541258.46246  20890006.453                    20890014.105
 113599340.967 8  88519105.86645  21617217.414                    21617225.676
 125489779.201 6  97784286.16043  23879914.938                    23879925.699
 116058758.506 7  90435414.519 7  22085220.156                    22085228.273
 124345012.601 6  96892336.84544  23662091.031                    23662102.070
 108210879.712 8  84320305.94446  20591839.875                    20591845.043
 112615504.942 7  87752453.879 7  21430033.234                    21430040.422
 121047651.081 7  94323019.68344  23034634.078                    23034642.703
 126912934.490 7  98893252.092 6  24150737.563                    24150748.508
 11  8 11  0 56 30.0000000  0 10G17G10G04G27G05G09G02G12G30G25
 121593035.932 7  94747896.580 6  23138376.750                    23138385.750
 109773623.148 8  85538043.50146  20889221.094                    20889228.758
 113675404.256 8  88578375.92545  21631691.766                    21631699.574
 125553602.322 6  97834018.31143  23892060.453                    23892071.152
 115967103.765 7  90363995.299 7  22067778.609                    22067787.500
 124424328.165 7  96954141.07444  23677184.516                    23677194.941
 108209157.661 8  84318964.09646  20591512.188                    20591517.340
 112555915.080 7  87706020.236 7  21418693.680                    21418700.555
 120956864.848 7  94252277.19244  23017357.633                    23017365.980
 126813235.421 7  98815564.520 6  24131765.758                    24131776.465
 11  8 11  0 57  0.0000000  0 10G17G10G04G27G05G09G02G12G30G25
 121646643.648 7  94789668.783 6  23148577.813                    23148586.637
 109770127.626 8  85535319.72946  20888555.820                    20888563.688
 113751618.698 8  88637763.77145  21646194.961                    21646203.129
 125617497.148 6  97883806.36743  23904218.984                    23904230.199
 115875739.951 7  90292802.756 7  22050393.031                    22050400.738
 124503812.780 6  97016077.02144  23692308.883                    23692319.871
 108207732.688 8  84317853.74546  20591241.180                    20591246.816
 112496756.005 8  87659922.258 7  21407435.836                    21407443.133
 120866408.996 7  94181792.12044  23000144.438                    23000152.957
 126713708.529 7  98738011.144 6  24112825.984                    24112836.887
 11  8 11  0 57 30.0000000  0 10G17G10G04G27G05G09G02G12G30G25
 121700407.699 7  94831562.822 6  23158809.359                    23158817.359
 109767263.274 8  85533087.78446  20888011.063                    20888018.398
 113827982.579 8  88697268.07645  21660726.547                    21660734.504
 125681461.031 6  97933648.19243  23916390.164                    23916402.105
 115784670.127 7  90221839.308 7  22033062.906                    22033071.418
 124583463.108 6  97078142.11044  23707467.258                    23707477.313
 108206603.982 8  84316974.23646  20591026.258                    20591031.555
 112438029.592 7  87614161.422 7  21396260.672                    21396268.098
 120776286.498 6  94111566.83144  22982994.594                    22983003.172
 126614356.604 7  98660594.109 6  24093920.391                    24093930.820
 11  8 11  0 58  0.0000000  0 10G17G10G04G27G05G09G02G12G30G25
 121754328.801 7  94873579.246 7  23169069.563                    23169078.422
 109765030.015 7  85531347.59646  20887586.016                    20887593.832
 113904493.472 8  88756886.93945  21675286.188                    21675294.316
 125745490.958 6  97983541.46343  23928575.813                    23928587.063
 115693897.147 7  90151107.151 7  22015789.219                    22015797.703
 124663275.434 7  97140333.46244  23722654.633                    23722665.313
 108205770.474 8  84316324.74546  20590867.852                    20590872.781
 112379738.153 7  87568739.528 7  21385168.297                    21385175.371
 120686500.000 6  94041603.36144  22965908.133                    22965917.047
 126515182.043 7  98583315.282 6  24075047.656                    24075058.582
 11  8 11  0 58 30.0000000  0 10G17G10G04G27G05G09G02G12G30G25
 121808407.422 7  94915718.398 6  23179360.828                    23179369.137
 109763428.529 8  85530099.70046  20887280.961                    20887289.047
 113981149.702 8  88816619.03545  21689873.188                    21689881.773
 125809584.255 6  98033484.14143  23940772.047                    23940783.836
 115603424.143 7  90080608.767 7  21998572.750                    21998581.199
 124743246.514 7  97202648.51744  23737872.531                    23737883.449
 108205231.145 8  84315904.48846  20590765.070                    20590770.164
 112321884.561 7  87523658.806 7  21374159.289                    21374166.336
 120597052.460 6  93971904.00844  22948887.258                    22948896.125
 126416187.725 7  98506176.909 6  24056209.695                    24056220.457
 11  8 11  0 59  0.0000000  0 10G17G10G04G27G05G09G02G12G30G25
 121862644.060 7  94957980.695 6  23189681.602                    23189690.078
 109762458.530 8  85529343.86346  20887096.648                    20887104.313
 114057948.845 8  88876462.49945  21704487.742                    21704495.906
 125873738.110 6  98083473.99644  23952981.023                    23952992.242
 115513253.585 7  90010346.042 7  21981414.195                    21981422.461
 124823372.886 7  97265084.51744  23753120.148                    23753131.137
 108204984.719 8  84315712.47346  20590718.555                    20590723.586
 112264470.369 7  87478920.484 7  21363233.414                    21363240.453
 120507946.501 6  93902470.83244  22931930.969                    22931939.477
 126317375.936 7  98429180.768 6  24037406.438                    24037417.480
 11  8 11  0 59 30.0000000  0 10G17G10G04G27G05G09G02G12G30G25
 121917039.209 7  95000366.504 6  23200032.859                    23200040.918
 109762120.840 8  85529080.74246  20887032.422                    20887039.805
 114134889.351 8  88936416.10545  21719128.992                    21719136.961
 125937950.073 6  98133509.13344  23965200.664                    23965211.871
 115423388.462 7  89940321.328 7  21964312.945                    21964321.156
 124903651.000 7  97327638.83143  23768397.469                    23768406.848
 108205030.139 8  84315747.87246  20590726.750                    20590731.953
 112207498.285 8  87434526.655 7  21352392.250                    21352399.004
 120419185.193 7  93833306.19444  22915040.656                    22915049.090
 126218749.589 7  98352329.151 6  24018638.211                    24018649.211
 11  8 11  1  0  0.0000000  0 10G17G10G04G27G05G09G02G12G30G25
 121971593.532 7  95042876.337 6  23210414.039                    23210422.484
 109762415.337 8  85529310.24646  20887088.672                    20887096.531
 114211969.315 8  88996478.38945  21733797.195                    21733805.367
 126002217.355 6  98183587.38344  23977430.094                    23977441.430
 115333831.713 7  89870536.898 7  21947270.617                    21947279.098
 124984077.658 6  97390308.90244  23783701.172                    23783711.363
 108205366.653 8  84316010.09746  20590790.844                    20590795.676
 112150970.553 8  87390479.069 7  21341635.219                    21341642.609
 120330771.315 6  93764412.31444  22898215.781                    22898224.586
 126120311.270 6  98275624.057 6  23999905.773                    23999916.656
 11  8 11  1  0 30.0000000  0 10G17G10G04G27G05G09G02G12G30G25
 122026307.267 7  95085510.372 6  23220825.586                    23220834.223
 109763342.665 8  85530032.85146  20887264.984                    20887272.648
 114289186.708 8  89056647.75645  21748491.070                    21748499.078
 126066537.450 6  98233706.79044  23989669.852                    23989681.652
 115244586.440 7  89800995.180 7  21930288.070                    21930296.016
 125064649.883 6  97453092.32643  23799034.000                    23799044.324
 108205993.069 8  84316498.22346  20590910.117                    20590915.668
 112094889.573 7  87346779.611 7  21330963.547                    21330970.191
 120242707.741 7  93695791.37944  22881457.789                    22881466.262
 126022063.824 7  98199067.691 6  23981210.375                    23981220.773
 11  8 11  1  1  0.0000000  0 10G17G10G04G27G05G09G02G12G30G25
 122081180.823 7  95128268.955 6  23231268.227                    23231276.035
 109764902.725 7  85531248.49146  20887561.805                    20887569.168
 114366539.404 8  89116922.54945  21763210.609                    21763218.961
 126130907.352 6  98283864.97143  24001918.867                    24001930.527
 115155655.442 7  89731698.358 7  21913364.992                    21913373.258
 125145363.789 7  97515986.17644  23814393.594                    23814403.480
 108206907.977 8  84317211.14146  20591084.375                    20591089.348
 112039257.246 8  87303429.744 7  21320376.742                    21320383.832
 120154997.124 7  93627445.46744  22864767.242                    22864775.957
 125924009.540 7  98122661.849 6  23962550.391                    23962561.941
 11  8 11  1  1 30.0000000  0 10G17G10G04G27G05G09G02G12G30G25
 122136215.121 7  95171152.801 6  23241741.391                    23241748.996
 109767095.715 8  85532957.32846  20887979.406                    20887986.602
 114444025.331 8  89177301.17045  21777955.734                    21777963.746
 126195324.454 6  98334059.98743  24014176.258                    24014188.672
 115067041.277 7  89662648.412 7  21896502.539                    21896510.520
 125226216.261 6  97578987.99844  23829779.117                    23829789.703
 108208110.622 8  84318148.26746  20591313.117                    20591318.215
 111984075.896 8  87260431.304 7  21309876.164                    21309883.359
 120067642.374 7  93559376.85244  22848144.133                    22848152.566
 125826151.211 7  98046408.694 6  23943928.641                    23943940.133
 11  8 11  1  2  0.0000000  0 10G17G10G04G27G05G09G02G12G30G25
 122191410.385 7  95214162.038 6  23252244.188                    23252252.027
 109769921.648 7  85535159.36446  20888516.953                    20888524.598
 114521642.760 8  89237782.26545  21792725.742                    21792733.977
 126259785.565 6  98384289.18143  24026444.297                    24026455.738
 114978746.666 7  89593847.462 7  21879700.477                    21879708.570
 125307203.521 7  97642094.84644  23845190.922                    23845201.121
 108209599.371 8  84319308.33046  20591596.156                    20591601.617
 111929347.752 7  87217786.021 7  21299461.656                    21299469.148
 119980646.048 7  93491587.52044  22831589.250                    22831597.887
 125728491.216 7  97970310.085 6  23925344.703                    23925355.738
 11  8 11  1  2 30.0000000  0 10G17G10G04G27G05G09G02G12G30G25
 122246767.180 7  95257297.176 6  23262777.406                    23262786.301
 109773380.760 8  85537854.78946  20889175.086                    20889182.574
 114599389.662 8  89298364.24245  21807520.500                    21807528.563
 126324288.175 6  98434550.82643  24038718.383                    24038729.949
 114890774.691 7  89525297.927 7  21862959.945                    21862968.320
 125388322.292 7  97705304.20444  23860627.109                    23860637.117
 108211373.365 8  84320690.67046  20591933.602                    20591939.180
 111875075.354 8  87175495.846 7  21289133.977                    21289141.035
 119894011.016 7  93424079.72044  22815103.227                    22815111.445
 125631032.403 7  97894368.206 6  23906798.813                    23906810.184
 11  8 11  1  3  0.0000000  0 10G17G10G04G27G05G09G02G12G30G25
 122302285.999 7  95300558.579 6  23273342.813                    23273351.137
 109777472.944 7  85541043.51646  20889953.539                    20889961.477
 114677264.079 7  89359045.57445  21822339.555                    21822347.523
 126388829.575 6  98484842.66343  24051000.477                    24051011.523
 114803128.132 7  89457001.955 7  21846281.469                    21846289.438
 125469569.132 7  97768613.29844  23876088.438                    23876098.629
 108213431.332 8  84322294.29046  20592325.781                    20592330.742
 111821260.230 8  87133562.000 7  21278893.297                    21278900.109
 119807740.064 7  93356855.64344  22798686.109                    22798694.609
 125533777.290 7  97818585.063 6  23888292.258                    23888302.590
 11  8 11  1  3 30.0000000  0 10G17G10G04G27G05G09G02G12G30G25
 122357967.115 7  95343946.417 6  23283939.234                    23283947.039
 109782198.198 8  85544725.54046  20890852.984                    20890860.547
 114755263.953 8  89419824.66945  21837182.430                    21837191.230
 126453407.009 6  98535162.59743  24063289.375                    24063300.762
 114715809.631 7  89388961.601 7  21829664.711                    21829673.199
 125550940.913 7  97832019.76744  23891572.859                    23891583.461
 108215772.275 8  84324118.40446  20592770.945                    20592776.133
 111767904.779 8  87091986.336 7  21268740.227                    21268747.426
 119721835.887 7  93289917.35444  22782339.633                    22782347.246
 125436728.524 7  97742962.688 6  23869824.031                    23869834.922
 11  8 11  1  4  0.0000000  0 10G17G10G04G27G05G09G02G12G30G25
 122413811.186 7  95387461.238 6  23294565.227                    23294574.219
 109787556.593 8  85548900.91646  20891872.352                    20891880.211
 114833387.423 8  89480700.07445  21852048.727                    21852056.988
 126518017.667 6  98585508.43643  24075584.547                    24075595.910
 114628822.281 7  89321179.289 7  21813111.789                    21813120.074
 125632434.138 7  97895520.88743  23907080.055                    23907090.180
 108218395.027 8  84326162.11546  20593270.070                    20593274.973
 111715010.981 8  87050770.399 7  21258674.891                    21258681.750
 119636301.262 7  93223267.02144  22766061.984                    22766070.898
 125339888.706 7  97667503.102 6  23851395.883                    23851406.797
 11  8 11  1  4 30.0000000  0 10G17G10G04G27G05G09G02G12G30G25
 122469818.664 7  95431103.401 6  23305223.688                    23305231.672
 109793548.168 8  85553569.67846  20893012.828                    20893020.547
 114911632.710 8  89541670.40745  21866938.422                    21866947.129
 126582658.949 6  98635878.08643  24087884.734                    24087896.988
 114542168.853 7  89253657.193 7  21796622.305                    21796630.023
 125714045.505 7  97959114.07343  23922610.273                    23922620.277
 108221298.568 8  84328424.62046  20593822.594                    20593827.590
 111662581.331 8  87009916.152 7  21248697.555                    21248704.773
 119551139.056 6  93156906.90044  22749855.914                    22749864.277
 125243260.609 7  97592208.502 6  23833008.742                    23833018.859
 11  8 11  1  5  0.0000000  0 10G17G10G04G27G05G09G02G12G30G25
 122525990.044 7  95474873.283 6  23315912.211                    23315920.730
 109800173.143 8  85558732.00346  20894273.477                    20894280.973
 114989998.043 8  89602734.26145  21881850.969                    21881859.258
 126647328.269 6  98686269.59143  24100191.594                    24100203.387
 114455851.856 7  89186397.249 7  21780196.859                    21780204.773
 125795771.718 6  98022796.71843  23938161.781                    23938172.801
 108224481.680 8  84330904.97146  20594428.219                    20594433.336
 111610617.756 8  86969425.066 7  21238809.305                    21238816.441
 119466352.071 6  93090839.15344  22733721.617                    22733730.238
 125146846.840 7  97517080.876 6  23814661.188                    23814671.641
 11  8 11  1  5 30.0000000  0 10G17G10G04G27G05G09G02G12G30G25
 122582325.934 7  95518771.348 6  23326633.141                    23326640.852
 109807430.942 8  85564387.44446  20895654.516                    20895662.473
 115068481.419 8  89663890.11445  21896786.078                    21896794.047
 126712022.724 6  98736680.64243  24112501.836                    24112514.914
 114369874.413 7  89119401.886 7  21763835.719                    21763843.840
 125877609.063 6  98086566.00843  23953734.859                    23953745.953
 108227943.104 8  84333602.19346  20595087.016                    20595092.172
 111559122.497 8  86929298.903 7  21229009.992                    21229017.297
 119381943.002 7  93025065.86444  22717659.305                    22717667.496
 125050650.091 7  97442122.394 6  23796355.734                    23796366.820
 11  8 11  1  6  0.0000000  0 10G17G10G04G27G05G09G02G12G30G25
 122638826.772 7  95562797.930 6  23337384.781                    23337393.762
 109815321.879 8  85570536.22846  20897156.070                    20897163.598
 115147081.084 8  89725136.56845  21911743.234                    21911751.277
 126776739.787 6  98787109.35643  24124818.031                    24124829.289
 114284239.466 7  89052673.395 7  21747539.711                    21747547.734
 125959554.647 6  98150419.56843  23969329.547                    23969339.512
 108231682.198 8  84336515.77746  20595798.344                    20595803.801
 111508097.887 8  86889539.476 7  21219300.289                    21219307.605
 119297914.863 7  92959589.40844  22701669.375                    22701677.098
 124954673.188 7  97367335.211 6  23778092.094                    23778103.121
 11  8 11  1  6 30.0000000  0 10G17G10G04G27G05G09G02G12G30G25
 122695493.083 7  95606953.468 6  23348167.891                    23348176.207
 109823845.489 8  85577178.00246  20898778.188                    20898785.680
 115225794.861 8  89786471.94945  21926721.789                    21926729.727
 126841476.448 6  98837553.30943  24137137.047                    24137148.578
 114198949.341 8  88986213.613 7  21731309.563                    21731317.605
 126041605.030 6  98214354.83043  23984942.820                    23984953.844
 108235697.558 8  84339644.64446  20596562.664                    20596568.125
 111457545.806 8  86850148.271 7  21209680.594                    21209687.598
 119214270.009 7  92894411.63244  22685752.055                    22685759.977
 124858918.515 7  97292721.190 6  23759870.945                    23759881.457
 11  8 11  1  7  0.0000000  0 10G17G10G04G27G05G09G02G12G30G25
 122752324.965 7  95651238.012 6  23358982.414                    23358991.414
 109833001.794 8  85584312.78646  20900520.656                    20900528.484
 115304621.083 8  89847894.95145  21941721.844                    21941730.371
 126906230.130 6  98888010.47042  24149458.852                    24149471.527
 114114006.958 8  88920024.802 7  21715145.602                    21715153.684
 126123756.861 6  98278369.10644  24000577.047                    24000587.121
 108239987.822 8  84342987.71246  20597378.992                    20597384.609
 111407468.194 8  86811126.755 7  21200151.273                    21200158.094
 119131011.249 7  92829534.69844  22669908.547                    22669916.430
 124763388.770 7  97218282.446 6  23741691.172                    23741702.617
 11  8 11  1  7 30.0000000  0 10G17G10G04G27G05G09G02G12G30G25
 122809323.049 7  95695652.085 6  23369829.070                    23369837.563
 109842790.463 8  85591940.31146  20902383.172                    20902390.934
 115383557.929 8  89909404.15345  21956743.180                    21956750.859
 126970998.108 6  98938478.81842  24161783.352                    24161796.832
 114029415.164 8  88854109.171 7  21699048.359                    21699056.180
 126206006.786 6  98342459.84044  24016228.281                    24016238.754
 108244552.071 8  84346544.26846  20598247.711                    20598252.754
 111357867.185 8  86772476.619 7  21190712.406                    21190719.008
 119048141.413 7  92764960.81744  22654139.172                    22654147.598
 124668086.699 7  97144021.103 6  23723555.961                    23723566.949
 11  8 11  1  8  0.0000000  0 10G17G10G04G27G05G09G02G12G30G25
 122866487.647 7  95740195.913 6  23380706.813                    23380715.305
 109853211.087 8  85600060.28146  20904366.227                    20904374.262
 115462603.421 7  89970998.01445  21971784.922                    21971793.168
 127035777.573 6  98988956.19942  24174111.648                    24174123.637
 113945176.347 7  88788468.578 7  21683017.992                    21683026.223
 126288351.175 6  98406624.16344  24031897.680                    24031908.680
 108249388.670 8  84350313.04346  20599168.125                    20599173.172
 111308744.804 8  86734199.456 7  21181364.719                    21181371.816
 118965663.005 7  92700691.93844  22638444.281                    22638452.352
 124573014.870 7  97069939.175 6  23705464.078                    23705475.262
 11  8 11  1  8 30.0000000  0 10G17G10G04G27G05G09G02G12G30G25
 122923819.419 7  95784869.994 6  23391616.961                    23391625.980
 109864263.964 8  85608672.91346  20906469.273                    20906477.281
 115541756.028 8  90032675.34245  21986847.195                    21986855.855
 127100566.340 6  99039440.70642  24186440.727                    24186452.336
 113861293.760 8  88723105.590 7  21667055.742                    21667063.586
 126370786.913 7  98470859.66444  24047585.023                    24047596.160
 108254496.915 8  84354293.49646  20600139.867                    20600144.863
 111260103.349 8  86696297.035 7  21172108.625                    21172115.887
 118883579.116 7  92636730.49145  22622824.344                    22622832.328
 124478176.234 7  96996038.963 6  23687417.648                    23687428.344
 11  8 11  1  9  0.0000000  0 10G17G10G04G27G05G09G02G12G30G25
 122981318.742 7  95829674.622 6  23402559.117                    23402567.648
 109875948.722 8  85617777.91546  20908693.063                    20908701.008
 115621013.758 8  90094434.58845  22001929.445                    22001937.926
 127165361.231 6  99089930.06543  24198770.844                    24198782.953
 113777770.029 7  88658022.215 7  21651161.625                    21651169.906
 126453310.949 6  98535163.97544  24063289.016                    24063299.754
 108259875.637 8  84358484.70346  20601163.328                    20601168.590
 111211944.861 8  86658770.943 7  21162943.961                    21162950.801
 118801892.198 7  92573078.36745  22607279.281                    22607287.809
 124383573.210 7  96922322.358 6  23669415.758                    23669425.891
 11  8 11  1  9 30.0000000  0 10G17G10G04G27G05G09G02G12G30G25
 123038986.078 6  95874610.178 6  23413532.586                    23413541.125
 109888264.627 8  85627374.72646  20911036.773                    20911044.070
 115700374.778 8  90156274.32045  22017031.375                    22017039.730
 127230159.615 6  99140422.13642  24211101.992                    24211113.703
 113694607.845 8  88593220.567 7  21635336.555                    21635344.570
 126535919.636 6  98599534.22343  24079008.969                    24079019.605
 108265523.764 8  84362885.84146  20602238.273                    20602243.645
 111164271.191 8  86621622.630 7  21153872.250                    21153879.355
 118720604.966 7  92509737.70245  22591810.898                    22591819.688
 124289208.520 7  96848791.455 6  23651458.258                    23651468.992
 11  8 11  1 10  0.0000000  0 10G17G10G04G27G05G09G02G12G30G25
 123096821.904 6  95919677.020 6  23424538.836                    23424546.984
 109901211.014 8  85637462.82846  20913500.250                    20913508.070
 115779837.035 8  90218192.94645  22032152.469                    22032161.043
 127294958.544 5  99190914.55743  24223432.820                    24223445.141
 113611809.624 8  88528702.525 7  21619580.398                    21619588.609
 126618609.477 6  98663967.73843  24094744.711                    24094755.117
 108271439.723 8  84367495.67846  20603363.945                    20603369.527
 111117083.596 8  86584853.081 7  21144892.969                    21144900.027
 118639720.021 7  92446710.49945  22576419.203                    22576427.742
 124195084.605 7  96775448.182 6  23633546.688                    23633557.449
 11  8 11  1 10 30.0000000  0 10G17G10G04G27G05G09G02G12G30G25
 123154826.461 7  95964875.355 6  23435575.789                    23435584.848
 109914788.085 8  85648042.36246  20916084.148                    20916091.402
 115859399.074 7  90280189.30445  22047293.078                    22047301.180
 127359755.658 6  99241405.61843  24235762.820                    24235776.285
 113529378.128 8  88464470.233 7  21603894.227                    21603902.090
 126701377.506 6  98728462.12543  24110495.016                    24110505.574
 108277622.705 8  84372313.59946  20604540.820                    20604545.746
 111070384.872 8  86548464.472 7  21136006.211                    21136013.500
 118559240.251 7  92383999.04745  22561104.336                    22561112.969
 124101204.457 7  96702294.822 6  23615682.469                    23615692.590
 11  8 11  1 11  0.0000000  0 10G17G10G04G27G05G09G02G12G30G25
 123213000.287 7  96010205.586 6  23446646.391                    23446654.637
 109928995.543 8  85659113.11646  20918787.500                    20918794.996
 115939059.218 8  90342262.13745  22062451.195                    22062459.656
 127424548.258 6  99291893.11343  24248093.203                    24248106.359
 113447316.359 8  88400526.047 7  21588278.172                    21588286.297
 126784220.381 7  98793014.88644  24126259.961                    24126270.105
 108284071.559 8  84377338.68246  20605767.898                    20605773.262
 111024177.000 8  86512458.343 7  21127212.914                    21127220.227
 118479168.343 7  92321605.39845  22545866.867                    22545875.613
 124007570.818 7  96629333.562 6  23597864.500                    23597874.586
 11  8 11  1 11 30.0000000  0 10G17G10G04G27G05G09G02G12G30G25
 123271343.729 7  96055667.980 6  23457749.000                    23457757.520
 109943832.751 8  85670674.58546  20921611.023                    20921618.602
 116018815.488 7  90404409.86045  22077628.680                    22077636.996
 127489333.759 6  99342375.08843  24260421.945                    24260434.586
 113365626.825 8  88336871.929 7  21572733.227                    21572741.520
 126867134.900 7  98857623.49543  24142037.961                    24142047.641
 108290785.019 8  84382569.93946  20607045.375                    20607050.469
 110978461.796 8  86476836.101 7  21118513.766                    21118521.258
 118399506.859 7  92259531.56945  22530707.992                    22530716.367
 123914186.127 7  96556566.303 6  23580094.359                    23580104.168
 11  8 11  1 12  0.0000000  0 10G17G10G04G27G05G09G02G12G30G25
 123329857.464 7  96101263.070 6  23468883.641                    23468891.773
 109959299.311 8  85682726.44346  20924554.328                    20924561.871
 116098666.045 7  90466631.05045  22092823.781                    22092832.262
 127554109.355 6  99392849.34143  24272747.273                    24272760.563
 113284312.163 8  88273509.889 7  21557259.227                    21557267.797
 126950117.514 7  98922285.14843  24157829.000                    24157839.121
 108297761.687 8  84388006.30446  20608372.813                    20608378.230
 110933241.282 8  86441599.353 7  21109908.641                    21109916.113
 118320258.515 7  92197779.65644  22515627.375                    22515636.105
 123821053.168 7  96483995.200 6  23562371.156                    23562381.531
 11  8 11  1 12 30.0000000  0 10G17G10G04G27G05G09G02G12G30G25
 123388541.752 7  96146991.071 6  23480051.039                    23480059.902
 109975394.632 8  85695268.26946  20927617.039                    20927624.652
 116178609.229 7  90528924.40745  22108036.516                    22108044.793
 127618872.513 6  99443313.90943  24285072.289                    24285084.734
 113203375.216 8  88210442.187 7  21541857.703                    21541865.520
 127033164.944 7  98986997.32443  24173632.289                    24173642.551
 108305000.749 8  84393647.13146  20609750.703                    20609755.934
 110888517.327 8  86406749.533 7  21101398.070                    21101405.133
 118241425.987 7  92136351.76745  22500625.945                    22500634.699
 123728174.645 7  96411622.342 6  23544697.117                    23544707.207
 11  8 11  1 13  0.0000000  0 10G17G10G04G27G05G09G02G12G30G25
 123447396.884 7  96192852.164 6  23491250.953                    23491259.484
 109992118.190 8  85708299.61846  20930799.398                    20930806.805
 116258643.612 7  90591288.82345  22123266.375                    22123274.730
 127683620.642 6  99493766.74743  24297393.625                    24297406.766
 113122818.558 8  88147670.793 7  21526528.375                    21526536.309
 127116274.156 7  99051757.60444  24189447.516                    24189458.910
 108312501.070 8  84399491.53546  20611177.891                    20611183.387
 110844292.134 8  86372288.347 7  21092982.555                    21092989.234
 118163011.934 7  92075249.96045  22485704.430                    22485712.750
 123635553.166 7  96339449.780 6  23527071.383                    23527082.520
 11  8 11  1 13 30.0000000  0 10G17G10G04G27G05G09G02G12G30G25
 123506423.617 7  96238847.015 6  23502483.023                    23502491.465
 110009469.167 8  85721819.87146  20934101.242                    20934108.898
 116338766.984 7  90653722.60145  22138513.492                    22138521.543
 127748350.918 6  99544205.64942  24309712.250                    24309724.289
 113042644.604 8  88085197.629 7  21511271.586                    21511279.637
 127199441.430 7  99116563.11144  24205273.320                    24205284.785
 108320261.175 8  84405538.36846  20612654.328                    20612659.961
 110800567.073 8  86338216.876 7  21084661.609                    21084669.125
 118085018.946 7  92014476.23744  22470862.539                    22470870.895
 123543191.377 7  96267479.583 6  23509495.828                    23509506.414
 11  8 11  1 14  0.0000000  0 10G17G10G04G27G05G09G02G12G30G25
 123565621.963 7  96284975.560 6  23513748.477                    23513757.082
 110027447.546 8  85735828.99346  20937522.383                    20937530.086
 116418977.768 7  90716224.49245  22153777.570                    22153785.305
 127813060.644 6  99594628.59142  24322025.555                    24322038.043
 112962856.223 8  88023024.908 7  21496088.641                    21496096.324
 127282663.943 6  99181411.66444  24221110.352                    24221122.016
 108328280.049 8  84411786.83546  20614180.227                    20614185.465
 110757344.007 8  86304536.576 7  21076436.813                    21076444.113
 118007449.642 7  91954032.67144  22456101.656                    22456109.836
 123451092.021 7  96195713.862 6  23491969.898                    23491979.949
 11  8 11  1 14 30.0000000  0 10G17G10G04G27G05G09G02G12G30G25
 123624992.531 7  96331238.316 6  23525046.133                    23525054.727
 110046052.845 8  85750326.65646  20941062.766                    20941070.285
 116499274.510 7  90778793.36245  22169056.789                    22169065.531
 127877747.379 6  99645033.61142  24334335.375                    24334348.156
 112883456.413 8  87961154.957 7  21480979.156                    21480987.109
 127365938.359 6  99246300.65543  24236956.594                    24236968.723
 108336556.922 8  84418236.35446  20615755.664                    20615760.676
 110714625.114 8  86271249.135 7  21068307.313                    21068314.574
 117930306.849 7  91893921.43244  22441422.023                    22441429.855
 123359257.954 7  96124154.867 6  23474494.594                    23474504.902
 11  8 11  1 15  0.0000000  0 10G17G10G04G27G05G09G02G12G30G25
 123684535.425 6  96377635.322 6  23536377.219                    23536385.477
 110065283.916 8  85765311.91546  20944722.273                    20944729.859
 116579655.462 7  90841427.84345  22184353.336                    22184361.871
 127942408.440 5                  24346639.297
 112804447.322 8  87899589.481 7  21465944.211                    21465952.289
 127449261.359 6  99311227.49043  24252812.664                    24252824.516
 108345089.882 8  84424885.40946  20617379.156                    20617384.574
 110672412.292 8  86238356.025 7  21060274.883                    21060282.039
 117853592.953 7  91834144.40744  22426823.586                    22426831.641
 123267691.618 7  96052804.522 6  23457069.617                    23457080.902
 11  8 11  1 15 30.0000000  0 10G17G10G04G27G05G09G02G12G30G25
 123744251.263 7  96424167.123 6  23547740.375                    23547748.625
 110085140.293 8  85780784.42046  20948500.859                    20948508.199
 116660118.843 7  90904126.55545  22199664.820                    22199673.543
 128007041.404 5                  24358939.289
 112725831.615 8  87838330.531 7  21450983.766                    21450991.758
 127532629.791 5  99376189.70243  24268677.023                    24268689.395
 108353878.370 8  84431733.58146  20619051.781                    20619056.734
 110630707.318 8  86205858.646 7  21052338.570                    21052345.594
 117777310.717 7  91774703.73244  22412307.766                    22412315.797
 123176395.970 7  95981665.090 6  23439696.625                    23439707.676
 11  8 11  1 16  0.0000000  0 10G17G10G04G27G05G09G02G12G30G25
 123804140.469 7  96470834.016 6  23559136.602                    23559145.793
 110105621.401 8  85796743.73846  20952398.313                    20952405.762
 116740662.728 7  90966887.99545  22214991.781                    22215000.254
 128071643.235 5  99796172.45052  24371233.219                    24371244.973
 112647611.903 8  87777380.148 7  21436099.109                    21436107.215
 127616040.448 6  99441184.84043  24284549.563                    24284561.559
 108362921.041 8  84438779.81846  20620772.430                    20620777.605
 110589511.905 8  86173758.332 7  21044499.039                    21044506.336
 117701462.564 7  91715601.30444  22397874.391                    22397882.043
 123085373.364 7  95910738.423 6  23422376.117                    23422386.617
 11  8 11  1 16 30.0000000  0 10G17G10G04G27G05G09G02G12G30G25
 123864203.159 7  96517636.102 6  23570566.250                    23570574.949
 110126726.200 8  85813189.04446  20956414.352                    20956421.949
 116821285.507 7  91029710.92545  22230333.594                    22230342.023
 128136211.363 6  99846485.02043  24383521.188                    24383533.555
 112569790.686 8  87716740.289 7  21421290.344                    21421298.234
 127699489.627 6  99506210.01643  24300430.586                    24300442.039
 108372216.223 8  84446022.81946  20622541.211                    20622546.309
 110548827.397 8  86142056.132 7  21036757.164                    21036764.293
 117626050.895 7  91656838.97544  22383523.563                    22383531.836
 122994626.464 7  95840026.572 7  23405107.398                    23405117.762
 11  8 11  1 17  0.0000000  0 10G17G10G04G27G05G09G02G12G30G25
 123924439.783 7  96564573.731 6  23582029.133                    23582037.375
 110148453.900 8  85830119.73846  20960549.148                    20960556.961
 116901985.553 7  91092594.03845  22245690.633                    22245698.723
 128200743.347 6  99896769.46843  24395800.844                    24395814.375
 112492370.432 8  87656412.863 7  21406557.813                    21406565.578
 127782974.728 6  99571263.19043  24316317.141                    24316328.832
 108381763.058 8  84453461.91746  20624357.633                    20624362.887
 110508655.991 8  86110753.738 7  21029113.102                    21029120.055
 117551078.437 7  91598418.90345  22369256.359                    22369265.234
 122904157.953 7  95769531.658 6  23387891.734                    23387902.090
 11  8 11  1 17 30.0000000  0 10G17G10G04G27G05G09G02G12G30G25
 123984850.645 7  96611647.139 6  23593524.961                    23593532.992
 110170803.767 8  85847535.23446  20964802.094                    20964809.527
 116982761.238 7  91155536.11545  22261061.711                    22261069.980
 128265236.459 6  99947023.58543  24408072.906                    24408086.695
 112415353.911 8  87596400.044 7  21391901.922                    21391909.848
 127866492.113 6  99636341.52043  24332210.734                    24332221.648
 108391560.366 8  84461096.18446  20626222.297                    20626227.648
 110468999.397 8  86079852.505 7  21021566.477                    21021573.563
 117476547.691 7  91540343.02245  22355074.086                    22355082.598
 122813970.536 7  95699255.793 6  23370729.414                    23370739.910
 11  8 11  1 18  0.0000000  0 10G17G10G04G27G05G09G02G12G30G25
 124045436.366 7  96658856.769 6  23605054.453                    23605061.969
 110193775.000 8  85865434.91446  20969173.242                    20969180.949
 117063610.830 7  91218535.76545  22276446.992                    22276455.516
 128329687.942 6  99997245.31543  24420337.891                    24420352.105
 112338743.465 8  87536703.633 7  21377323.133                    21377331.676
 127950038.562 6  99701442.55143  24348108.563                    24348120.137
 108401606.757 8  84468924.53946  20628134.133                    20628139.492
 110429859.310 8  86049353.754 7  21014118.234                    21014125.559
 117402461.214 7  91482613.30445  22340976.188                    22340984.637
 122724066.927 7  95629201.071 6  23353621.633                    23353632.410
 11  8 11  1 18 30.0000000  0 10G17G10G04G27G05G09G02G12G30G25
 124106197.076 7  96706202.743 6  23616616.531                    23616625.023
 110217367.042 8  85883818.33946  20973662.336                    20973670.406
 117144533.135 7  91281592.07645  22291846.000                    22291854.211
 128394095.620 6 100047432.91543  24432594.953                    24432608.055
 112262541.933 8  87477325.867 7  21362822.813                    21362830.629
 128033611.044 6  99766563.82043  24364011.813                    24364022.691
 108411901.605 8  84476946.50446  20630092.961                    20630098.574
 110391237.676 8  86019258.981 7  21006768.734                    21006776.055
 117328821.919 7  91425232.06145  22326963.172                    22326971.652
 122634449.978 7  95559369.738 6  23336567.695                    23336579.043
 11  8 11  1 19  0.0000000  0 10G17G10G04G27G05G09G02G12G30G25
 124167133.179 7  96753685.381 6  23628212.086                    23628221.402
 110241578.815 8  85902684.67346  20978269.758                    20978277.715
 117225526.227 7  91344703.56945  22307258.133                    22307266.832
 128458456.745 6 100097584.24243  24444843.305                    24444855.715
 112186751.682 8  87418268.583 7  21348400.188                    21348408.168
 128117206.446 6  99831702.93543  24379920.938                    24379931.672
 108422443.620 8  84485161.06246  20632099.016                    20632104.309
 110353135.922 8  85989569.313 7  20999518.219                    20999525.453
 117255632.032 7  91368201.01045  22313035.414                    22313043.895
 122545122.298 7  95489763.815 6  23319569.461                    23319579.781
 11  8 11  1 19 30.0000000  0 10G17G10G04G27G05G09G02G12G30G25
 124228244.873 6  96801304.881 6  23639841.078                    23639849.434
 110266409.499 8  85922033.27246  20982995.063                    20983002.535
 117306588.361 7  91407868.84145  22322684.156                    22322692.605
 128522768.272 6 100147696.87543  24457081.188                    24457093.164
 112111374.958 8  87359533.524 7  21334056.430                    21334064.539
 128200821.459 6  99896857.37343  24395831.430                    24395842.719
 108433231.019 8  84493566.83446  20634151.891                    20634157.406
 110315555.574 8  85960285.936 7  20992367.031                    20992373.699
 117182893.999 7  91311522.04745  22299193.859                    22299202.641
 122456086.307 7  95420385.186 6  23302626.445                    23302636.688
 11  8 11  1 20  0.0000000  0 10G17G10G04G27G05G09G02G12G30G25
 124289532.817 6  96849061.671 6  23651503.953                    23651512.910
 110291858.398 7  85941863.59146  20987837.781                    20987845.559
 117387718.143 7  91471086.84145  22338122.516                    22338130.898
 128587028.294 6 100197769.39943  24469308.852                    24469322.684
 112036414.586 8  87301122.897 7  21319791.922                    21319799.598
 128284452.967 6  99962024.61343  24411746.375                    24411757.914
 108444263.461 8  84502163.55146  20636251.211                    20636256.563
 110278499.035 8  85931410.711 7  20985315.750                    20985322.246
 117110610.667 7  91255197.39545  22285438.813                    22285447.094
 122367345.065 7  95351236.238 6  23285738.859                    23285749.832
 11  8 11  1 20 30.0000000  0 10G17G10G04G27G05G09G02G12G30G25
 124350996.983 7  96896955.825 6  23663200.875                    23663209.691
 110317924.166 8  85962174.58946  20992798.156                    20992805.402
 117468914.111 7  91534356.40645  22353573.852                    22353581.813
 128651233.814 6 100247799.49043  24481527.234                    24481540.121
 111961872.814 8  87243038.447 7  21305607.438                    21305615.246
 128368097.806 6 100027202.23243  24427662.781                    24427674.805
 108455539.276 8  84510949.90646  20638397.109                    20638402.742
 110241967.284 8  85902944.434 7  20978363.688                    20978370.883
 117038784.221 7  91199228.76245  22271770.602                    22271778.941
 122278901.003 7  95282318.854 6  23268908.953                    23268919.648
 11  8 11  1 21  0.0000000  0  9G17G10G04G05G09G02G12G30G25
 124412637.966 6  96944987.707 6  23674930.813                    23674939.102
 110344605.937 8  85982965.59346  20997875.258                    20997882.867
 117550174.339 7  91597676.03445  22369036.359                    22369045.266
 111887752.437 8  87185282.363 7  21291501.922                    21291510.273
 128451752.937 6 100092387.87243  24443582.266                    24443594.418
 108467057.656 8  84519925.27846  20640588.938                    20640594.156
 110205962.099 8  85874888.463 7  20971511.859                    20971519.223
 116967417.294 7  91143618.21445  22258189.758                    22258198.469
 122190756.865 7  95213635.178 6  23252135.266                    23252146.035
 11  8 11  1 21 30.0000000  0  9G17G10G04G05G09G02G12G30G25
 124474455.937 7  96993157.509 6  23686694.625                    23686702.906
 110371902.640 7  86004235.75146  21003069.617                    21003076.961
 117631497.481 7  91661044.67645  22384511.828                    22384520.516
 111814055.752 8  87127856.420 7  21277478.633                    21277486.004
 128535414.846 6 100157578.80343  24459503.406                    24459514.805
 108478816.868 8  84529088.29946  20642826.398                    20642831.934
 110170485.421 8  85847244.321 7  20964761.039                    20964768.469
 116896512.324 7  91088367.62645  22244697.352                    22244705.434
 122102915.225 7  95145187.216 6  23235419.531                    23235430.746
 11  8 11  1 22  0.0000000  0  9G17G10G04G05G09G02G12G30G25
 124536451.187 7  97041465.486 6  23698491.117                    23698500.086
 110399813.298 7  86025984.33046  21008380.797                    21008388.332
 117712881.946 7  91724461.13945  22399999.195                    22400007.668
 111740785.038 8  87070762.400 7  21263535.820                    21263543.020
 128619080.475 6 100222772.65243  24475424.094                    24475435.707
 108490815.947 8  84538438.23946  20645110.266                    20645115.480
 110135538.274 8  85820012.791 7  20958111.109                    20958117.430
 116826071.669 7  91033478.84945  22231292.828                    22231300.785
 122015378.758 7  95076977.036 7  23218762.008                    23218772.961
 11  8 11  1 22 30.0000000  0  9G17G10G04G05G09G02G12G30G25
 124598624.144 6  97089911.893 6  23710322.438                    23710331.676
 110428337.099 7  86048210.67646  21013808.938                    21013816.043
 117794326.057 7  91787924.05644  22415497.703                    22415505.301
 111667942.864 8  87014002.313 7  21249674.078                    21249681.684
 128702746.724 6 100287966.98143  24491345.586                    24491357.109
 108503053.666 8  84547974.13446  20647438.383                    20647444.137
 110101122.481 8  85793195.296 7  20951561.914                    20951568.723
 116756097.733 7  90978953.73345  22217977.273                    22217985.219
 121928150.025 7  95009006.654 7  23202162.547                    23202174.047
 11  8 11  1 23  0.0000000  0  9G17G10G04G05G09G02G12G30G25
 124660974.996 7  97138496.951 6  23722187.914                    23722195.898
 110457472.537 8  86070913.61346  21019353.133                    21019360.785
 117875828.272 7  91851432.27845  22431007.063                    22431015.230
 111595531.740 8  86957578.105 7  21235894.398                    21235901.988
 128786410.393 6 100353159.29743  24507266.344                    24507278.102
 108515528.847 8  84557695.05746  20649812.500                    20649817.934
 110067239.616 8  85766793.081 7  20945113.961                    20945121.066
 116686593.017 7  90924794.24845  22204750.914                    22204758.863
 121841231.806 7  94941278.224 7  23185623.070                    23185633.824
 11  8 11  1 23 30.0000000  0  9G17G10G04G05G09G02G12G30G25
 124723503.998 6  97187220.852 6  23734086.070                    23734094.391
 110487218.991 8  86094092.66946  21025013.859                    21025021.254
 117957387.411 7  91914984.84444  22446527.250                    22446536.105
 111523553.907 8  86901491.525 7  21222197.750                    21222205.332
 128870068.421 6 100418347.20843  24523185.805                    24523198.070
 108528240.541 8  84567600.29046  20652231.461                    20652236.723
 110033891.043 8  85740807.202 7  20938767.727                    20938775.109
 116617560.065 7  90871002.37045  22191613.891                    22191622.008
 121754626.792 7  94873793.843 7  23169142.617                    23169153.672
 11  8 11  1 24  0.0000000  0  9G17G10G04G05G09G02G12G30G25
 124786211.582 6  97236083.883 6  23746019.117                    23746027.824
 110517575.231 7  86117746.87846  21030789.961                    21030797.445
 118039001.749 7  91978580.40545  22462057.969                    22462066.430
 111452011.814 8  86845744.485 7  21208583.508                    21208590.836
 128953717.705 6 100483528.33843  24539103.484                    24539115.816
 108541187.627 8  84577688.93346  20654695.531                    20654700.563
 110001078.657 8  85715239.107 7  20932524.086                    20932530.723
 116549001.281 7  90817579.97945  22178567.852                    22178575.426
 121668337.697 7  94806555.614 7  23152722.438                    23152732.566
 11  8 11  1 24 30.0000000  0  9G17G10G04G05G09G02G12G30G25
 124849098.100 6  97285086.354 6  23757985.773                    23757994.484
 110548539.985 8  86141875.23846  21036682.711                    21036690.645
 118120669.541 7  92042217.63145  22477599.195                    22477607.309
 111380907.866 8  86790338.841 7  21195052.680                    21195060.441
 129037354.936 6 100548700.07143  24555019.633                    24555032.211
 108554368.712 8  84587959.92146  20657203.563                    20657208.723
 109968803.576 8  85690089.704 7  20926382.406                    20926388.926
 116480918.964 7  90764528.84245  22165612.188                    22165620.098
 121582367.034 7  94739565.517 7  23136362.477                    23136373.180
 11  8 11  1 25  0.0000000  0  9G17G10G04G05G09G02G12G30G25
 124912163.832 6  97334228.439 6  23769986.234                    23769995.938
 110580112.109 8  86166476.88746  21042691.047                    21042698.215
 118202389.606 7  92105895.60744  22493149.672                    22493157.801
 111310244.594 8  86735276.601 7  21181606.586                    21181614.121
 129120977.269 6 100613860.17842  24570932.469                    24570944.781
 108567782.848 8  84598412.50446  20659756.203                    20659761.688
 109937067.863 8  85665360.576 7  20920343.359                    20920349.832
 116413315.653 7  90711850.95245  22152747.430                    22152755.223
 121496717.678 7  94672825.771 7  23120063.773                    23120074.320
 11  8 11  1 25 30.0000000  0  9G17G10G04G05G09G02G12G30G25
 124975408.687 6  97383510.116 6  23782021.961                    23782030.656
 110612290.155 7  86191550.68946  21048813.797                    21048821.273
 118284160.224 7  92169612.94945  22508710.000                    22508718.543
 111240024.027 8  86680559.311 7  21168243.414                    21168250.816
 129204581.404 5 100679006.09942  24586842.328                    24586854.457
 108581428.404 8  84609045.40346  20662352.852                    20662358.105
 109905872.075 8  85641052.180 7  20914406.906                    20914413.672
 116346193.389 7  90659547.91645  22139974.617                    22139982.570
 121411391.897 7  94606338.168 6  23103827.313                    23103837.699
 11  8 11  1 26  0.0000000  0  8G17G10G04G05G02G12G30G25
 125038833.470 7  97432932.017 6  23794091.469                    23794099.930
 110645073.274 7  86217095.97146  21055052.688                    21055059.887
 118365980.520 7  92233368.98544  22524279.750                    22524288.184
 111170248.757 8  86626189.010 7  21154965.977                    21154973.488
 108595304.620 8  84619858.04046  20664993.461                    20664998.863
 109875218.426 8  85617166.209 7  20908573.656                    20908580.828
 116279554.940 7  90607621.85845  22127293.688                    22127302.395
 121326392.856 7  94540105.180 6  23087651.969                    23087662.605
 11  8 11  1 26 30.0000000  0  9G17G10G04G05G09G02G12G30G25
 125102438.167 7  97482494.074 6  23806194.961                    23806204.156
 110678459.974 8  86243111.57946  21061405.602                    21061413.414
 118447848.549 7  92297162.26545  22539859.148                    22539866.941
 111100921.082 8  86572167.486 7  21141773.039                    21141780.520
 129371725.85215                  24618647.484
 108609410.202 8  84630849.40846  20667677.563                    20667682.781
 109845107.876 8  85593703.447 7  20902843.805                    20902850.629
 116213402.458 7  90556074.47045  22114705.391                    22114713.711
 121241722.886 7  94474128.584 6  23071540.008                    23071550.516
 11  8 11  1 27  0.0000000  0  9G17G10G04G05G09G02G12G30G25
 125166222.256 6  97532195.924 6  23818333.242                    23818341.758
 110712448.564 7  86269596.19846  21067873.328                    21067881.195
 118529762.232 7  92360991.10044  22555446.758                    22555454.848
 111032042.390 8  86518495.810 7  21128665.859                    21128673.223
 129455256.830 6 100874395.19052  24634544.781                    24634557.008
 108623743.589 8  84642018.27746  20670405.055                    20670410.191
 109815541.480 8  85570664.688 7  20897217.547                    20897224.203
 116147737.612 7  90504907.05745  22102209.898                    22102217.918
 121157384.006 7  94408410.006 6  23055490.969                    23055500.816
 11  8 11  1 27 30.0000000  0  9G17G10G04G05G09G02G12G30G25
 125230186.273 7  97582037.966 6  23830504.984                    23830513.324
 110747037.628 8  86296548.71146  21074455.570                    21074462.867
 118611720.281 7  92424854.50144  22571042.594                    22571050.656
 110963615.273 8  86465176.016 7  21115644.430                    21115651.969
 129538757.281 6 100939460.24742  24650433.789                    24650446.449
 108638303.283 8  84653363.49946  20673175.844                    20673180.902
 109786520.479 8  85548050.909 7  20891695.156                    20891701.570
 116082562.811 7  90454121.51545  22089807.875                    22089815.828
 121073379.026 7  94342951.606 6  23039505.195                    23039515.004
 11  8 11  1 28  0.0000000  0  9G17G10G04G05G09G02G12G30G25
 125294331.016 7  97632020.895 6  23842711.555                    23842720.371
 110782226.488 8  86323968.60246  21081151.625                    21081159.590
 118693721.781 7  92488751.76644  22586646.844                    22586655.379
 110895642.739 8  86412210.448 7  21102709.945                    21102717.441
 129622224.345 6 101004499.35042  24666317.547                    24666330.035
 108653089.011 8  84664884.86246  20675989.617                    20675994.703
 109758046.894 8  85525863.700 7  20886276.477                    20886283.695
 116017880.990 7  90403720.11445  22077499.063                    22077507.012
 120989711.080 7  94277755.820 6  23023583.969                    23023593.340
 11  8 11  1 28 30.0000000  0  9G17G10G04G05G09G02G12G30G25
 125358656.431 6  97682144.555 6  23854951.891                    23854960.633
 110818013.634 8  86351854.70946  21087962.219                    21087969.711
 118775765.255 7  92552681.71644  22602259.547                    22602267.824
 110828126.570 8  86359600.487 7  21089861.844                    21089869.730
 129705654.944 6 101069509.98142  24682194.234                    24682206.727
 108668099.390 8  84676581.26646  20678845.953                    20678851.152
 109730122.059 8  85504104.091 7  20880962.828                    20880969.879
 115953694.336 7  90353704.54745  22065285.117                    22065293.047
 120906382.779 7  94212824.700 6  23007726.711                    23007736.543
 11  8 11  1 29  0.0000000  0  9G17G10G04G05G09G02G12G30G25
 125423162.875 6  97732409.263 6  23867226.563                    23867236.102
 110854397.845 8  86380206.04546  21094885.828                    21094892.867
 118857849.385 7  92616643.35045  22617879.766                    22617888.168
 110761069.157 8  86307347.996 7  21077101.305                    21077108.648
 129789046.03815 101134489.89552  24698062.734                    24698075.125
 108683333.245 8  84688451.81246  20681744.703                    20681750.094
 109702747.178 8  85482773.019 7  20875753.398                    20875760.676
 115890005.028 7  90304076.50545  22053164.867                    22053173.422
 120823396.644 7  94148160.209 6  22991935.492                    22991944.949
 11  8 11  1 29 30.0000000  0  9G17G10G04G05G09G02G12G30G25
 125487850.681 6  97782815.301 6  23879536.008                    23879545.332
 110891377.824 8  86409021.62046  21101922.422                    21101930.098
 118939972.811 7  92680635.60044  22633507.203                    22633514.961
 110694473.033 8  86255454.953 7  21064428.227                    21064435.871
 129872394.65015 101199436.64452  24713924.367                    24713936.289
 108698789.624 8  84700495.76446  20684686.039                    20684690.930
 109675923.953 8  85461871.807 7  20870648.930                    20870655.926
 115826815.556 7  90254837.96745  22041140.758                    22041148.293
 120740755.532 7  94083764.565 6  22976208.742                    22976219.238
 11  8 11  1 30  0.0000000  0  9G17G10G04G05G09G02G12G30G25
 125552719.935 6  97833362.746 6  23891880.563                    23891889.145
 110928951.424 8  86438299.75546  21109072.945                    21109079.809
 119022133.839 7  92744657.17244  22649141.977                    22649150.270
 110628339.997 8  86203922.756 7  21051843.664                    21051851.098
 129955697.373 5 101264347.62542  24729775.891                    24729788.426
 108714467.037 8  84712711.94246  20687669.508                    20687674.332
 109649652.753 8  85441400.748 7  20865650.352                    20865657.238
 115764127.765 7  90205990.36145  22029211.281                    22029219.434
 120658461.625 7  94019639.466 6  22960548.742                    22960558.777
 11  8 11  1 30 30.0000000  0  9G17G10G04G05G09G02G12G30G25
 125617771.023 6  97884051.848 6  23904259.250                    23904268.504
 110967117.740 8  86468039.74846  21116335.148                    21116343.184
 119104330.986 7  92808706.88144  22664783.523                    22664791.781
 110562672.087 8  86152752.997 7  21039347.266                    21039355.016
 130038951.61815 101329220.72352  24745618.875                    24745631.695
 108730364.257 8  84725099.39246  20690694.484                    20690699.758
 109623935.160 8  85421361.060 7  20860755.875                    20860763.234
 115701944.022 7  90157535.52245  22017378.211                    22017386.258
 120576517.694 7  93955787.078 6  22944955.375                    22944965.551
 11  8 11  1 31  0.0000000  0  9G17G10G04G05G09G02G12G30G25
 125683004.191 6  97934882.856 6  23916673.641                    23916682.434
 111005875.801 8  86498240.83246  21123710.813                    21123718.461
 119186563.841 7  92872784.42145  22680432.211                    22680440.641
 110497472.271 8  86101947.991 7  21026940.469                    21026947.559
 130122154.67215                  24761450.156
 108746480.744 8  84737657.69246  20693761.297                    20693766.313
 109598773.005 8  85401754.208 7  20855967.820                    20855974.898
 115640267.071 7  90109475.57645  22005641.570                    22005649.789
 120494926.893 7  93892209.855 6  22929429.539                    22929439.215
 11  8 11  1 31 30.0000000  0  9G17G10G04G05G09G02G12G30G25
 125748419.263 6  97985855.600 6  23929121.672                    23929130.695
 111045223.369 8  86528901.28046  21131198.461                    21131206.137
 119268830.116 7  92936888.00544  22696086.594                    22696095.367
 110432741.904 8  86051508.781 7  21014622.500                    21014630.070
 130205303.063 5                  24777273.438
 108762814.858 8  84750385.57746  20696869.523                    20696874.738
 109574166.854 8  85382580.587 7  20851285.094                    20851292.348
 115579098.448 7  90061811.72545  21994001.461                    21994009.578
 120413691.176 7  93828909.335 6  22913970.977                    22913981.219
 11  8 11  1 32  0.0000000  0  9G17G10G04G05G09G02G12G30G25
 125814016.215 7  98036970.081 6  23941604.563                    23941613.070
 111085158.523 8  86560019.58146  21138797.953                    21138805.480
 119351128.537 7  93001016.61844  22711747.320                    22711755.926
 110368483.231 8  86001437.129 7  21002394.305                    21002401.934
 130288393.584 5                  24793085.797
 108779365.236 8  84763281.98446  20700019.063                    20700024.332
 109550117.660 8  85363840.975 7  20846709.148                    20846715.969
 115518440.252 7  90014545.63045  21982458.469                    21982466.703
 120332812.951 7  93765887.396 7  22898579.781                    22898590.352
 11  8 11  1 32 30.0000000  0  9G17G10G04G05G09G02G12G30G25
 125879795.488 6  98088226.624 6  23954121.578                    23954130.691
 111125680.003 8  86591594.76346  21146508.586                    21146516.371
 119433457.578 7  93065169.09744  22727413.742                    22727423.016
 110304698.329 8  85951734.644 7  20990256.273                    20990264.324
 130371423.370 5                  24808887.477
 108796130.513 8  84776345.83446  20703209.148                    20703214.559
 109526626.696 8  85345536.335 7  20842238.734                    20842245.480
 115458294.512 8  89967678.84245  21971012.664                    21971021.363
 120252294.858 7  93703146.069 7  22883257.688                    22883268.793
 11  8 11  1 33  0.0000000  0  9G17G10G04G05G09G02G12G30G25
 125945756.958 6  98139625.138 6  23966673.680                    23966682.594
 111166786.190 8  86623625.54945  21154330.953                    21154338.930
 119515816.084 7  93129344.54144  22743086.797                    22743095.063
 110241389.313 8  85902402.984 7  20978209.469                    20978217.051
 130454389.133 5                  24824673.758
 108813109.983 8  84789576.58646  20706440.219                    20706445.172
 109503695.289 8  85327667.711 7  20837875.047                    20837881.656
 115398663.535 7  89921213.17745  21959665.797                    21959674.234
 120172139.518 7  93640687.394 7  22868004.898                    22868015.648
 11  8 11  1 33 30.0000000  0  9G17G10G04G05G09G02G12G30G25
 126011901.396 6  98191166.218 6  23979260.852                    23979269.480
 111208475.912 8  86656111.04246  21162263.984                    21162272.098
 119598203.013 7  93193542.10744  22758763.977                    22758773.156
 110178558.645 8  85853444.061 7  20966252.375                    20966260.305
 130537288.762 5                  24840450.930
 108830302.744 8  84802973.54246  20709712.195                    20709717.086
 109481324.841 8  85310236.204 7  20833618.055                    20833625.035
 115339549.728 7  89875150.49945  21948416.898                    21948424.922
 120092349.787 7  93578513.618 7  22852820.938                    22852831.926
 11  8 11  1 34  0.0000000  0  9G17G10G04G05G09G02G12G30G25
 126078229.010 6  98242850.023 6  23991881.492                    23991891.445
 111250747.658 8  86689050.06645  21170308.313                    21170315.855
 119680616.943 7  93257760.73144  22774447.172                    22774455.246
 110116208.257 8  85804859.380 7  20954387.930                    20954395.391
 130620119.303 5                  24856214.297
 108847707.585 8  84816535.76746  20713024.148                    20713029.430
 109459516.314 8  85293242.565 7  20829468.305                    20829474.969
 115280955.325 7  89829492.55745  21937266.336                    21937274.242
 120012928.425 7  93516626.886 7  22837707.734                    22837718.809
 11  8 11  1 34 30.0000000  0  8G17G10G04G05G02G12G30G25
 126144740.901 6  98294677.443 6  24004537.977                    24004548.027
 111293600.536 8  86722441.91845  21178462.992                    21178470.492
 119763057.612 7  93322000.19744  22790134.883                    22790143.289
 110054341.145 8  85756651.270 7  20942615.211                    20942622.535
 108865324.181 8  84830262.98146  20716376.711                    20716381.566
 109438271.561 8  85276688.219 7  20825425.313                    20825432.012
 115222883.136 7  89784241.53545  21926215.227                    21926223.445
 119933878.672 7  93455029.712 7  22822665.688                    22822675.539
 11  8 11  1 35  0.0000000  0  8G17G10G04G05G02G12G30G25
 126211435.876 6  98346647.483 6  24017230.641                    24017239.977
 111337032.001 8  86756284.62445  21186727.516                    21186735.324
 119845522.734 7  93386258.69844  22805827.961                    22805835.902
 109992958.350 8  85708820.562 7  20930934.063                    20930941.828
 108883150.511 8  84844153.63146  20719768.789                    20719773.727
 109417590.876 8  85260573.403 7  20821489.820                    20821496.465
 115165334.271 7  89739398.28745  21915264.531                    21915272.301
 119855202.129 7  93393723.338 7  22807693.281                    22807704.152
 11  8 11  1 35 30.0000000  0  8G17G10G04G05G02G12G30G25
 126278313.676 6  98398760.008 6  24029957.234                    24029966.238
 111381039.576 7  86790576.24246  21195102.156                    21195109.684
 119928010.602 7  93450534.94544  22821524.531                    22821533.285
 109932061.632 8  85661368.610 7  20919345.719                    20919353.457
 108901184.852 8  84858206.35846  20723200.711                    20723205.523
 109397474.551 8  85244898.343 7  20817661.836                    20817668.582
 115108310.274 7  89694964.03945  21904413.000                    21904421.059
 119776900.914 7  93332709.421 7  22792793.281                    22792803.844
 11  8 11  1 36  0.0000000  0  8G17G10G04G05G02G12G30G25
 126345374.553 6  98451015.209 6  24042719.055                    24042727.992
 111425621.655 8  86825315.52546  21203585.898                    21203593.301
 120010520.061 7  93514828.00644  22837225.805                    22837234.258
 109871652.643 8  85614296.711 7  20907850.422                    20907857.668
 108919426.050 8  84872420.29046  20726671.648                    20726677.055
 109377923.641 8  85229663.876 7  20813941.492                    20813948.078
 115051813.376 7  89650940.50245  21893662.219                    21893669.605
 119698977.605 7  93271989.981 6  22777964.680                    22777975.590
 11  8 11  1 36 30.0000000  0  8G17G10G04G05G02G12G30G25
 126412618.762 6  98503413.239 6  24055514.031                    24055523.863
 111470776.892 7  86860501.42446  21212178.430                    21212186.297
 120093049.765 7  93579136.84744  22852930.875                    22852938.754
 109811733.806 8  85567606.764 7  20896448.438                    20896455.797
 108937873.189 8  84886794.68546  20730182.102                    20730187.523
 109358939.497 8  85214871.034 7  20810328.773                    20810335.508
 114995845.675 8  89607329.32445  21883011.836                    21883019.500
 119621434.922 7  93211567.107 6  22763208.750                    22763219.391
 11  8 11  1 37  0.0000000  0  8G17G10G04G05G02G12G30G25
 126480046.416 7  98555954.235 6  24068346.383                    24068355.043
 111516503.077 8  86896132.21445  21220879.938                    21220887.789
 120175598.696 7  93643460.64844  22868638.922                    22868647.336
 109752307.186 8  85521300.338 7  20885139.711                    20885147.000
 108956525.504 8  84901328.97146  20733731.297                    20733736.609
 109340523.074 8  85200520.581 7  20806824.352                    20806831.219
 114940409.085 8  89564132.00545  21872462.633                    21872470.598
 119544275.362 7  93151442.763 6  22748526.656                    22748536.398
 11  8 11  1 37 30.0000000  0  8G17G10G04G05G02G12G30G25
 126547657.876 6  98608638.452 6  24081212.430                    24081220.629
 111562799.076 8  86932207.00745  21229689.844                    21229697.520
 120258165.385 7  93707798.28844  22884351.328                    22884359.621
 109693374.685 8  85475378.961 7  20873925.484                    20873932.859
 108975381.670 8  84916022.09746  20737319.375                    20737324.949
 109322675.247 8  85186613.177 7  20803428.273                    20803434.848
 114885505.737 8  89521350.19545  21862014.781                    21862022.492
 119467501.539 7  93091619.001 7  22733916.008                    22733926.516
 11  8 11  1 38  0.0000000  0  8G17G10G04G05G02G12G30G25
 126615452.920 6  98661465.784 5  24094113.359                    24094120.910
 111609662.588 8  86968724.02745  21238607.500                    21238615.234
 120340748.599 7  93772148.80244  22900066.156                    22900074.961
 109634937.784 8  85429843.743 7  20862805.000                    20862812.418
 108994439.964 8  84930872.72546  20740946.461                    20740951.359
 109305396.644 8  85173149.333 7  20800140.063                    20800146.672
 114831137.229 8  89478985.14045  21851668.406                    21851676.703
 119391115.574 8  93032097.478 6  22719380.813                    22719391.266
 11  8 11  1 38 30.0000000  0  8G17G10G04G05G02G12G30G25
 126683431.849 7  98714436.326 6  24107049.305                    24107057.586
 111657092.367 8  87005682.29045  21247633.414                    21247640.773
 120423347.614 7  93836511.65844  22915784.391                    22915792.902
 109576998.921 8  85384696.613 7  20851779.719                    20851787.102
 109013700.060 8  84945880.59046  20744611.398                    20744616.664
 109288688.551 8  85160130.036 7  20796960.508                    20796967.508
 114777305.982 8  89437038.73045  21841425.250                    21841432.848
 119315120.573 7  92972880.600 6  22704919.352                    22704929.414
 11  8 11  1 39  0.0000000  0  8G17G10G04G05G02G12G30G25
 126751594.568 6  98767550.087 6  24120019.758                    24120028.578
 111705085.947 8  87043079.89246  21256766.078                    21256773.680
 120505960.872 7  93900885.59744  22931504.859                    22931513.652
 109519559.514 8  85339938.678 8  20840849.203                    20840856.699
 109033160.537 8  84961044.60346  20748314.594                    20748319.789
 109272551.417 8  85147555.636 7  20793889.969                    20793896.781
 114724013.743 7  89395512.33745  21831284.164                    21831292.152
 119239518.718 8  92913970.064 7  22690533.180                    22690542.824
 11  8 11  1 39 30.0000000  0  8G17G10G04G05G02G12G30G25
 126819940.983 6  98820807.002 6  24133025.867                    24133034.602
 111753641.400 8  87080915.30945  21266005.992                    21266013.438
 120588587.123 7  93965269.66544  22947228.156                    22947236.934
 109462621.751 8  85295571.620 7  20830014.320                    20830022.039
 109052819.956 8  84976363.62246  20752055.531                    20752060.629
 109256986.328 8  85135426.993 7  20790928.000                    20790934.621
 114671262.168 8  89354407.24145  21821245.648                    21821253.773
 119164312.342 7  92855367.700 6  22676221.609                    22676231.344
 11  8 11  1 40  0.0000000  0  8G17G10G04G05G02G12G30G25
 126888471.644 6  98874207.489 6  24146066.578                    24146076.539
 111802757.501 8  87119187.58545  21275352.313                    21275360.215
 120671225.407 7  94029663.10444  22962954.094                    22962962.457
 109406187.543 8  85251596.951 8  20819275.445                    20819282.578
 109072677.641 8  84991837.13946  20755834.359                    20755839.531
 109241994.039 8  85123744.686 7  20788074.797                    20788081.953
 114619053.448 8  89313725.14745  21811310.703                    21811318.289
 119089504.223 8  92797075.673 7  22661986.078                    22661996.406
 11  8 11  1 40 30.0000000  0  8G17G10G04G05G02G12G30G25
 126957186.594 6  98927751.519 6  24159142.422                    24159152.137
 111852431.838 8  87157894.85245  21284804.898                    21284812.691
 120753874.392 7  94094064.90144  22978681.070                    22978689.988
 109350258.548 8  85208015.953 7  20808632.031                    20808639.406
 109092732.458 8  85007464.27046  20759650.969                    20759655.758
 109227575.158 8  85112509.196 7  20785331.078                    20785338.125
 114567389.317 8  89273467.39445  21801479.125                    21801487.016
 119015096.719 7  92739095.838 7  22647826.422                    22647837.016
 11  8 11  1 41  0.0000000  0  8G17G10G04G05G02G12G30G25
 127026085.759 6  98981439.095 6  24172254.016                    24172263.184
 111902663.064 8  87197036.05345  21294363.492                    21294371.215
 120836533.305 7  94158474.41544  22994410.930                    22994419.230
 109294836.999 8  85164830.367 8  20798085.461                    20798093.203
 109112983.680 8  85023244.44546  20763504.469                    20763509.629
 109213730.881 8  85101721.445 7  20782696.594                    20782703.668
 114516271.996 8  89233635.73345  21791751.766                    21791759.730
 118941092.661 7  92681430.369 7  22633744.055                    22633754.926
 11  8 11  1 41 30.0000000  0  8G17G10G04G05G02G12G30G25
 127095169.015 6  99035270.149 6  24185399.766                    24185408.910
 111953448.360 8  87236609.00045  21304027.633                    21304035.563
 120919200.364 7  94222890.27544  23010141.898                    23010150.691
 109239924.075 8  85122041.112 8  20787636.102                    20787643.770
 109133429.454 8  85039176.22046  20767395.109                    20767400.371
 109200461.584 8  85091381.737 7  20780171.492                    20780178.609
 114465702.740 8  89194231.14945  21782128.664                    21782136.668
 118867493.898 7  92624080.726 7  22619738.367                    22619748.957
 11  8 11  1 42  0.0000000  0  8G17G10G04G05G02G12G30G25
 127164436.539 6  99089244.812 6  24198580.344                    24198590.273
 112004786.141 8  87276612.45845  21313796.977                    21313804.461
 121001874.770 7  94287311.87844  23025874.547                    23025882.855
 109185521.897 8  85079649.828 7  20777283.680                    20777291.137
 109154069.211 8  85055259.14446  20771322.539                    20771328.133
 109187768.136 8  85081490.733 7  20777755.836                    20777763.078
 114415683.631 8  89155255.23745  21772610.313                    21772618.547
 118794303.212 7  92567049.078 7  22605810.438                    22605821.402
 11  8 11  1 42 30.0000000  0  8G17G10G04G05G02G12G30G25
 127233888.226 7  99143363.011 6  24211798.219                    24211807.063
 112056674.213 7  87317044.72645  21323671.016                    21323678.957
 121084555.090 7  94351738.06444  23041607.883                    23041616.449
 109131631.960 8  85037657.704 7  20767028.734                    20767036.129
 109174901.230 8  85071491.88546  20775286.938                    20775291.887
 109175651.160 8  85072048.939 7  20775450.203                    20775457.316
 114366216.161 8  89116709.18645  21763196.805                    21763205.230
 118721522.737 7  92510337.076 7  22591961.234                    22591971.891
 11  8 11  1 43  0.0000000  0  8G17G10G04G05G02G12G30G25
 127303524.374 6  99197624.923 5  24225049.617                    24225057.035
 112109111.079 7  87357904.60945  21333649.539                    21333657.324
 121167240.599 7  94416168.31044  23057342.727                    23057351.098
 109078256.262 8  84996066.283 7  20756871.633                    20756879.172
 109195924.824 8  85087873.88746  20779287.508                    20779292.816
 109164111.440 8  85063056.956 7  20773254.336                    20773261.121
 114317302.386 8  89078594.59045  21753889.156                    21753897.277
 118649155.128 8  92453946.764 7  22578189.922                    22578200.211
 11  8 11  1 43 30.0000000  0  8G17G10G04G05G02G12G30G25
 127373344.646 6  99252030.372 5  24238335.320                    24238343.523
 112162094.036 7  87399190.04145  21343731.617                    21343739.004
 121249929.674 6  94480601.34044  23073077.898                    23073086.426
 109025396.080 8  84954876.564 7  20746812.602                    20746820.469
 109217138.628 7  85104404.12946  20783324.461                    20783329.621
 109153149.158 8  85054514.924 7  20771168.586                    20771175.156
 114268943.752 7  89040912.56245  21744687.063                    21744694.684
 118577202.569 7  92397879.881 7  22564498.023                    22564508.504
 11  8 11  1 44  0.0000000  0  9G17G10G04G29G05G02G12G30G25
 127443349.392 6  99306579.523 5  24251656.281                    24251665.734
 112215621.350 7  87440899.65145  21353917.859                    21353925.504
 121332621.724 7  94545036.67344  23088813.422                    23088822.160
 129560205.41116 100956052.73716  24654494.352                    24654503.418
 108973053.434 8  84914090.117 8  20736852.258                    20736859.875
 109238542.093 7  85121082.14746  20787397.281                    20787402.406
 109142765.095 8  85046423.452 7  20769192.305                    20769199.063
 114221142.296 8  89003664.70145  21735590.156                    21735598.676
 118505667.742 7  92342138.512 7  22550885.703                    22550895.832
 11  8 11  1 44 30.0000000  0  9G17G10G04G29G05G02G12G30G25
 127513538.636 6  99361272.446 6  24265013.258                    24265022.297
 112269691.482 7  87483032.21545  21364207.109                    21364214.570
 121415315.790 7  94609473.58344  23104550.375                    23104558.418
 129480387.157 6 100893856.703 6  24639305.078                    24639315.543
 108921230.339 8  84873708.510 7  20726990.289                    20726997.941
 109260134.253 7  85137907.20846  20791506.125                    20791511.641
 109132960.426 8  85038783.462 7  20767326.523                    20767333.340
 114173899.881 8  88966852.45345  21726600.070                    21726608.395
 118434553.240 7  92286724.674 7  22537352.445                    22537363.215
 11  8 11  1 45  0.0000000  0  9G17G10G04G29G05G02G12G30G25
 127583912.127 6  99416108.921 6  24278405.188                    24278413.852
 112324301.759 7  87525585.68245  21374598.844                    21374606.934
 121498010.389 6  94673910.90044  23120285.727                    23120294.445
 129400495.310 6 100831603.341 6  24624103.148                    24624112.488
 108869927.766 8  84833732.500 8  20717228.086                    20717235.172
 109281913.253 8  85154877.85346  20795650.484                    20795655.863
 109123735.392 8  85031595.128 7  20765571.039                    20765578.020
 114127217.609 8  88930476.67645  21717716.805                    21717725.133
 118363860.955 8  92231639.813 7  22523900.727                    22523911.129
 11  8 11  1 45 30.0000000  0  9G17G10G04G29G05G02G12G30G25
 127654470.004 6  99471089.031 6  24291831.898                    24291841.059
 112379450.154 7  87568558.45545  21385093.102                    21385100.891
 121580704.440 7  94738347.78644  23136021.828                    23136031.297
 129320530.452 6 100769293.093 6  24608885.750                    24608895.414
 108819147.545 8  84794163.523 7  20707564.773                    20707572.359
 109303878.299 8  85171993.47946  20799830.477                    20799835.734
 109115089.781 8  85024858.291 7  20763925.703                    20763932.805
 114081097.393 8  88894538.85645  21708940.758                    21708948.324
 118293593.423 7  92176885.933 7  22510529.039                    22510539.414
 11  8 11  1 46  0.0000000  0  9G17G10G04G29G05G02G12G30G25
 127725212.026 6  99526212.640 6  24305293.813                    24305302.586
 112435134.489 8  87611948.83945  21395689.648                    21395697.359
 121663396.878 7  94802783.41944  23151758.320                    23151766.543
 129240493.311 6 100706926.584 6  24593656.023                    24593665.344
 108768891.560 8  84755003.047 8  20698001.555                    20698008.910
 109326028.340 8  85189253.25246  20804045.336                    20804050.887
 109107024.493 8  85018573.659 7  20762391.477                    20762397.719
 114035540.827 8  88859040.24645  21700271.445                    21700278.965
 118223752.998 7  92122464.862 7  22497238.867                    22497248.699
 11  8 11  1 46 30.0000000  0  9G17G10G04G29G05G02G12G30G25
 127796138.662 6  99581480.092 6  24318790.406                    24318799.617
 112491352.784 7  87655755.29845  21406387.609                    21406395.438
 121746087.031 7  94867217.27244  23167493.266                    23167502.426
 129160384.285 6 100644504.001 5  24578411.648                    24578420.688
 108719161.118 8  84716252.081 8  20688538.273                    20688545.863
 109348362.635 8  85206656.60146  20808295.578                    20808300.676
 109099540.598 8  85012742.057 7  20760967.250                    20760974.234
 113990549.728 7  88823982.25445  21691709.883                    21691718.098
 118154342.209 7  92068378.568 7  22484030.633                    22484040.672
 11  8 11  1 47  0.0000000  0  9G17G10G04G29G05G02G12G30G25
 127867249.219 7  99636890.904 6  24332322.586                    24332331.500
 112548102.890 7  87699976.16145  21417186.992                    21417194.367
 121828773.712 7  94931648.40844  23183228.016                    23183237.395
 129080204.228 6 100582026.084 5  24563153.391                    24563163.141
 108669957.861 8  84677911.916 8  20679174.883                    20679182.387
 109370879.741 8  85224202.40346  20812580.609                    20812585.246
 109092638.596 8  85007363.887 7  20759653.703                    20759660.566
 113946125.530 7  88789366.00945  21683256.078                    21683264.168
 118085363.317 7  92014628.813 7  22470903.805                    22470914.113
 11  8 11  1 47 30.0000000  0  9G17G10G04G29G05G02G12G30G25
 127938544.076 7  99692445.287 6  24345889.563                    24345898.645
 112605382.647 7  87744609.74945  21428086.656                    21428094.680
 121911455.606 7  94996075.85044  23198961.828                    23198971.113
 128999953.470 6 100519493.093 5  24547882.023                    24547890.574
 108621283.154 8  84639983.611 8  20669912.391                    20669920.125
 109393578.638 8  85241889.86246  20816899.695                    20816904.809
 109086318.527 8  85002439.158 7  20758450.875                    20758457.801
 113902269.799 8  88755192.72945  21674910.406                    21674918.816
 118016818.570 7  91961217.375 7  22457859.914                    22457870.824
 11  8 11  1 48  0.0000000  0  9G17G10G04G29G05G02G12G30G25
 128010023.227 7  99748143.282 6  24359491.055                    24359501.293
 112663189.710 7  87789654.22545  21439087.602                    21439094.816
 121994132.079 7  95060499.03844  23214694.852                    23214703.164
 128919632.386 7 100456905.258 6  24532597.820                    24532606.695
 108573139.055 8  84602468.760 8  20660750.828                    20660758.375
 109416458.667 8  85259718.46146  20821253.688                    20821259.023
 109080580.558 8  84997968.019 7  20757359.031                    20757366.262
 113858984.151 8  88721463.65945  21666673.867                    21666681.852
 117948710.453 7  91908146.140 7  22444899.930                    22444909.703
 11  8 11  1 48 30.0000000  0  9G17G10G04G29G05G02G12G30G25
 128081686.262 6  99803984.569 6  24373127.414                    24373137.711
 112721522.174 7  87835108.09045  21450187.328                    21450195.250
 122076801.740 7  95124916.92744  23230426.672                    23230435.078
 128839241.998 7 100394263.432 6  24517299.836                    24517308.883
 108525526.452 8  84565368.057 8  20651690.383                    20651697.801
 109439518.410 8  85277687.10246  20825641.578                    20825646.797
 109075425.135 8  84993950.807 7  20756377.805                    20756384.566
 113816270.013 8  88688179.92345  21658545.461                    21658553.109
 117881041.082 7  91855416.763 7  22432022.609                    22432032.680
 11  8 11  1 49  0.0000000  0  9G17G10G04G29G05G02G12G30G25
 128153533.066 6  99859969.070 5  24386800.242                    24386808.242
 112780377.330 7  87880969.26345  21461387.391                    21461395.109
 122159463.817 7  95189328.89844  23246156.430                    23246165.273
 128758782.433 7 100331567.735 6  24501988.320                    24501998.691
 108478447.045 8  84528682.843 8  20642731.508                    20642738.719
 109462756.471 8  85295794.68946  20830063.711                    20830069.055
 109070853.042 8  84990388.140 7  20755507.789                    20755514.586
 113774128.705 8  88655342.54745  21650526.734                    21650534.391
 117813812.649 7  91803031.000 7  22419228.789                    22419239.309
 11  8 11  1 49 30.0000000  0  9G17G10G04G29G05G02G12G30G25
 128225563.941 6  99916097.039 5  24400506.914                    24400515.574
 112839753.003 7  87927236.02245  21472685.836                    21472693.824
 122242117.061 7  95253733.99844  23261885.305                    23261894.141
 128678254.440 6 100268818.664 5  24486664.898                    24486673.254
 108431902.276 8  84492414.222 7  20633874.484                    20633881.832
 109486172.093 8  85314040.64146  20834519.664                    20834525.141
 109066864.091 8  84987279.870 7  20754748.680                    20754755.512
 113732561.653 8  88622952.65045  21642616.508                    21642623.902
 117747027.504 7  91750990.666 7  22406520.430                    22406530.488
 11  8 11  1 50  0.0000000  0  9G17G10G04G29G05G02G12G30G25
 128297778.801 6  99972368.341 6  24414248.945                    24414258.617
 112899647.469 7  87973907.04545  21484083.453                    21484091.406
 122324760.856 7  95318131.72744  23277611.578                    23277620.648
 128597658.789 6 100206016.902 6  24471328.688                    24471336.867
 108385893.774 8  84456563.478 8  20625119.383                    20625126.398
 109509764.699 8  85332424.49146  20839009.195                    20839014.375
 109063458.664 8  84984626.288 7  20754100.969                    20754107.457
 113691570.707 8  88591011.66445  21634815.906                    21634823.629
 117680688.144 7  91699297.679 7  22393896.477                    22393906.777
 11  8 11  1 50 30.0000000  0  9G17G10G04G29G05G02G12G30G25
 128370177.316 6 100028782.728 6  24428025.781                    24428035.242
 112960057.970 7  88020980.17745  21495579.094                    21495586.895
 122407394.078 7  95382521.21744  23293336.609                    23293344.766
 128516995.897 6 100143162.742 6  24455978.109                    24455987.016
 108340422.534 8  84421131.354 8  20616466.344                    20616473.738
 109533532.743 8  85350945.06146  20843531.922                    20843537.691
 109060637.155 8  84982427.716 7  20753563.844                    20753570.824
 113651157.039 8  88559520.49345  21627125.352                    21627133.574
 117614796.591 7  91647953.638 7  22381358.273                    22381368.402
 11  8 11  1 51  0.0000000  0  9G17G10G04G29G05G02G12G30G25
 128442759.436 6 100085340.220 6  24441839.641                    24441846.520
 113020982.034 7  88068453.48645  21507172.492                    21507180.359
 122490015.619 6  95446901.61244  23309059.414                    23309067.594
 128436266.210 6 100080256.539 6  24440615.828                    24440625.141
 108295489.876 8  84386118.914 8  20607915.852                    20607923.563
 109557475.207 8  85369601.52146  20848088.219                    20848093.316
 109058399.967 8  84980684.448 7  20753138.281                    20753145.164
 113611322.011 8  88528480.22545  21619545.273                    21619552.914
 117549355.101 7  91596960.280 7  22368904.813                    22368915.688
 11  8 11  1 51 30.0000000  0  9G17G10G04G29G05G02G12G30G25
 128515525.252 6 100142040.843 6  24455685.844                    24455694.297
 113082417.736 7  88116325.48145  21518863.242                    21518871.379
 122572624.774 6  95511272.34044  23324778.516                    23324787.301
 128355470.614 6 100017298.969 5  24425240.141                    24425250.301
 108251097.648 8  84351527.586 8  20599468.344                    20599475.934
 109581591.353 8  85388393.33246  20852677.461                    20852682.797
 109056747.233 8  84979396.608 7  20752823.648                    20752830.441
 113572067.203 8  88497892.06845  21612075.461                    21612083.121
 117484366.128 7  91546319.549 7  22356537.672                    22356548.094
 11  8 11  1 52  0.0000000  0  9G17G10G04G29G05G02G12G30G25
 128588474.288 7 100198884.227 6  24469567.023                    24469576.559
 113144362.591 7  88164594.21145  21530651.438                    21530658.941
 122655220.447 6  95575632.58944  23340496.648                    23340504.578
 128274609.852 6  99954290.598 5  24409853.555                    24409863.238
 108207247.050 8  84317358.312 7  20591123.461                    20591131.238
 109605879.945 8  85407319.51546  20857299.219                    20857305.004
 109055678.925 8  84978564.157 7  20752619.828                    20752627.059
 113533393.818 7  88467756.98245  21604716.305                    21604723.625
 117419831.678 7  91496032.978 7  22344257.523                    22344267.680
 11  8 11  1 52 30.0000000  0  9G17G10G04G29G05G02G12G30G25
 128661606.634 7 100255870.486 6  24483484.297                    24483493.395
 113206814.027 7  88213257.67745  21542535.164                    21542542.859
 122737801.559 7  95639981.48344  23356211.195                    23356219.031
 128193684.317 6  99891231.750 5  24394453.695                    24394462.719
 108163939.104 8  84283611.879 8  20582882.695                    20582890.008
 109630339.783 8  85426379.13046  20861953.891                    20861958.840
 109055195.170 8  84978187.203 7  20752528.250                    20752534.762
 113495302.931 7  88438075.78545  21597467.711                    21597475.563
 117355753.790 7  91446102.165 7  22332063.578                    22332073.625
 11  8 11  1 53  0.0000000  0  9G17G10G04G29G05G02G12G30G25
 128734922.147 6 100312999.468 6  24497434.844                    24497443.801
 113269769.993 7  88262314.29945  21554515.430                    21554523.180
 122820367.488 7  95704318.54544  23371922.414                    23371931.527
 128112694.711 6  99828122.954 6  24379042.609                    24379051.066
 108121175.427 8  84250289.564 8  20574744.891                    20574752.492
 109654970.273 8  85445571.71446  20866641.406                    20866646.098
 109055296.611 8  84978266.239 7  20752547.563                    20752554.535
 113457796.191 7  88408849.78345  21590330.484                    21590337.914
 117292135.006 7  91396529.110 7  22319957.133                    22319967.910
 11  8 11  1 53 30.0000000  0  9G17G10G04G29G05G02G12G30G25
 128808421.141 6 100370271.409 6  24511421.641                    24511431.121
 113333228.449 7  88311762.44445  21566590.852                    21566599.043
 122902917.685 7  95768643.33944  23387631.688                    23387640.156
 128031641.957 7  99764965.026 6  24363618.031                    24363627.504
 108078957.611 8  84217392.592 8  20566711.211                    20566718.219
 109679770.816 8  85464896.81246  20871360.242                    20871365.410
 109055983.750 8  84978801.665 7  20752678.477                    20752685.609
 113420875.350 7  88380080.31145  21583304.813                    21583312.574
 117228977.913 7  91347315.804 7  22307938.820                    22307949.523
 11  8 11  1 54  0.0000000  0  8G10G04G29G05G02G12G30G25
 113397186.970 7  88361600.27045  21578762.148                    21578769.961
 122985450.929 6  95832954.92744  23403337.016                    23403346.156
 127950527.092 7  99701758.669 6  24348181.945                    24348192.090
 108037286.743 8  84184921.813 8  20558781.313                    20558788.699
 109704739.988 8  85484353.31846  20876111.727                    20876116.922
 109057255.916 8  84979792.952 7  20752920.555                    20752927.578
 113384541.352 8  88351768.10845  21576390.586                    21576398.320
 117166284.369 7  91298463.702 7  22296008.547                    22296019.223
 11  8 11  1 54 30.0000000  0  8G10G04G29G05G02G12G30G25
 113461642.463 7  88411825.34245  21591027.758                    21591034.871
 123067965.870 6  95897252.26044  23419039.047                    23419047.891
 127869350.116 7  99638503.888 6  24332735.141                    24332744.223
 107996163.288 8  84152877.602 8  20550955.664                    20550962.742
 109729876.183 8  85503939.96446  20880895.320                    20880900.766
 109059112.994 8  84981240.011 7  20753273.742                    20753280.699
 113348794.748 7  88323913.61545  21569587.641                    21569595.406
 117104055.940 7  91249974.024 7  22284167.359                    22284177.844
 11  8 11  1 55  0.0000000  0  8G10G04G29G05G02G12G30G25
 113526592.475 7  88462435.75645  21603387.297                    21603394.504
 123150461.608 6  95961534.63344  23434737.664                    23434746.551
 127788111.525 7  99575201.130 6  24317276.250                    24317285.207
 107955588.555 8  84121260.957 8  20543234.781                    20543242.441
 109755178.452 8  85523656.01846  20885710.117                    20885715.148
 109061554.861 8  84983142.763 7  20753738.273                    20753745.422
 113313636.816 8  88296517.82545  21562897.656                    21562905.270
 117042294.815 7  91201848.497 7  22272414.469                    22272424.727
 11  8 11  1 55 30.0000000  0  8G10G04G29G05G02G12G30G25
 113592035.331 7  88513430.21345  21615840.375                    21615847.766
 123232938.009 6  96025801.93243  23450432.063                    23450440.930
 127706812.639 7  99511851.399 6  24301805.211                    24301814.730
 107915564.454 8  84090073.373 8  20535618.250                    20535625.848
 109780646.799 8  85543501.48546  20890556.531                    20890561.750
 109064582.661 8  84985502.076 7  20754314.578                    20754321.824
 113279069.453 8  88269582.23345  21556319.438                    21556327.496
 116981003.778 7  91154089.266 7  22260750.547                    22260761.215
 11  8 11  1 56  0.0000000  0  8G10G04G29G05G02G12G30G25
 113657968.092 7  88564806.42245  21628386.891                    21628394.523
 123315393.607 6  96090053.01744  23466123.664                    23466131.980
 127625453.445 6  99448454.693 6  24286322.297                    24286332.266
 107876091.568 8  84059315.311 8  20528106.594                    20528113.961
 109806279.257 8  85563474.84646  20895434.203                    20895439.535
 109068195.299 8  84988317.099 7  20755002.281                    20755009.355
 113245093.179 7  88243107.22445  21549854.109                    21549861.945
 116920184.343 7  91106697.532 7  22249177.156                    22249187.793
 11  8 11  1 56 30.0000000  0  8G10G04G29G05G02G12G30G25
 113724388.171 7  88616562.34545  21641026.258                    21641034.012
 123397827.474 7  96154287.17344  23481809.586                    23481818.539
 127544034.950 6  99385011.776 6  24270829.508                    24270838.609
 107837171.226 8  84028987.810 8  20520700.500                    20520707.809
 109832074.944 8  85583575.37846  20900342.930                    20900347.996
 109072392.974 8  84991588.000 7  20755800.883                    20755807.750
 113211709.309 7  88217093.82245  21543501.273                    21543509.246
 116859838.749 8  91059675.017 7  22237694.273                    22237704.734
 11  8 11  1 57  0.0000000  0  8G10G04G29G05G02G12G30G25
 113791293.260 7  88668696.18645  21653758.094                    21653765.578
 123480238.987 6  96218503.93544  23497491.422                    23497500.988
 127462558.006 6  99321523.307 6  24255325.078                    24255334.125
 107798804.318 8  83999091.550 8  20513399.641                    20513406.684
 109858033.088 8  85603802.49746  20905282.406                    20905287.570
 109077175.590 8  84995314.698 7  20756711.039                    20756718.027
 113178918.853 8  88191542.81246  21537261.719                    21537269.754
 116799969.033 8  91013023.317 7  22226301.266                    22226311.332
 11  8 11  1 57 30.0000000  0  8G10G04G29G05G02G12G30G25
 113858681.178 7  88721206.26345  21666581.328                    21666589.082
 123562627.648 7  96282702.87344  23513169.977                    23513178.781
 127381023.696 6  99257990.156 6  24239809.336                    24239818.961
 107760992.355 8  83969627.711 8  20506204.258                    20506211.398
 109884153.232 8  85624155.85446  20910252.820                    20910258.555
 109082543.818 8  84999497.727 7  20757732.609                    20757739.457
 113146723.330 7  88166455.39546  21531135.219                    21531143.277
 116740577.683 7  90966744.378 7  22214999.344                    22215009.590
 11  8 11  1 58  0.0000000  0  8G10G04G29G05G02G12G30G25
 113926548.172 7  88774089.64845  21679495.945                    21679503.738
 123644991.604 7  96346882.55544  23528843.516                    23528852.336
 127299431.979 7  99194412.238 6  24224283.477                    24224292.332
 107723735.563 8  83940596.469 8  20499114.117                    20499121.723
 109910432.965 7  85644633.56146  20915253.781                    20915258.965
 109088496.035 8  85004135.799 7  20758865.398                    20758872.512
 113115122.757 7  88141831.57845  21525121.766                    21525129.715
 116681665.774 7  90920839.032 7  22203788.492                    22203798.602
 11  8 11  1 58 30.0000000  0  8G10G04G29G05G02G12G30G25
 113994893.036 7  88827345.39145  21692501.492                    21692508.988
 123727330.996 6  96411043.06843  23544511.789                    23544521.082
 127217784.377 6  99130790.793 6  24208746.305                    24208755.141
 107687035.804 8  83911999.279 8  20492130.695                    20492137.852
 109936872.823 8  85665236.05546  20920285.188                    20920290.195
 109095033.350 8  85009229.799 7  20760109.305                    20760116.715
 113084119.292 7  88117673.02546  21519222.203                    21519229.977
 116623236.375 7  90875309.661 7  22192669.984                    22192679.973
 11  8 11  1 59  0.0000000  0  8G10G04G29G05G02G12G30G25
 114063713.054 7  88880971.39645  21705597.719                    21705605.348
 123809644.932 6  96475183.81244  23560176.336                    23560184.898
 127136081.358 6  99067126.196 6  24193198.414                    24193207.172
 107650893.854 8  83883836.748 8  20485252.773                    20485260.242
 109963471.341 8  85685962.17646  20925346.484                    20925352.012
 109102155.475 8  85014779.490 7  20761464.547                    20761471.766
 113053713.609 7  88093980.28746  21513435.398                    21513443.328
 116565291.225 7  90830157.642 7  22181643.859                    22181653.734
 11  8 11  1 59 30.0000000  0  8G10G04G29G05G02G12G30G25
 114133005.134 7  88934965.23045  21718783.711                    21718790.973
 123891932.350 6  96539303.85744  23575834.422                    23575843.910
 127054323.685 6  99003418.968 5  24177640.227                    24177648.875
 107615310.479 8  83856109.469 8  20478481.766                    20478489.230
 109990227.381 8  85706811.02646  20930438.383                    20930443.609
 109109861.796 8  85020784.401 7  20762931.250                    20762938.141
 113023906.515 7  88070753.98846  21507763.828                    21507771.641
 116507832.083 8  90785384.318 7  22170709.469                    22170719.504
 11  8 11  2  0  0.0000000  0  8G10G04G29G05G02G12G30G25
 114202767.322 7  88989325.39245  21732058.406                    21732065.828
 123974192.854 6  96603402.93444  23591488.344                    23591497.840
 126972512.307 6  98939669.934 6  24162071.852                    24162080.941
 107580287.037 8  83828818.509 8  20471816.758                    20471823.953
 110017140.478 8  85727782.27046  20935559.711                    20935564.855
 109118152.562 8  85027244.725 7  20764508.813                    20764515.887
 112994699.083 7  88047994.95246  21502205.727                    21502213.684
 116450861.145 8  90740991.411 7  22159868.203                    22159878.137
 11  8 11  2  0 30.0000000  0  8G10G04G29G05G02G12G30G25
 114272997.308 7  89044050.06145  21745422.820                    21745430.434
 124056425.515 6  96667480.31244  23607136.672                    23607146.090
 126890648.088 6  98875879.698 6  24146493.516                    24146503.051
 107545824.733 8  83801964.804 8  20465258.938                    20465266.359
 110044209.814 8  85748875.24546  20940710.828                    20940715.695
 109127027.340 8  85034160.126 7  20766197.617                    20766204.621
 112966092.531 7  88025704.13546  21496762.258                    21496769.809
 116394380.649 8  90696980.673 7  22149119.852                    22149129.844
 11  8 11  2  1  0.0000000  0  8G10G04G29G05G02G12G30G25
 114343691.834 7  89099136.71845  21758875.695                    21758883.211
 124138629.423 7  96731535.30343  23622778.992                    23622788.484
 126808731.497 6  98812048.651 6  24130905.633                    24130914.516
 107511923.792 8  83775548.518 8  20458807.734                    20458815.113
 110071433.932 8  85770088.83346  20945891.211                    20945896.477
 109136485.652 8  85041530.230 7  20767997.492                    20768004.340
 112938087.379 8  88003881.93946  21491433.016                    21491441.078
 116338392.104 8  90653353.254 7  22138466.039                    22138475.453
 11  8 11  2  1 30.0000000  0  8G10G04G29G05G02G12G30G25
 114414848.375 7  89154583.37645  21772416.383                    21772423.797
 124220803.806 7  96795567.26443  23638416.898                    23638425.828
 126726763.397 6  98748177.427 6  24115307.328                    24115316.957
 107478585.455 8  83749570.627 8  20452463.516                    20452470.785
 110098812.018 8  85791422.39446  20951100.977                    20951106.449
 109146527.528 8  85049355.070 7  20769908.266                    20769915.672
 112910684.507 7  87982529.05946  21486218.609                    21486226.293
 116282897.633 8  90610110.835 7  22127905.500                    22127915.441
 11  8 11  2  2  0.0000000  0  8G10G04G29G05G02G12G30G25
 114486464.085 7  89210387.82145  21786044.477                    21786052.168
 124302947.850 7  96859575.57843  23654048.758                    23654057.563
 126644744.658 6  98684266.761 6  24099699.344                    24099709.004
 107445810.315 8  83724031.588 8  20446226.719                    20446234.113
 110126343.005 8  85812875.09146  20956340.281                    20956345.555
 109157152.365 8  85057634.159 7  20771930.172                    20771937.566
 112883884.698 8  87961646.09746  21481118.766                    21481126.949
 116227898.982 8  90567254.766 7  22117439.523                    22117449.008
 11  8 11  2  2 30.0000000  0  8G10G04G29G05G02G12G30G25
 114558536.504 7  89266548.13045  21799759.727                    21799767.172
 124385060.794 7  96923559.68043  23669674.516                    23669682.820
 126562675.733 6  98620316.922 6  24084082.172                    24084091.789
 107413598.761 8  83698931.708 8  20440096.922                    20440104.746
 110154025.546 8  85834445.88146  20961607.805                    20961613.277
 109168359.490 8  85066366.983 7  20774062.859                    20774069.980
 112857688.428 8  87941233.43646  21476133.766                    21476141.695
 116173397.662 8  90524786.211 7  22107068.648                    22107078.461
 11  8 11  2  3  0.0000000  0  8G10G04G29G05G02G12G30G25
 114631063.429 7  89323062.61645  21813560.734                    21813568.465
 124467141.760 7  96987518.87943  23685293.375                    23685301.902
 126480557.904 6  98556328.999 6  24068456.164                    24068465.273
 107381952.007 8  83674271.921 8  20434074.773                    20434082.180
 110181859.036 8  85856134.30246  20966904.414                    20966909.813
 109180148.572 8  85075553.279 7  20776306.172                    20776313.277
 112832096.846 8  87921291.96146  21471263.461                    21471271.727
 116119396.008 8  90482707.017 7  22096792.188                    22096802.117
 11  8 11  2  3 30.0000000  0  8G10G04G29G05G02G12G30G25
 114704042.705 7  89379929.59245  21827448.430                    21827456.195
 124549191.019 7  97051453.34244  23700907.086                    23700916.301
 126398392.596 7  98492304.058 6  24052820.602                    24052829.500
 107350871.531 8  83650053.391 8  20428160.492                    20428167.547
 110209843.924 8  85877940.68446  20972229.977                    20972235.055
 109192520.367 8  85085193.640 7  20778660.172                    20778667.246
 112807111.341 8  87901822.74646  21466508.867                    21466517.148
 116065896.495 8  90441019.095 7  22086611.563                    22086621.898
 11  8 11  2  4  0.0000000  0  8G10G04G29G05G02G12G30G25
 114777470.634 8  89437146.16545  21841421.320                    21841429.344
 124631206.862 7  97115361.76943  23716514.289                    23716523.313
 126316179.861 7  98428242.184 6  24037175.859                    24037185.004
 107320357.331 8  83626276.100 8  20422353.711                    20422360.957
 110237977.813 8  85899863.17546  20977583.586                    20977588.586
 109205473.258 8  85095286.802 7  20781125.383                    20781132.543
 112782731.791 8  87882825.71446  21461869.969                    21461877.340
 116012900.100 8  90399723.222 7  22076526.578                    22076536.984
 11  8 11  2  4 30.0000000  0  8G10G04G29G05G02G12G30G25
 114851344.630 7  89494710.31745  21855478.648                    21855486.320
 124713188.378 7  97179243.43943  23732115.172                    23732124.145
 126233920.446 7  98364143.945 6  24021522.633                    24021532.234
 107290410.233 8  83602940.720 8  20416654.828                    20416662.277
 110266259.527 7  85921900.86246  20982965.453                    20982971.023
 109219006.645 8  85105832.290 7  20783700.523                    20783707.488
 112758958.856 8  87864301.36046  21457345.781                    21457353.844
 115960408.618 8  90358820.766 7  22066537.695                    22066548.086
 11  8 11  2  5  0.0000000  0  8G10G04G29G05G02G12G30G25
 114925662.239 8  89552620.14445  21869621.266                    21869628.328
 124795135.506 7  97243098.33843  23747709.078                    23747717.875
 126151615.500 7  98300010.222 6  24005860.867                    24005869.859
 107261031.125 8  83580047.926 8  20411064.242                    20411071.660
 110294688.890 8  85944053.60046  20988375.406                    20988380.855
 109233120.538 8  85116830.125 7  20786386.422                    20786393.730
 112735793.527 8  87846250.47045  21452937.563                    21452945.602
 115908424.222 8  90318313.440 7  22056645.492                    22056655.406
 11  8 11  2  5 30.0000000  0  8G10G04G29G05G02G12G30G25
 115000420.881 7  89610873.63645  21883847.563                    21883854.613
 124877047.616 7  97306925.94843  23763295.984                    23763304.715
 126069266.384 7  98235842.086 6  23990190.234                    23990198.973
 107232220.813 8  83557598.351 8  20405581.820                    20405589.199
 110323265.469 8  85966321.04546  20993813.453                    20993818.586
 109247814.681 8  85128280.097 7  20789182.617                    20789189.527
 112713236.626 8  87828673.67545  21448645.117                    21448652.883
 115856948.881 8  90278202.792 7  22046850.250                    22046860.094
 11  8 11  2  6  0.0000000  0  8G10G04G29G05G02G12G30G25
 115075618.102 7  89669468.85745  21898157.016                    21898164.563
 124958924.050 7  97370725.74143  23778877.039                    23778885.645
 125986873.540 6  98171639.891 6  23974511.117                    23974520.301
 107203979.970 8  83535592.511 8  20400207.563                    20400214.793
 110351988.008 8  85988702.21746  20999278.992                    20999284.504
 109263088.461 8  85140181.745 7  20792089.383                    20792096.293
 112691288.777 8  87811571.46746  21444468.195                    21444476.371
 115805984.331 8  90238490.155 7  22037152.125                    22037161.738
 11  8 11  2  6 30.0000000  0  8G10G04G29G05G02G12G30G25
 115151250.951 7  89728403.52445  21912549.414                    21912557.207
 125040763.944 7  97434497.11043  23794449.711                    23794459.547
 125904437.979 6  98107404.416 6  23958824.000                    23958832.414
 107176309.112 8  83514030.829 8  20394942.336                    20394949.621
 110380855.520 8  86011196.37446  21004772.516                    21004777.676
 109278941.076 8  85152534.429 7  20795105.789                    20795112.875
 112669950.528 8  87794944.27045  21440407.891                    21440415.914
 115755532.263 8  90199176.851 7  22027551.063                    22027561.191
 11  8 11  2  7  0.0000000  0  8G10G04G29G05G02G12G30G25
 115227316.934 7  89787675.71145  21927024.008                    21927031.859
 125122566.831 7  97498239.59843  23810016.570                    23810025.621
 125821960.979 6  98043136.682 6  23943128.500                    23943137.922
 107149208.932 8  83492913.822 8  20389785.055                    20389792.473
 110409867.508 8  86033803.09746  21010293.438                    21010299.074
 109295372.327 8  85165337.993 7  20798232.523                    20798239.609
 112649222.565 8  87778792.62246  21436463.648                    21436471.648
 115705594.667 8  90160264.451 7  22018048.250                    22018058.715
 11  8 11  2  7 30.0000000  0  8G10G04G29G05G02G12G30G25
 115303813.357 8  89847283.31345  21941580.891                    21941588.816
 125204331.935 7  97561952.63443  23825576.813                    23825584.109
 125739443.264 6  97978837.224 6  23927426.195                    23927435.195
 107122680.033 8  83472241.980 8  20384736.859                    20384743.953
 110439022.702 8  86056521.40846  21015841.102                    21015846.754
 109312381.117 8  85178591.595 7  20801469.273                    20801476.387
 112629105.116 8  87763116.69345  21432635.203                    21432643.500
 115656172.786 8  90121753.906 7  22008643.938                    22008653.793
 11  8 11  2  8  0.0000000  0  8G10G04G29G05G02G12G30G25
 115380737.487 7  89907224.18645  21956219.094                    21956226.875
 125286058.716 6  97625635.84443  23841128.531                    23841136.922
 125656886.064 6  97914506.983 6  23911715.969                    23911725.625
 107096723.015 8  83452015.759 8  20379797.695                    20379804.777
 110468320.773 8  86079351.06046  21021416.688                    21021421.844
 109329967.158 8  85192294.980 7  20804815.750                    20804822.691
 112609598.955 8  87747917.09145  21428923.648                    21428931.227
 115607268.746 8  90083646.878 7  21999337.703                    21999347.793
 11  8 11  2  8 30.0000000  0  8G10G04G29G05G02G12G30G25
 115458086.237 7  89967495.92545  21970937.898                    21970945.938
 125367746.189 6  97689288.41944  23856673.000                    23856681.719
 125574289.606 6  97850146.138 6  23895998.828                    23896007.816
 107071338.011 8  83432235.276 8  20374966.703                    20374973.816
 110497759.997 8  86102290.70446  21027018.453                    21027023.953
 109348129.504 8  85206447.449 7  20808271.953                    20808279.000
 112590704.169 8  87733193.88446  21425328.063                    21425336.109
 115558883.774 8  90045944.318 7  21990130.016                    21990140.184
 11  8 11  2  9  0.0000000  0  8G10G04G29G05G02G12G30G25
 115535856.968 7  90028096.49645  21985737.289                    21985745.160
 125449393.987 6  97752910.06443  23872210.641                    23872218.629
 125491655.138 6  97785755.732 6  23880273.195                    23880282.781
 107046525.771 8  83412901.089 8  20370245.414                    20370252.469
 110527340.082 8  86125340.11746  21032647.453                    21032653.078
 109366867.698 8  85221048.636 7  20811837.516                    20811844.926
 112572421.485 8  87718947.63246  21421849.141                    21421856.848
 115511019.691 8  90008647.637 7  21981021.617                    21981032.207
 11  8 11  2  9 30.0000000  0  8G10G04G29G05G02G12G30G25
 115614047.069 7  90089023.83245  22000616.641                    22000624.141
 125531001.466 6  97816500.30743  23887739.789                    23887748.719
 125408983.809 6  97721336.562 6  23864542.070                    23864550.254
 107022286.864 8  83394013.667 8  20365633.055                    20365639.953
 110557060.085 8  86148498.56846  21038303.133                    21038308.531
 109386180.701 8  85236097.727 7  20815512.938                    20815519.719
 112554751.394 8  87705178.72446  21418486.648                    21418494.594
 115463678.321 8  89971758.283 7  21972012.836                    21972023.293
 11  8 11  2 10  0.0000000  0  8G10G04G29G05G02G12G30G25
 115692653.396 7  90150275.50245  22015574.805                    22015582.461
 125612567.823 6  97880058.50243  23903261.789                    23903269.996
 125326276.504 7  97656889.380 6  23848803.117                    23848811.895
 106998621.515 8  83375573.161 8  20361129.391                    20361136.465
 110586918.872 8  86171765.15546  21043984.828                    21043989.957
 109406067.849 8  85251594.204 7  20819297.414                    20819304.402
 112537693.861 8  87691887.13746  21415240.477                    21415248.547
 115416860.886 8  89935277.172 7  21963103.984                    21963113.887
 11  8 11  2 10 30.0000000  0  8G10G04G29G05G02G12G30G25
 115771673.712 7  90211849.73945  22030611.789                    22030619.629
 125694092.756 6  97943584.43343  23918774.781                    23918784.031
 125243534.188 7  97592414.898 6  23833058.195                    23833066.715
 106975530.489 8  83357580.194 8  20356734.828                    20356742.313
 110616916.133 8  86195139.64746  21049693.367                    21049698.563
 109426528.612 8  85267537.652 7  20823191.063                    20823197.828
 112521249.686 8  87679073.48746  21412111.367                    21412118.977
 115370569.383 8  89899205.889 7  21954295.148                    21954305.309
 11  8 11  2 11  0.0000000  0  8G10G04G29G05G02G12G30G25
 115851105.173 7  90273744.36945  22045727.117                    22045734.441
 125775575.808 6  98007077.68543  23934280.320                    23934289.320
 125160758.153 7  97527914.134 6  23817306.125                    23817314.848
 106953014.263 8  83340035.122 8  20352450.375                    20352457.344
 110647051.142 8  86218621.48146  21055427.828                    21055432.984
 109447562.148 8  85283927.430 7  20827193.438                    20827200.438
 112505419.324 8  87666738.13146  21409098.695                    21409106.234
 115324805.491 8  89863545.719 7  21945586.789                    21945596.457
 11  8 11  2 11 30.0000000  0  8G10G04G29G05G02G12G30G25
 115930945.244 7  90335957.39745  22060920.375                    22060927.492
 125857016.310 7  98070537.80843  23949777.859                    23949787.047
 125077949.286 7  97463387.762 6  23801548.141                    23801556.469
 106931072.944 8  83322938.030 8  20348275.148                    20348282.164
 110677322.909 8  86242209.87946  21061188.367                    21061193.715
 109469167.438 8  85300762.721 7  20831304.836                    20831311.703
 112490203.010 8  87654881.25646  21406202.898                    21406210.922
 115279570.696 8  89828297.856 7  21936978.898                    21936988.520
 11  8 11  2 12  0.0000000  0  8G10G04G29G05G02G12G30G25
 116011190.743 7  90398486.35145  22076190.344                    22076198.012
 125938413.683 7  98133964.31043  23965267.461                    23965276.840
 124995108.428 7  97398836.494 6  23785783.914                    23785792.887
 106909706.829 8  83306289.139 8  20344209.328                    20344216.449
 110707730.558 8  86265904.14946  21066974.820                    21066980.344
 109491343.843 8  85318043.033 7  20835524.680                    20835531.852
 112475601.055 8  87643503.10146  21403424.531                    21403432.047
 115234866.559 8  89793463.488 7  21928471.578                    21928481.941
 11  8 11  2 12 30.0000000  0  8G10G04G29G05G02G12G30G25
 116091838.413 7  90461328.68945  22091536.805                    22091544.852
 126019767.086 6  98197356.57043  23980748.781                    23980756.969
 124912236.121 7  97334260.720 6  23770014.023                    23770022.801
 106888916.263 8  83290088.713 8  20340253.156                    20340259.840
 110738272.799 8  86289703.29746  21072786.914                    21072792.055
 109514090.094 8  85335767.389 7  20839853.313                    20839860.266
 112461613.250 8  87632603.50346  21400762.664                    21400770.266
 115190694.177 8  89759043.477 7  21920066.148                    21920075.777
 11  8 11  2 13  0.0000000  0  8G10G04G29G05G02G12G30G25
 116172886.120 7  90524482.73145  22106959.977                    22106967.785
 126101076.228 6  98260714.35043  23996221.258                    23996229.590
 124829334.070 6  97269661.759 6  23754237.633                    23754247.023
 106868701.683 8  83274337.126 8  20336406.320                    20336413.297
 110768949.431 8  86313607.18146  21078624.195                    21078630.102
 109537405.725 8  85353935.409 7  20844289.648                    20844296.863
 112448240.310 8  87622183.01945  21398218.133                    21398225.496
 115147055.499 8  89725039.330 7  21911761.820                    21911771.652
 11  8 11  2 13 30.0000000  0  8G10G04G29G05G02G12G30G25
 116254331.114 7  90587946.34345  22122458.625                    22122466.098
 126182340.772 6  98324037.37343  24011685.227                    24011694.223
 124746403.541 7  97205040.635 6  23738457.289                    23738465.461
 106849063.572 8  83259034.725 8  20332669.289                    20332676.520
 110799759.922 8  86337615.36946  21084487.195                    21084492.598
 109561289.917 8  85372546.466 7  20848835.078                    20848842.004
 112435482.536 8  87612241.88446  21395790.414                    21395798.129
 115103952.075 8  89691452.256 7  21903559.766                    21903569.387
 11  8 11  2 14  0.0000000  0  8G10G04G29G05G02G12G30G25
 116336170.794 7  90651717.50745  22138032.055                    22138039.793
 126263560.270 6  98387325.28243  24027141.359                    24027150.031
 124663445.577 7  97140398.113 6  23722669.781                    23722679.504
 106830002.471 8  83244181.945 8  20329042.063                    20329049.035
 110830703.665 8  86361727.39646  21090376.023                    21090381.582
 109585741.925 8  85391599.982 7  20853488.313                    20853495.250
 112423340.252 8  87602780.35145  21393479.844                    21393487.273
 115061385.626 8  89658283.614 7  21895459.438                    21895469.098
 11  8 11  2 14 30.0000000  0  8G10G04G29G05G02G12G30G25
 116418401.875 7  90715793.65045  22153680.141                    22153688.031
 126344734.128 6  98450577.62443  24042587.883                    24042597.359
 124580461.178 7  97075734.994 6  23706878.805                    23706888.105
 106811518.169 8  83229778.614 8  20325524.313                    20325531.234
 110861779.558 8  86385942.39046  21096289.219                    21096294.680
 109610760.220 8  85411094.766 7  20858248.953                    20858256.016
 112411813.432 8  87593798.40545  21391286.180                    21391293.375
 115019357.318 8  89625534.313 7  21887461.344                    21887471.188
 11  8 11  2 15  0.0000000  0  8G10G04G29G05G02G12G30G25
 116501021.528 7  90780172.57845  22169401.953                    22169409.949
 126425861.354 6  98513793.63343  24058025.969                    24058035.457
 124497450.929 7  97011051.745 6  23691082.336                    23691091.145
 106793610.378 8  83215824.524 8  20322116.578                    20322123.816
 110892986.191 8  86410259.25846  21102227.680                    21102232.906
 109636343.528 8  85431029.815 7  20863117.188                    20863124.254
 112400901.580 8  87585295.65446  21389209.875                    21389217.453
 114977868.095 8  89593205.071 7  21879566.438                    21879576.137
 11  8 11  2 15 30.0000000  0  8G10G04G29G05G02G12G30G25
 116584027.429 7  90844852.48945  22185197.430                    22185204.996
 126506941.738 6  98576973.16143  24073454.867                    24073464.020
 124414416.365 7  96946349.535 6  23675281.938                    23675289.887
 106776280.058 8  83202320.402 8  20318818.875                    20318826.063
 110924323.477 8  86434677.94146  21108190.891                    21108195.855
 109662491.536 8  85451404.877 7  20868093.078                    20868099.980
 112390605.489 8  87577272.72446  21387250.430                    21387258.570
 114936919.887 8  89561297.388 7  21871774.109                    21871783.746
 11  8 11  2 16  0.0000000  0  8G10G04G29G05G02G12G30G25
 116667416.030 7  90909830.61345  22201065.797                    22201073.543
 126587974.604 6  98640115.64643  24088874.930                    24088884.035
 124331358.301 7  96881629.056 6  23659475.914                    23659485.000
 106759526.771 8  83189265.915 8  20315630.867                    20315637.828
 110955790.201 8  86459197.49046  21114178.625                    21114184.176
 109689202.816 8  85472218.866 7  20873176.141                    20873183.035
 112380924.600 8  87569729.16546  21385408.383                    21385416.258
 114896513.627 8  89529812.009 7  21864085.305                    21864094.871
 11  8 11  2 16 30.0000000  0  8G10G04G29G05G02G12G30G25
 116751185.109 7  90975105.20045  22217006.555                    22217014.223
 126668959.821 6  98703221.03243  24104285.883                    24104295.203
 124248278.012 7  96816891.242 6  23643666.359                    23643675.223
 106743351.035 8  83176661.462 8  20312552.750                    20312559.578
 110987386.019 8  86483817.62646  21120191.742                    21120196.715
 109716476.282 8  85493470.916 7  20878366.336                    20878372.609
 112371859.428 8  87562665.39446  21383683.406                    21383691.277
 114856651.056 8  89498750.276 7  21856499.344                    21856509.332
 11  8 11  2 17  0.0000000  0  8G10G04G29G05G02G12G30G25
 116835331.650 7  91040673.91045  22233019.266                    22233026.734
 126749896.670 6  98766288.68343  24119687.664                    24119696.520
 124165176.748 7  96752137.056 6  23627852.438                    23627861.387
 106727752.854 8  83164507.055 8  20309584.609                    20309591.238
 111019110.009 8  86508537.64546  21126228.500                    21126233.410
 109744310.853 8  85515160.181 7  20883662.703                    20883669.598
 112363409.924 8  87556081.36246  21382075.273                    21382083.602
 114817333.497 8  89468113.219 7  21849017.695                    21849027.633
 11  8 11  2 17 30.0000000  0  8G10G04G29G05G02G12G30G25
 116919852.589 7  91106534.36545  22249103.305                    22249110.602
 126830784.907 6  98829318.46543  24135080.266                    24135089.383
 124082055.789 7  96687367.547 6  23612035.516                    23612044.043
 106712732.494 8  83152802.891 8  20306726.031                    20306733.277
 111050961.991 8  86533357.39646  21132289.336                    21132294.906
 109772706.093 8  85537286.347 7  20889065.930                    20889072.980
 112355576.261 8  87549977.20546  21380584.852                    21380592.691
 114778562.383 8  89437901.969 7  21841639.641                    21841649.469
 11  8 11  2 18  0.0000000  0  8G10G04G29G05G02G12G30G25
 117004745.219 7  91172684.43345  22265257.523                    22265265.313
 126911624.013 6  98892310.00643  24150462.891                    24150472.723
 123998916.060 7  96622583.365 6  23596214.172                    23596222.359
 106698289.864 8  83141548.905 8  20303977.727                    20303985.082
 111082940.847 8  86558276.01346  21138374.625                    21138380.289
 109801659.997 8  85559847.817 7  20894575.914                    20894583.102
 112348358.095 8  87544352.67046  21379211.102                    21379219.004
 114740338.840 8  89408117.396 7  21834366.094                    21834376.113
 11  8 11  2 18 30.0000000  0  8G10G04G29G05G02G12G30G25
 117090006.738 7  91239121.96044  22281482.422                    22281490.090
 126992413.480 6  98955262.82743  24165837.461                    24165846.191
 123915758.859 7  96557785.601 6  23580390.031                    23580398.863
 106684425.248 8  83130745.323 8  20301339.227                    20301346.617
 111115045.770 8  86583292.85246  21144484.078                    21144489.262
 109831171.634 8  85582843.889 7  20900191.867                    20900199.020
 112341755.515 8  87539207.81146  21377954.859                    21377963.102
 114702664.252 8  89378760.590 7  21827196.391                    21827206.867
 11  8 11  2 19  0.0000000  0  8G10G04G29G05G02G12G30G25
 117175634.424 7  91305844.79544  22297777.031                    22297784.438
 127073152.847 6  99018176.64943  24181201.750                    24181209.973
 123832585.026 7  96492974.898 6  23564562.938                    23564570.531
 106671138.183 8  83120391.785 8  20298811.086                    20298817.695
 111147276.045 7  86608407.37446  21150617.047                    21150622.852
 109861239.720 7  85606273.559 7  20905913.453                    20905920.723
 112335768.283 8  87534542.43946  21376815.492                    21376823.223
 114665539.704 8  89349832.382 7  21820132.313                    21820142.090
 11  8 11  2 19 30.0000000  0  8G10G04G29G05G02G12G30G25
 117261625.189 7  91372850.55644  22314140.266                    22314148.438
 127153841.660 6  99081051.07043  24196555.945                    24196564.625
 123749395.883 7  96428152.250 6  23548731.875                    23548739.992
 106658428.696 8  83110488.302 8  20296391.953                    20296399.434
 111179631.023 8  86633619.06146  21156774.453                    21156779.434
 109891863.346 8  85630136.119 7  20911740.828                    20911748.309
 112330396.151 8  87530356.36846  21375793.094                    21375801.215
 114628966.385 8  89321333.684 7  21813172.828                    21813182.789
 11  8 11  2 20  0.0000000  0  8G10G04G29G05G02G12G30G25
 117347976.290 7  91440137.11544  22330572.703                    22330580.078
 127234479.480 6  99143885.76643  24211901.078                    24211909.656
 123666192.938 7  96363318.853 6  23532899.133                    23532907.813
 106646297.144 8  83101035.158 8  20294083.828                    20294091.426
 111212110.069 7  86658927.43246  21162954.672                    21162960.371
 109923041.145 7  85654430.511 7  20917674.031                    20917681.305
 112325639.346 8  87526649.77546  21374887.820                    21374896.297
 114592945.805 8  89293265.695 7  21806318.180                    21806327.961
 11  8 11  2 20 30.0000000  0  8G10G04G29G05G02G12G30G25
 117434684.563 7  91507701.97744  22347072.656                    22347080.223
 127315065.761 6  99206680.25143  24227235.672                    24227244.867
 123582976.878 7  96298475.247 6  23517063.609                    23517071.668
 106634742.966 8  83092031.924 8  20291885.133                    20291892.180
 111244711.950 8  86684331.53446  21169158.773                    21169164.051
 109954771.382 8  85679155.360 7  20923712.000                    20923719.629
 112321497.112 8  87523422.07646  21374099.641                    21374107.469
 114557478.659 8  89265628.953 7  21799569.023                    21799578.969
 11  8 11  2 21  0.0000000  0  8G10G04G29G05G02G12G30G25
 117521747.399 7  91575543.13145  22363640.242                    22363647.609
 127395600.506 6  99269434.63743  24242560.297                    24242569.641
 123499749.271 7  96233622.625 6  23501225.578                    23501234.137
 106623766.448 8  83083478.812 8  20289796.430                    20289803.582
 111277436.842 8  86709831.47546  21175386.086                    21175391.398
 109987053.357 8  85704310.137 7  20929855.578                    20929861.715
 112317969.766 8  87520673.50146  21373428.133                    21373436.070
 114522566.653 8  89238424.796 7  21792925.227                    21792934.840
 11  8 11  2 21 30.0000000  0  8G10G04G29G05G02G12G30G25
 117609161.491 7  91643657.98744  22380274.938                    22380282.434
 127476082.832 6  99332148.12043  24257875.422                    24257885.262
 123416510.923 7  96168761.658 6  23485385.563                    23485394.637
 106613367.136 8  83075375.471 8  20287817.398                    20287824.301
 111310283.337 8  86735426.18046  21181636.641                    21181641.594
 110019885.590 8  85729893.689 7  20936102.773                    20936109.949
 112315056.500 8  87518403.42945  21372874.070                    21372881.773
 114488210.371 8  89211653.664 7  21786387.336                    21786397.457
 11  8 11  2 22  0.0000000  0  8G10G04G29G05G02G12G30G25
 117696924.671 7  91712044.87244  22396975.609                    22396982.672
 127556512.938 6  99394820.87643  24273181.938                    24273190.855
 123333263.807 7  96103893.847 6  23469544.367                    23469553.277
 106603545.437 8  83067722.211 8  20285948.305                    20285955.730
 111343251.608 8  86761115.77646  21187910.008                    21187915.504
 110053267.017 8  85755905.187 7  20942455.531                    20942462.715
 112312757.755 7  87516612.21146  21372436.469                    21372444.762
 114454411.605 8  89185316.961 7  21779955.766                    21779965.953
 11  8 11  2 22 30.0000000  0  8G10G04G29G05G02G12G30G25
 117785034.215 7  91780701.62644  22413742.141                    22413749.367
 127636890.265 6  99457452.55643  24288476.813                    24288486.160
 123250008.823 7  96039019.908 6  23453701.570                    23453710.438
 106594301.025 8  83060518.791 8  20284189.219                    20284196.340
 111376340.776 7  86786899.56546  21194206.586                    21194211.887
 110087196.028 8  85782343.370 7  20948911.977                    20948918.813
 112311073.061 8  87515299.47546  21372116.031                    21372123.879
 114421171.377 8  89159415.490 7  21773630.359                    21773640.703
 11  8 11  2 23  0.0000000  0  8G10G04G29G05G02G12G30G25
 117873486.557 7  91849625.49245  22430574.000                    22430581.531
 127717214.275 6  99520042.67243  24303762.781                    24303771.578
 123166747.054 6  95974140.691 6  23437857.109                    23437866.234
 106585633.368 8  83053764.782 8  20282539.820                    20282546.789
 111409549.834 8  86812776.79046  21200526.195                    21200531.176
 110121671.110 8  85809207.067 7  20955472.000                    20955479.074
 112310001.784 8  87514464.72746  21371911.992                    21371919.668
 114388490.381 8  89133949.785 7  21767411.633                    21767421.613
 11  8 11  2 23 30.0000000  0  9G26G10G04G29G05G02G12G30G25
 130383799.20816 101597798.74753  24811212.672                    24811221.527
 117962279.512 7  91918814.80244  22447470.758                    22447478.172
 127797484.985 6  99582591.26043  24319037.320                    24319046.063
 123083480.123 6  95909257.433 6  23422012.234                    23422020.977
 106577542.897 8  83047460.540 8  20281000.297                    20281007.000
 111442878.779 7  86838747.41546  21206868.523                    21206873.730
 110156691.243 7  85836495.484 7  20962135.898                    20962143.184
 112309544.038 8  87514108.04646  21371825.148                    21371832.801
 114356370.154 8  89108921.050 7  21761299.203                    21761309.316
 11  8 11  2 24  0.0000000  0  9G26G10G04G29G05G02G12G30G25
 130290192.841 6 101524858.77843  24793398.898                    24793408.609
 118051410.026 7  91988267.13845  22464431.570                    22464439.387
 127877701.975 6  99645097.96643  24334302.289                    24334310.500
 123000209.648 7  95844371.441 6  23406166.367                    23406174.855
 106570029.011 8  83041605.579 8  20279570.219                    20279577.547
 111476326.937 8  86864810.94346  21213233.375                    21213238.234
 110192254.970 8  85864207.475 7  20968903.625                    20968910.797
 112309699.346 7  87514229.07546  21371854.453                    21371862.398
 114324811.606 8  89084329.963 7  21755293.672                    21755304.180
 11  8 11  2 24 30.0000000  0  9G26G10G04G29G05G02G12G30G25
 130196461.185 6 101451821.25243  24775562.523                    24775572.191
 118140874.824 7  92057979.96444  22481456.086                    22481463.980
 127957864.577 7  99707562.35343  24349556.719                    24349565.277
 122916936.185 7  95779483.079 6  23390319.664                    23390327.910
 106563091.212 8  83036199.528 8  20278250.125                    20278256.867
 111509893.101 7  86890966.43346  21219620.516                    21219625.793
 110228360.780 8  85892341.874 7  20975774.484                    20975781.406
 112310467.059 7  87514827.29746  21372000.344                    21372008.414
 114293815.542 8  89060177.200 7  21749395.578                    21749405.691
 11  8 11  2 25  0.0000000  0  9G26G10G04G29G05G02G12G30G25
 130102606.948 6 101378688.17243  24757702.547                    24757712.492
 118230671.007 7  92127950.99744  22498543.805                    22498551.559
 128037972.264 7  99769983.92043  24364800.664                    24364809.645
 122833661.072 7  95714593.418 6  23374473.031                    23374481.313
 106556729.381 8  83031242.283 8  20277039.695                    20277046.613
 111543576.639 8  86917213.36746  21226030.461                    21226035.727
 110265007.352 8  85920897.647 7  20982748.078                    20982755.379
 112311846.515 8  87515902.21446  21372263.344                    21372271.418
 114263382.820 8  89036463.398 7  21743604.305                    21743614.680
 11  8 11  2 25 30.0000000  0  9G26G10G04G29G05G02G12G30G25
 130008633.118 6 101305461.93943  24739819.813                    24739829.926
 118320795.800 7  92198178.08544  22515694.289                    22515702.043
 128118025.093 7  99832362.76143  24380033.992                    24380042.805
 122750385.562 7  95649703.465 6  23358626.234                    23358634.805
 106550943.271 8  83026733.648 8  20275938.445                    20275945.555
 111577376.988 8  86943551.33646  21232462.258                    21232467.375
 110302192.510 8  85949873.091 7  20989824.031                    20989831.109
 112313837.475 7  87517453.62746  21372642.117                    21372649.945
 114233514.513 8  89013189.414 7  21737920.523                    21737930.332
 11  8 11  2 26  0.0000000  0  9G26G10G04G29G05G02G12G30G25
 129914542.355 6 101232144.52742  24721915.359                    24721924.875
 118411246.054 7  92268658.80344  22532906.164                    22532913.793
 128198022.698 6  99894698.60042  24395256.563                    24395265.691
 122667111.072 7  95584814.270 6  23342779.484                    23342787.508
 106545732.421 8  83022673.261 8  20274946.711                    20274954.020
 111611293.476 8  86969979.79146  21238916.781                    21238921.742
 110339914.827 8  85979267.107 7  20997002.727                    20997009.742
 112316439.430 7  87519481.14646  21373137.297                    21373144.742
 114204211.518 8  88990355.931 7  21732344.469                    21732354.426
 11  8 11  2 26 30.0000000  0  9G26G10G04G29G05G02G12G30G25
 129820337.858 6 101158738.53843  24703987.867                    24703998.055
 118502019.159 7  92339391.07844  22550179.281                    22550187.469
 128277964.538 6  99956990.96442  24410468.961                    24410477.984
 122583838.908 7  95519926.897 6  23326933.445                    23326942.402
 106541096.324 8  83019060.731 8  20274064.648                    20274071.918
 111645325.799 8  86996498.50446  21245392.750                    21245397.887
 110378173.034 8  86009078.699 7  21004282.859                    21004289.719
 112319651.639 8  87521984.17846  21373748.422                    21373755.938
 114175474.715 8  88967963.638 7  21726876.117                    21726886.086
 11  8 11  2 27  0.0000000  0  9G26G10G04G29G05G02G12G30G25
 129726022.351 6 101085246.01043  24686040.797                    24686050.527
 118593112.353 7  92410372.74644  22567514.242                    22567521.926
 128357850.412 6 100019239.68342  24425670.711                    24425679.105
 122500570.598 6  95455042.542 6  23311087.945                    23311095.945
 106537034.882 8  83015895.994 8  20273292.000                    20273298.879
 111679473.412 8  87023107.05546  21251890.555                    21251895.949
 110416965.751 8  86039306.786 7  21011665.008                    21011671.695
 112323473.805 8  87524962.49646  21374475.656                    21374483.086
 114147305.087 8  88946013.297 7  21721515.367                    21721525.465
 11  8 11  2 27 30.0000000  0  9G26G10G04G29G05G02G12G30G25
 129631598.636 6 101011669.16143  24668072.680                    24668082.266
 118684522.410 7  92481601.34144  22584908.781                    22584916.840
 128437679.869 6 100081444.47643  24440861.742                    24440870.965
 122417307.145 6  95390161.924 6  23295244.094                    23295251.141
 106533547.208 8  83013178.340 8  20272628.109                    20272634.852
 111713735.254 8  87049804.62046  21258410.805                    21258415.863
 110456291.147 8  86069949.947 7  21019147.844                    21019155.289
 112327904.987 8  87528415.38246  21375318.664                    21375326.438
 114119703.262 8  88924505.400 7  21716263.227                    21716273.168
 11  8 11  2 28  0.0000000  0  9G26G10G04G29G05G02G12G30G25
 129537069.929 6 100938010.53743  24650084.789                    24650094.277
 118776246.632 7  92553074.75944  22602363.969                    22602371.270
 128517452.814 6 100143605.17943  24456042.891                    24456050.945
 122334050.056 7  95325286.273 6  23279399.898                    23279408.297
 106530633.112 8  83010907.637 8  20272073.844                    20272080.590
 111748111.154 8  87076591.04946  21264952.234                    21264957.188
 110496147.586 8  86101006.904 7  21026732.820                    21026739.695
 112332944.803 7  87532342.51946  21376277.656                    21376285.363
 114092670.208 8  88903440.697 7  21711118.797                    21711128.793
 11  8 11  2 28 30.0000000  0  9G26G10G04G29G05G02G12G30G25
 129442439.193 6 100864272.35543  24632076.320                    24632086.438
 118868282.299 7  92624790.84244  22619877.688                    22619885.203
 128597168.958 6 100205721.67643  24471212.219                    24471221.590
 122250800.686 6  95260416.641 6  23263558.102                    23263566.211
 106528292.337 8  83009083.665 8  20271628.000                    20271635.125
 111782600.487 8  87103465.87146  21271515.117                    21271520.754
 110536533.684 8  86132476.587 7  21034417.859                    21034424.965
 112338592.734 7  87536743.50746  21377352.422                    21377359.930
 114066206.869 8  88882819.939 7  21706083.109                    21706092.969
 11  8 11  2 29  0.0000000  0  9G26G10G04G29G05G02G12G30G25
 129347709.303 6 100790457.00843  24614049.766                    24614059.762
 118960625.981 7  92696746.94144  22637449.578                    22637457.551
 128676827.932 7 100267793.53643  24486370.859                    24486380.191
 122167560.418 6  95195554.091 6  23247717.570                    23247726.238
 106526523.946 8  83007705.711 8  20271291.398                    20271298.520
 111817202.428 8  87130428.42846  21278099.695                    21278104.996
 110577447.275 8  86164357.307 7  21042203.367                    21042210.359
 112344847.851 7  87541617.62645  21378542.711                    21378550.316
 114040313.828 8  88862643.568 7  21701155.883                    21701165.789
 11  8 11  2 29 30.0000000  0  9G26G10G04G29G05G02G12G30G25
 129252883.246 6 100716566.67843  24596004.938                    24596014.336
 119053274.998 7  92768940.96344  22655080.047                    22655088.344
 128756429.461 7 100329820.70843  24501518.797                    24501527.707
 122084330.735 7  95130699.809 6  23231879.320                    23231888.383
 106525327.608 8  83006773.500 8  20271063.898                    20271070.719
 111851916.445 8  87157478.32246  21284705.695                    21284710.961
 110618886.882 8  86196647.902 7  21050089.094                    21050096.340
 112351709.434 7  87546964.30946  21379849.109                    21379856.012
 114014991.796 8  88842912.141 7  21696337.055                    21696347.219
 11  8 11  2 30  0.0000000  0  9G26G10G04G29G05G02G12G30G25
 129157964.026 6 100642603.79842  24577941.594                    24577951.664
 119146226.656 7  92841370.82044  22672768.781                    22672776.598
 128835973.313 7 100391802.93943  24516655.164                    24516663.734
 122001112.947 7  95065854.789 6  23216043.789                    23216052.770
 106524702.873 8  83006286.710 8  20270944.969                    20270951.918
 111886742.283 8  87184615.33546  21291332.961                    21291337.910
 110660850.988 8  86229347.209 7  21058074.203                    21058081.410
 112359176.945 7  87552783.14546  21381269.656                    21381277.320
 113990241.719 8  88823626.389 7  21691627.211                    21691637.242
 11  8 11  2 30 30.0000000  0  9G26G10G04G29G05G02G12G30G25
 129062954.596 6 100568570.62043  24559862.477                    24559871.754
 119239477.993 7  92914034.18944  22690513.063                    22690521.328
 128915459.367 7 100453740.12343  24531780.836                    24531789.898
 121917908.699 7  95001020.350 6  23200210.844                    23200219.512
 106524649.425 8  83006245.064 8  20270934.758                    20270941.930
 111921679.274 8  87211838.97646  21297980.766                    21297986.055
 110703337.797 8  86262453.805 7  21066159.484                    21066166.555
 112367249.686 7  87559073.59646  21382806.047                    21382813.688
 113966064.270 8  88804786.848 7  21687026.219                    21687036.805
 11  8 11  2 31  0.0000000  0  9G26G10G04G29G05G02G12G30G25
 128967858.026 6 100494469.44143  24541766.273                    24541775.453
 119333026.183 6  92986928.86744  22708315.148                    22708322.891
 128994887.248 7 100515631.98343  24546895.133                    24546904.102
 121834719.101 7  94936197.329 6  23184380.328                    23184389.109
 106525166.339 8  83006647.866 8  20271033.297                    20271040.227
 111956726.852 8  87239148.78146  21304650.219                    21304655.480
 110746345.473 8  86295966.275 7  21074343.617                    21074350.914
 112375926.722 8  87565834.92646  21384457.359                    21384464.715
 113942460.172 8  88786394.066 7  21682534.406                    21682544.730
 11  8 11  2 31 30.0000000  0  9G26G10G04G29G05G02G12G30G25
 128872677.458 6 100420302.91543  24523653.398                    24523663.305
 119426868.128 6  93060052.43544  22726172.953                    22726180.496
 129074256.899 6 100577478.51542  24561997.609                    24562007.797
 121751545.783 7  94871386.972 6  23168553.078                    23168561.777
 106526253.335 8  83007494.884 8  20271239.930                    20271246.848
 111991884.631 7  87266544.46546  21311340.594                    21311345.906
 110789872.261 8  86329883.249 7  21082626.781                    21082633.457
 112385207.388 7  87573066.60445  21386223.086                    21386230.734
 113919430.093 8  88768448.573 7  21678151.914                    21678162.074
 11  8 11  2 32  0.0000000  0  9G26G10G04G29G05G02G12G30G25
 128777415.375 6 100346072.85943  24505526.313                    24505535.883
 119521000.929 6  93133402.64744  22744085.477                    22744093.734
 129153567.782 6 100639279.23042  24577090.461                    24577099.465
 121668390.096 7  94806590.369 6  23152729.516                    23152737.559
 106527909.142 8  83008785.128 8  20271554.867                    20271561.750
 112027151.595 7  87294025.21246  21318051.500                    21318056.996
 110833916.689 8  86364203.576 7  21091007.891                    21091014.992
 112395090.535 7  87580767.74745  21388103.617                    21388111.184
 113896974.424 8  88750950.668 7  21673879.250                    21673889.141
 11  8 11  2 32 30.0000000  0  9G26G10G04G29G05G02G12G30G25
 128682075.278 6 100271781.93343  24487383.000                    24487392.957
 119615421.894 7  93206977.43744  22762053.039                    22762060.867
 129232819.891 6 100701034.21742  24592171.086                    24592180.461
 121585253.645 7  94741808.736 6  23136908.945                    23136917.328
 106530133.677 8  83010518.541 8  20271978.367                    20271985.609
 112062527.773 7  87321591.05446  21324783.422                    21324788.445
 110878476.619 8  86398925.584 7  21099487.313                    21099494.414
 112405575.530 7  87588937.86445  21390099.016                    21390106.383
 113875094.010 8  88733901.027 7  21669715.242                    21669725.371
 11  8 11  2 33  0.0000000  0  9G26G10G04G29G05G02G12G30G25
 128586660.269 7 100197432.74943  24469226.141                    24469236.582
 119710128.077 7  93280774.44644  22780075.156                    22780083.500
 129312013.048 6                  24607241.523
 121502137.366 7  94677042.837 6  23121092.617                    23121101.105
 106532926.028 8  83012694.406 8  20272509.633                    20272517.082
 112098012.551 7  87349241.53346  21331535.922                    21331541.117
 110923550.442 8  86434048.038 7  21108064.852                    21108071.816
 112416661.567 7  87597576.33246  21392208.773                    21392216.242
 113853789.480 8  88717300.111 7  21665660.938                    21665671.121
 11  8 11  2 33 30.0000000  0  9G26G10G04G29G05G02G12G30G25
 128491173.251 6 100123027.36543  24451055.531                    24451065.145
 119805116.355 7  93354791.26244  22798151.016                    22798158.840
 129391147.008 6 100824225.96552  24622300.641                    24622307.996
 121419043.245 7  94612294.242 6  23105279.945                    23105288.773
 106536285.587 8  83015312.259 8  20273149.344                    20273156.156
 112133605.571 7  87376976.35046  21338309.578                    21338314.578
 110969136.348 8  86469569.520 7  21116739.453                    21116746.266
 112428347.602 7  87606682.33646  21394432.461                    21394439.984
 113833061.331 8  88701148.330 7  21661716.625                    21661726.457
 11  8 11  2 34  0.0000000  0  9G26G10G04G29G05G02G12G30G25
 128395617.343 7 100048568.33143  24432872.422                    24432881.477
 119900384.036 7  93429025.79244  22816280.227                    22816287.762
 129470221.482 6 100885842.48842  24637347.758                    24637356.180
 121335972.569 7  94547563.900 6  23089471.992                    23089480.230
 106540211.414 8  83018371.358 8  20273896.219                    20273903.113
 112169306.242 8  87404795.04646  21345103.008                    21345107.809
 111015232.187 8  86505488.357 7  21125511.047                    21125518.270
 112440632.564 8  87616255.02346  21396769.945                    21396777.703
 113812910.017 8  88685446.036 7  21657882.023                    21657892.035
 11  8 11  2 34 30.0000000  0  9G26G10G04G29G05G02G12G30G25
 128299995.816 7  99974058.15343  24414675.578                    24414685.129
 119995928.338 7  93503475.89944  22834461.688                    22834468.734
 129549236.265 6 100947412.46543  24652384.000                    24652392.598
 121252927.057 6  94482853.189 6  23073668.594                    23073677.594
 106544703.297 8  83021871.539 8  20274750.961                    20274757.926
 112205114.100 8  87432697.26246  21351916.969                    21351922.082
 111061836.399 8  86541803.325 7  21134379.977                    21134386.918
 112453515.767 7  87626293.87046  21399221.625                    21399229.426
 113793336.252 8  88670193.763 7  21654157.258                    21654167.172
 11  8 11  2 35  0.0000000  0  9G26G10G04G29G05G02G12G30G25
 128204311.639 7  99899499.14343  24396467.414                    24396476.313
 120091746.177 7  93578139.12744  22852694.992                    22852702.891
 129628191.284 6 101008935.88943  24667408.883                    24667417.230
 121169908.166 7  94418163.242 6  23057870.359                    23057879.160
 106549760.188 8  83025811.986 8  20275713.070                    20275720.168
 112241028.555 8  87460682.54646  21358751.234                    21358756.438
 111108946.939 8  86578512.826 7  21143344.539                    21143351.316
 112466996.090 8  87636798.00846  21401787.305                    21401794.434
 113774340.446 8  88655391.844 7  21650542.461                    21650551.969
 11  8 11  2 35 30.0000000  0  9G26G10G04G29G05G02G12G30G25
 128108567.712 6  99824893.60243  24378247.781                    24378257.684
 120187834.686 7  93653013.29044  22870979.719                    22870987.543
 129707086.305 6 101070412.53143  24682422.313                    24682431.082
 121086917.264 7  94353495.089 6  23042077.750                    23042086.906
 106555380.970 8  83030191.831 8  20276782.664                    20276789.586
 112277049.107 8  87488750.51346  21365605.875                    21365610.559
 111156561.727 8  86615615.258 7  21152405.359                    21152412.379
 112481072.505 7  87647766.63946  21404465.859                    21404473.348
 113755922.979 8  88641040.598 7  21647037.703                    21647046.918
 11  8 11  2 36  0.0000000  0  8G26G10G29G05G02G12G30G25
 128012767.319 7  99750244.04943  24360018.148                    24360027.098
 120284191.176 7  93728096.26844  22889316.227                    22889323.758
 121003956.078 7  94288850.111 6  23026290.898                    23026299.348
 106561565.004 8  83035010.576 8  20277959.555                    20277966.418
 112313175.303 8  87516900.80146  21372480.477                    21372485.031
 111204679.096 8  86653109.301 7  21161561.836                    21161568.727
 112495743.926 8  87659198.90546  21407257.766                    21407265.535
 113738084.384 8  88627140.402 7  21643642.953                    21643652.422
 11  8 11  2 36 30.0000000  0  8G26G10G29G05G02G12G30G25
 127916913.819 6  99675553.12543  24341776.906                    24341786.523
 120380812.598 7  93803385.69644  22907702.484                    22907709.703
 120921025.912 7  94224229.291 6  23010509.086                    23010517.953
 106568311.801 8  83040267.834 8  20279243.555                    20279250.359
 112349406.939 8  87545133.24046  21379374.891                    21379379.695
 111253297.299 8  86690993.612 7  21170813.461                    21170820.484
 112511009.366 8  87671094.05046  21410162.820                    21410170.359
 113720825.052 8  88613691.588 7  21640358.883                    21640368.121
 11  8 11  2 37  0.0000000  0  8G26G10G29G05G02G12G30G25
 127821010.090 6  99600823.03143  24323526.836                    24323536.785
 120477696.099 7  93878879.32744  22926138.984                    22926146.445
 120838128.246 7  94159633.759 6  22994734.336                    22994743.035
 106575620.061 8  83045962.598 8  20280633.930                    20280641.086
 112385743.323 8  87573447.30146  21386289.438                    21386294.508
 111302413.523 8  86729265.996 7  21180159.992                    21180167.102
 112526867.636 7  87683451.13746  21413180.461                    21413188.371
 113704145.369 8  88600694.443 7  21637184.422                    21637193.914
 11  8 11  2 37 30.0000000  0  8G26G10G29G05G02G12G30G25
 127725059.216 6  99526056.20343  24305268.344                    24305277.535
 120574839.052 7  93954575.13944  22944624.484                    22944631.742
 120755264.798 7  94095064.921 6  22978966.586                    22978974.891
 106583489.138 8  83052094.370 8  20282131.656                    20282138.992
 112422184.349 8  87601842.90546  21393224.063                    21393229.180
 111352026.467 8  86767925.417 7  21189601.242                    21189607.914
 112543317.605 7  87696269.28446  21416310.539                    21416318.180
 113688045.696 8  88588149.254 7  21634120.758                    21634130.648
 11  8 11  2 38  0.0000000  0  8G26G10G29G05G02G12G30G25
 127629064.511 6  99451255.20443  24287000.633                    24287009.988
 120672238.506 7  94030470.80844  22963158.508                    22963166.352
 120672436.875 7  94030523.761 6  22963205.336                    22963213.418
 106591918.149 8  83058662.445 8  20283735.617                    20283742.512
 112458729.251 8  87630319.45446  21400178.211                    21400183.160
 111402133.949 8  86806970.192 7  21199136.391                    21199143.715
 112560358.190 8  87709547.65646  21419553.656                    21419561.355
 113672526.417 8  88576056.317 7  21631167.664                    21631177.531
 11  8 11  2 38 30.0000000  0  8G26G10G29G05G02G12G30G25
 127533029.100 6  99376422.50043  24268726.328                    24268735.445
 120769891.298 7  94106563.90544  22981741.469                    22981749.309
 120589646.195 7  93966011.631 6  22947450.391                    22947458.805
 106600905.947 8  83065665.937 8  20285445.602                    20285452.754
 112495377.629 8  87658876.63146  21407152.156                    21407157.359
 111452733.738 8  86846398.602 7  21208764.859                    21208771.777
 112577987.945 7  87723285.12345  21422908.242                    21422915.602
 113657587.635 8  88564415.719 7  21628324.859                    21628334.438
 11  8 11  2 39  0.0000000  0  8G26G10G29G05G02G12G30G25
 127436955.980 6  99301560.43943  24250443.227                    24250453.617
 120867794.619 7  94182852.17244  23000372.453                    23000379.773
 120506894.417 7  93901529.791 6  22931703.117                    22931711.535
 106610451.452 8  83073104.014 8  20287262.328                    20287269.223
 112532128.833 8  87687513.93546  21414145.914                    21414151.039
 111503824.097 8  86886209.267 7  21218486.844                    21218493.809
 112596205.643 7  87737480.72845  21426375.102                    21426382.477
 113643229.623 8  88553227.657 7  21625592.742                    21625602.465
 11  8 11  2 39 30.0000000  0  8G26G10G29G05G02G12G30G25
 127340848.475 6  99226671.54143  24232155.664                    24232163.969
 120965945.611 7  94259333.46844  23019049.664                    23019057.563
 120424182.961 7  93837079.394 7  22915963.195                    22915971.918
 106620553.750 8  83080975.954 8  20289184.570                    20289191.535
 112568982.695 8  87716231.24646  21421158.625                    21421164.258
 111555402.459 8  86926400.186 7  21228301.953                    21228309.324
 112615010.234 8  87752133.64846  21429953.484                    21429961.313
 113629452.788 8  88542492.468 7  21622971.117                    21622981.176
 11  8 11  2 40  0.0000000  0  8G26G10G29G05G02G12G30G25
 127244709.976 6  99151758.52043  24213860.273                    24213869.305
 121064341.478 6  94336005.56344  23037773.375                    23037781.289
 120341513.632 7  93772661.796 7  22900231.789                    22900240.316
 106631212.135 8  83089281.206 8  20291212.805                    20291219.617
 112605939.192 8  87745028.51346  21428191.109                    21428196.605
 111607467.025 8  86966969.975 7  21238209.422                    21238216.848
 112634400.446 7  87767242.89846  21433642.992                    21433651.137
 113616257.387 8  88532210.346 7  21620459.961                    21620469.719
 11  8 11  2 40 30.0000000  0  8G26G10G29G05G02G12G30G25
 127148543.501 6  99076823.66643  24195560.898                    24195569.637
 121162979.230 6  94412866.15344  23056544.172                    23056551.770
 120258887.763 7  93708278.076 6  22884508.805                    22884517.141
 106642425.270 8  83098018.735 8  20293346.484                    20293353.480
 112642997.482 8  87773905.11646  21435242.867                    21435248.625
 111660015.531 8  87007916.855 7  21248209.305                    21248216.566
 112654374.828 8  87782807.34246  21437444.320                    21437451.957
 113603643.482 8  88522381.338 7  21618059.914                    21618069.746
 11  8 11  2 41  0.0000000  0  8G26G10G29G05G02G12G30G25
 127052352.572 6  99001869.74643  24177256.422                    24177265.492
 121261856.154 7  94489913.11244  23075359.586                    23075367.449
 120176307.111 7  93643929.589 7  22868793.961                    22868802.648
 106654192.575 8  83107188.087 8  20295585.773                    20295592.852
 112680157.516 8  87802860.98746  21442314.680                    21442319.977
 111713046.386 8  87049239.589 7  21258300.758                    21258308.137
 112674932.389 7  87798826.21346  21441356.156                    21441364.109
 113591611.491 8  88513005.762 7  21615770.156                    21615779.863
 11  8 11  2 41 30.0000000  0  8G26G10G29G05G02G12G30G25
 126956139.856 6  98926898.86443  24158947.086                    24158956.703
 121360969.225 7  94567144.07644  23094219.906                    23094227.270
 120093773.484 7  93579617.733 6  22853088.281                    22853096.484
 106666512.374 8  83116787.952 8  20297929.984                    20297937.020
 112717418.394 8  87831895.43746  21449404.797                    21449410.219
 111766557.038 8  87090936.190 7  21268483.789                    21268490.906
 112696071.516 8  87815298.25646  21445379.039                    21445386.383
 113580161.348 8  88504083.573 7  21613591.078                    21613601.352
 11  8 11  2 42  0.0000000  0  8G26G10G29G05G02G12G30G25
 126859908.934 6  98851913.77643  24140635.398                    24140644.063
 121460315.529 7  94644556.78244  23113124.773                    23113132.844
 120011288.309 7  93515343.616 6  22837391.813                    22837400.473
 106679383.770 8  83126817.625 8  20300379.664                    20300386.480
 112754780.035 8  87861008.40746  21456514.914                    21456519.805
 111820545.227 8  87133004.907 7  21278757.031                    21278764.371
 112717790.824 7  87832222.40446  21449511.688                    21449519.609
 113569293.146 8  88495614.839 7  21611523.359                    21611533.020
 11  8 11  2 42 30.0000000  0  8G26G10G29G05G02G12G30G25
 126763663.066 6  98776917.05943  24122319.875                    24122329.234
 121559892.602 7  94722149.32344  23132074.258                    23132081.727
 119928853.382 7  93451108.672 6  22821705.273                    22821713.285
 106692805.909 8  83137276.465 8  20302933.648                    20302940.418
 112792242.069 8  87890199.60646  21463643.445                    21463648.953
 111875008.648 8  87175443.932 7  21289121.344                    21289128.551
 112740088.916 8  87849597.52846  21453755.211                    21453762.383
 113559007.062 8  88487599.717 7  21609565.727                    21609575.625
 11  8 11  2 43  0.0000000  0  8G26G10G29G05G02G12G30G25
 126667405.240 6  98701911.02643  24104002.805                    24104011.891
 121659697.546 7  94799919.44744  23151066.516                    23151074.125
 119846470.187 7  93386914.011 6  22806028.531                    22806035.609
 106706777.362 8  83148163.330 8  20305592.227                    20305599.055
 112829804.010 8  87919468.65246  21470791.031                    21470796.063
 111929945.236 8  87218251.653 7  21299575.492                    21299582.465
 112762964.280 8  87867422.48546  21458108.531                    21458115.789
 113549303.082 8  88480038.161 7  21607718.961                    21607729.234
 11  8 11  2 43 30.0000000  0  8G26G10G29G05G02G12G30G25
 126571138.853 6  98626898.29943  24085683.563                    24085693.109
 121759727.015 7  94877864.50444  23170100.711                    23170108.621
 119764140.262 7  93322760.861 6  22790361.422                    22790369.184
 106721296.542 8  83159477.016 8  20308355.203                    20308361.602
 112867465.342 8  87948815.13446  21477958.008                    21477963.367
 111985352.350 8  87261426.017 7  21310118.852                    21310126.270
 112786415.195 7  87885695.92346  21462570.914                    21462577.988
 113540180.918 8  88472929.973 7  21605983.078                    21605993.063
 11  8 11  2 44  0.0000000  0  8G26G10G29G05G02G12G30G25
 126474867.243 6  98551881.52343  24067364.023                    24067372.484
 121859978.688 6  94955982.70843  23189178.016                    23189186.340
 119681865.434 7  93258650.652 6  22774705.234                    22774712.539
 106736362.975 8  83171217.131 8  20311222.055                    20311228.965
 112905226.290 8  87978239.24346  21485143.859                    21485148.746
 112041228.425 8  87304965.802 7  21320751.672                    21320759.242
 112810440.758 7  87904417.15045  21467142.711                    21467150.113
 113531641.203 8  88466275.655 7  21604358.164                    21604368.547
 11  8 11  2 44 30.0000000  0  8G26G10G29G05G02G12G30G25
 126378593.940 6  98476863.44943  24049044.172                    24049052.699
 121960449.646 6  95034271.76044  23208297.320                    23208305.043
 119599647.438 7  93194584.693 6  22759059.398                    22759066.957
 106751975.490 8  83183382.756 8  20314192.984                    20314200.063
 112943086.366 8  88007740.59446  21492348.523                    21492353.508
 112097571.004 8  87348869.103 7  21331473.445                    21331480.836
 112835039.350 7  87923584.89046  21471823.586                    21471831.082
 113523683.803 8  88460075.077 7  21602844.047                    21602854.168
 11  8 11  2 45  0.0000000  0  8G26G10G29G05G02G12G30G25
 126282321.836 6  98401846.26743  24030723.273                    24030732.844
 122061137.048 7  95112729.50043  23227457.617                    23227465.395
 119517488.071 7  93130564.429 6  22743425.305                    22743432.684
 106768132.734 8  83195972.854 8  20317267.805                    20317274.664
 112981045.111 8  88037318.82646  21499572.039                    21499576.816
 112154377.949 8  87393134.240 7  21342283.578                    21342290.793
 112860209.339 7  87943197.87645  21476613.313                    21476620.836
 113516308.659 8  88454328.223 7  21601440.648                    21601450.355
 11  8 11  2 45 30.0000000  0  8G26G10G29G05G02G12G30G25
 126186054.730 6  98326832.99743  24012404.602                    24012413.531
 122162038.109 7  95191353.72444  23246658.016                    23246666.043
 119435388.856 7  93066591.052 6  22727801.875                    22727809.250
 106784833.627 8  83208986.573 8  20320445.594                    20320452.504
 113019102.132 8  88066973.65246  21506813.922                    21506819.121
 112211647.030 7  87437759.488 7  21353181.695                    21353188.363
 112885949.356 8  87963255.04446  21481511.516                    21481519.309
 113509515.714 8  88449035.008 7  21600147.773                    21600157.516
 11  8 11  2 46  0.0000000  0  8G26G10G29G05G02G12G30G25
 126089795.301 6  98251825.73643  23994087.008                    23994095.684
 122263149.999 7  95270142.22444  23265899.102                    23265907.391
 119353351.329 7  93002665.746 6  22712190.742                    22712198.660
 106802076.184 8  83222422.376 8  20323726.742                    20323733.324
 113057256.876 8  88096704.62646  21514074.352                    21514079.313
 112269375.173 8  87482742.446 7  21364166.969                    21364173.699
 112912257.340 8  87983754.77346  21486517.688                    21486525.395
 113503304.562 8  88444195.164 7  21598965.500                    21598975.535
 11  8 11  2 46 30.0000000  0  8G26G10G29G05G02G12G30G25
 125993547.091 6  98176827.16343  23975771.273                    23975781.000
 122364469.656 7  95349092.59944  23285179.609                    23285187.563
 119271377.732 7  92938790.264 7  22696591.680                    22696599.285
 106819859.599 8  83236279.627 8  20327110.727                    20327117.578
 113095509.300 8  88126511.70346  21521353.391                    21521358.809
 112327560.492 7  87528081.632 7  21375239.023                    21375245.895
 112939131.993 7  88004696.05946  21491631.922                    21491640.156
 113497675.271 8  88439808.708 7  21597894.344                    21597904.672
 11  8 11  2 47  0.0000000  0  8G26G10G29G05G02G12G30G25
 125897313.625 6  98101840.08643  23957458.984                    23957467.934
 122465994.321 7  95428202.72044  23304499.898                    23304507.457
 119189469.364 7  92874965.611 7  22681004.977                    22681012.816
 106838182.527 8  83250557.271 8  20330597.563                    20330604.496
 113133859.076 8  88156394.64645  21528651.164                    21528656.141
 112386201.091 8  87573775.592 7  21386398.266                    21386405.535
 112966571.726 7  88026077.68246  21496853.305                    21496861.215
 113492627.795 8  88435875.629 7  21596934.133                    21596943.570
 11  8 11  2 47 30.0000000  0  8G26G10G29G05G02G12G30G25
 125801098.195 6  98026867.08043  23939149.891                    23939159.441
 122567721.091 7  95507470.34044  23323857.281                    23323864.941
 119107628.293 7  92811193.373 7  22665430.688                    22665439.176
 106857043.682 8  83265254.314 8  20334186.922                    20334193.422
 113172306.110 8  88186353.36746  21535967.422                    21535972.523
 112445294.496 8  87619822.388 7  21397643.125                    21397650.289
 112994574.789 8  88047898.25646  21502182.148                    21502190.047
 113488161.829 8  88432395.671 7  21596084.211                    21596094.090
 11  8 11  2 48  0.0000000  0  8G26G10G29G05G02G12G30G25
 125704904.437 6  97951910.95543  23920844.867                    23920854.074
 122669647.509 7  95586893.55044  23343253.766                    23343261.027
 119025856.447 7  92747475.099 7  22649870.398                    22649878.559
 106876442.301 8  83280370.155 8  20337878.063                    20337884.777
 113210850.450 8  88216387.91446  21543302.133                    21543307.500
 112504838.063 8  87666219.965 7  21408973.883                    21408981.285
 113023139.881 7  88070156.76746  21507618.313                    21507625.891
 113484277.703 8  88429369.097 7  21595345.016                    21595354.758
 11  8 11  2 48 30.0000000  0  8G26G10G29G05G02G12G30G25
 125608735.117 6  97876973.87743  23902544.070                    23902553.168
 122771770.524 7  95666469.91844  23362686.688                    23362694.316
 118944154.824 7  92683811.540 7  22634323.000                    22634330.902
 106896375.929 8  83295902.890 8  20341670.820                    20341678.184
 113249491.047 8  88246497.45545  21550655.078                    21550660.328
 112564829.514 8  87712966.532 7  21420389.484                    21420397.004
 113052264.819 8  88092851.53646  21513160.211                    21513167.805
 113480974.549 8  88426795.233 7  21594716.391                    21594725.664
 11  8 11  2 49  0.0000000  0  8G26G10G29G05G02G12G30G25
 125512593.914 6  97802058.69043  23884248.922                    23884258.012
 122874087.394 7  95746197.32644  23382156.547                    23382164.957
 118862525.671 7  92620204.468 7  22618789.609                    22618798.051
 106916843.690 8  83311851.822 8  20345566.328                    20345573.008
 113288227.804 8  88276681.95546  21558026.430                    21558031.340
 112625266.177 8  87760060.042 7  21431890.758                    21431898.039
 113081947.996 7  88115981.28646  21518808.273                    21518816.164
 113478252.323 8  88424674.042 7  21594198.430                    21594208.234
 11  8 11  2 49 30.0000000  0  8G26G10G29G05G02G12G30G25
 125416484.228 6  97727168.08544  23865960.625                    23865969.633
 122976595.365 7  95826073.61944  23401663.867                    23401671.719
 118780970.666 7  92556655.163 7  22603269.836                    22603278.090
 106937844.099 8  83328215.803 8  20349562.539                    20349569.242
 113327060.694 8  88306941.35046  21565416.141                    21565421.297
 112686145.797 7  87807498.692 7  21443475.313                    21443483.047
 113112187.684 7  88139544.68246  21524563.398                    21524570.992
 113476110.735 8  88423005.296 7  21593791.008                    21593801.070
 11  8 11  2 50  0.0000000  0  8G26G10G29G05G02G12G30G25
 125320409.387 6  97652304.63244  23847677.188                    23847686.516
 123079291.561 7  95906096.63544  23421206.219                    23421214.117
 118699491.625 7  92493165.058 7  22587765.016                    22587773.074
 106959375.832 8  83344993.802 8  20353659.711                    20353666.805
 113365989.162 8  88337275.22546  21572824.156                    21572829.324
 112747465.713 7  87855280.424 7  21455144.734                    21455151.695
 113142982.077 7  88163540.31346  21530422.797                    21530430.727
 113474549.402 8  88421788.686 7  21593493.438                    21593503.063
 11  8 11  2 50 30.0000000  0  8G26G10G29G05G02G12G30G25
 125224372.995 6  97577471.14843  23829402.586                    23829411.082
 123182173.552 7  95986264.40743  23440783.445                    23440791.328
 118618090.593 7  92429735.749 7  22572274.836                    22572282.969
 106981437.822 8  83362184.990 8  20357858.063                    20357864.832
 113405013.332 8  88367683.66046  21580250.086                    21580255.152
 112809223.950 7  87903403.715 7  21466896.867                    21466903.641
 113174329.548 8  88187966.91846  21536387.977                    21536395.813
 113473568.268 8  88421024.189 7  21593307.141                    21593316.680
 11  8 11  2 51  0.0000000  0  8G26G10G29G05G02G12G30G25
 125128378.357 6  97502670.20843  23811135.430                    23811144.316
 123285238.269 7  96066574.52843  23460395.930                    23460403.809
 118536769.000 7  92366368.325 7  22556799.195                    22556807.848
 107004028.262 8  83379787.955 8  20362157.031                    20362163.844
 113444133.051 8  88398166.55445  21587694.164                    21587699.168
 112871418.230 7  87951866.780 7  21478731.883                    21478739.219
 113206228.231 7  88212823.03846  21542458.188                    21542465.711
 113473166.856 8  88420711.415 7  21593230.750                    21593240.391
 11  8 11  2 51 30.0000000  0  8G26G10G29G05G02G12G30G25
 125032428.798 6  97427904.40443  23792876.156                    23792885.633
 123388483.045 7  96147024.96444  23480042.648                    23480051.105
 118455529.031 7  92303064.549 7  22541339.938                    22541348.035
 107027145.699 8  83397801.562 8  20366555.945                    20366562.738
 113483347.736 8  88428723.44246  21595156.617                    21595161.680
 112934045.456 7  88000667.209 7  21490649.813                    21490656.398
 113238676.256 7  88238107.21445  21548633.000                    21548640.512
 113473344.762 8  88420850.063 7  21593264.406                    21593273.914
 11  8 11  2 52  0.0000000  0  8G26G10G29G05G02G12G30G25
 124936527.548 7  97353176.25044  23774627.641                    23774635.766
 123491904.960 7  96227613.43244  23499723.914                    23499731.598
 118374372.354 7  92239825.659 6  22525896.328                    22525904.336
 107050788.316 8  83416224.398 8  20371054.930                    20371062.141
 113522656.891 8  88459353.94045  21602636.891                    21602642.039
 112997103.001 8  88049802.943 7  21502649.266                    21502655.715
 113271671.503 7  88263817.78945  21554911.438                    21554919.188
 113474101.430 8  88421439.691 7  21593408.484                    21593418.152
 11  8 11  2 52 30.0000000  0  8G26G10G29G05G02G12G30G25
 124840678.132 7  97278488.47143  23756387.727                    23756396.234
 123595501.527 7  96308337.96443  23519436.977                    23519445.887
 118293300.555 7  92176652.923 7  22510468.727                    22510476.746
 107074954.808 8  83435055.452 8  20375653.641                    20375660.484
 113562060.649 8  88490058.17345  21610135.430                    21610140.352
 113060588.683 8  88099272.295 7  21514730.203                    21514736.754
 113305212.327 7  88289953.49945  21561294.727                    21561301.930
 113475436.574 8  88422480.083 7  21593662.453                    21593672.047
 11  8 11  2 53  0.0000000  0  8G26G10G29G05G02G12G30G25
 124744884.144 7  97203843.88143  23738158.070                    23738166.977
 123699270.230 7  96389196.64544  23539184.516                    23539191.641
 118212315.567 7  92113547.817 7  22495058.031                    22495065.895
 107099643.753 8  83454293.601 8  20380351.938                    20380358.613
 113601558.967 8  88520836.10146  21617651.063                    21617656.469
 113124499.975 8  88149073.288 7  21526892.164                    21526899.270
 113339296.850 8  88316512.86545  21567780.742                    21567787.875
 113477349.692 8  88423970.834 7  21594026.352                    21594035.625
 11  8 11  2 53 30.0000000  0  8G26G10G29G05G02G12G30G25
 124649148.926 7  97129245.10143  23719940.492                    23719949.402
 123803207.944 7  96470187.03943  23558963.164                    23558970.305
 118131419.196 7  92050511.752 7  22479664.133                    22479671.641
 107124853.448 8  83473937.540 8  20385149.258                    20385155.898
 113641151.250 8  88551687.25346  21625185.969                    21625190.906
 113188834.391 7  88199203.992 7  21539135.016                    21539141.477
 113373923.008 8  88343494.29445  21574369.820                    21574376.844
 113479840.267 8  88425911.550 7  21594500.305                    21594509.789
 11  8 11  2 54  0.0000000  0  8G26G10G29G05G02G12G30G25
 124553476.045 6  97054694.87444  23701735.125                    23701743.379
 123907311.832 7  96551306.94643  23578772.750                    23578780.789
 118050613.598 7  91987546.432 7  22464286.930                    22464295.395
 107150582.532 8  83493986.197 8  20390044.992                    20390052.086
 113680837.606 8  88582611.70046  21632737.594                    21632742.668
 113253589.812 8  88249662.742 7  21551456.727                    21551463.941
 113409088.940 8  88370896.31746  21581061.680                    21581068.797
 113482907.870 8  88428301.890 7  21595084.211                    21595094.164
 11  8 11  2 54 30.0000000  0  9G26G10G15G29G05G02G12G30G25
 124457869.262 6  96980196.13244  23683540.602                    23683549.938
 124011579.506 7  96632554.48343  23598614.352                    23598622.184
 129390596.58316 100823889.11716  24622218.945                    24622228.086
 117969900.677 7  91924653.322 7  22448928.117                    22448935.684
 107176829.734 8  83514438.577 8  20395039.758                    20395046.281
 113720618.038 8  88613609.44746  21640307.430                    21640312.859
 113318763.273 7  88300447.230 7  21563858.984                    21563866.293
 113444792.853 8  88398717.54846  21587855.648                    21587863.000
 113486552.188 8  88431141.626 7  21595777.422                    21595787.063
 11  8 11  2 55  0.0000000  0  9G26G10G15G29G05G02G12G30G25
 124362331.186 6  96905750.93643  23665360.688                    23665369.211
 124116007.793 7  96713927.12244  23618486.523                    23618494.449
 129296466.427 6 100750541.131 6  24604306.438                    24604316.430
 117889281.699 7  91861833.393 7  22433586.070                    22433594.293
 107203592.308 8  83535292.547 8  20400132.484                    20400139.398
 113760491.506 7  88644679.69646  21647895.336                    21647900.504
 113384351.548 7  88351554.971 7  21576339.984                    21576347.254
 113481032.166 7  88426955.96845  21594751.695                    21594759.844
 113490772.014 8  88434429.799 7  21596581.133                    21596590.395
 11  8 11  2 55 30.0000000  0  9G26G10G15G29G05G02G12G30G25
 124266865.935 6  96831362.47543  23647193.984                    23647202.621
 124220594.373 7  96795423.13943  23638389.039                    23638396.824
 129202212.648 6 100677096.779 6  24586370.648                    24586380.125
 117808759.148 7  91799088.646 7  22418263.570                    22418271.625
 107230869.611 8  83556547.602 8  20405323.031                    20405330.008
 113800458.677 8  88675822.95345  21655500.664                    21655505.531
 113450352.834 8  88402984.531 7  21588899.539                    21588906.742
 113517805.423 7  88455610.45146  21601749.367                    21601757.078
 113495567.313 8  88438166.406 7  21597493.563                    21597502.988
 11  8 11  2 56  0.0000000  0  9G26G10G15G29G05G02G12G30G25
 124171477.039 7  96757033.53244  23629041.977                    23629051.324
 124325336.549 7  96877040.38443  23658320.445                    23658328.480
 129107837.379 6 100603557.799 6  24568410.422                    24568420.695
 117728335.033 7  91736420.579 7  22402959.055                    22402966.813
 107258659.877 8  83578202.362 8  20410611.570                    20410618.160
 113840519.217 8  88707038.96745  21663123.828                    21663129.430
 113516764.654 8  88454733.977 7  21601537.398                    21601544.250
 113555110.499 7  88484679.32945  21608848.633                    21608856.121
 113500937.408 8  88442350.889 7  21598514.984                    21598524.969
 11  8 11  2 56 30.0000000  0  9G26G10G15G29G05G02G12G30G25
 124076167.459 7  96682766.38244  23610905.781                    23610914.199
 124430231.570 7  96958776.75143  23678281.383                    23678288.723
 129013343.253 6 100529926.187 6  24550429.695                    24550439.336
 117648010.670 7  91673830.264 7  22387674.086                    22387682.152
 107286960.933 8  83600255.153 8  20415996.922                    20416003.633
 113880672.749 7  88738327.43945  21670764.875                    21670769.988
 113583583.656 7  88506800.722 7  21614252.586                    21614259.750
 113592945.008 7  88514160.75445  21616048.086                    21616055.273
 113506881.362 8  88446982.545 7  21599646.352                    21599656.035
 11  8 11  2 57  0.0000000  0  9G26G10G15G29G05G02G12G30G25
 123980940.640 7  96608563.68544  23592784.180                    23592792.961
 124535276.407 7  97040629.86243  23698271.461                    23698278.445
 128918732.454 6 100456203.654 6  24532425.320                    24532435.453
 117567787.984 7  91611319.187 7  22372408.047                    22372415.902
 107315770.688 8  83622704.325 8  20421479.289                    20421486.016
 113920918.471 8  88769687.75346  21678423.359                    21678428.641
 113650807.362 7  88559182.805 7  21627044.813                    21627052.098
 113631306.655 8  88544052.94545  21623348.258                    21623355.594
 113513398.209 8  88452060.589 7  21600886.398                    21600896.168
 11  8 11  2 57 30.0000000  0  9G26G10G15G29G05G02G12G30G25
 123885800.640 7  96534428.68644  23574679.859                    23574688.535
 124640468.837 7  97122597.96643  23718288.273                    23718296.520
 128824007.983 6 100382392.570 6  24514398.414                    24514409.867
 117487669.426 7  91548889.230 7  22357161.797                    22357169.758
 107345088.748 8  83645549.582 8  20427058.438                    20427065.059
 113961257.187 7  88801120.53146  21686099.492                    21686105.223
 113718433.492 8  88611878.465 7  21639913.844                    21639920.938
 113670193.872 7  88574354.65546  21630748.375                    21630755.684
 113520487.922 8  88457585.026 7  21602235.500                    21602245.324
 11  8 11  2 58  0.0000000  0  9G26G10G15G29G05G02G12G30G25
 123790751.120 7  96460364.15944  23556592.430                    23556601.402
 124745806.232 6  97204679.01543  23738333.250                    23738341.543
 128729172.946 6 100308495.283 5  24496353.664                    24496362.789
 117407656.830 7  91486541.831 7  22341935.891                    22341943.723
 107374913.329 8  83668789.523 8  20432733.578                    20432740.359
 114001689.013 7  88832625.86445  21693793.836                    21693799.141
 113786459.613 7  88664885.812 7  21652858.766                    21652865.949
 113709604.775 7  88605064.44846  21638247.844                    21638255.375
 113528149.891 8  88463555.386 7  21603693.664                    21603703.477
 11  8 11  2 58 30.0000000  0  9G26G10G15G29G05G02G12G30G25
 123695795.384 7  96386372.74144  23538523.031                    23538531.105
 124851285.710 6  97286870.75543  23758406.188                    23758413.398
 128634229.154 7 100234513.172 6  24478286.789                    24478295.023
 117327751.946 7  91424278.369 7  22326730.172                    22326737.988
 107405242.261 8  83692422.467 8  20438505.172                    20438511.961
 114042213.308 7  88864203.24345  21701505.047                    21701510.250
 113854883.262 8  88718202.921 7  21665879.641                    21665886.500
 113749536.874 7  88636180.36845  21645846.656                    21645854.246
 113536383.088 8  88469970.856 7  21605260.078                    21605270.008
 11  8 11  2 59  0.0000000  0  9G26G10G15G29G05G02G12G30G25
 123600936.510 7  96312456.76844  23520471.914                    23520481.047
 124956904.303 6  97369170.97343  23778504.422                    23778512.094
 128539178.986 6 100160448.200 6  24460198.648                    24460208.242
 117247956.884 7  91362100.465 7  22311546.242                    22311554.125
 107436073.526 8  83716446.846 8  20444372.102                    20444378.648
 114082829.656 8  88895852.36046  21709234.141                    21709239.152
 113923700.694 7  88771826.866 7  21678974.898                    21678981.996
 113789987.796 7  88667700.57745  21653544.203                    21653551.406
 113545186.532 8  88476830.672 7  21606935.625                    21606945.340
 11  8 11  2 59 30.0000000  0  9G26G10G15G29G05G02G12G30G25
 123506178.744 7  96238619.60344  23502440.352                    23502448.727
 125062659.825 6  97451577.84543  23798628.758                    23798636.695
 128444025.498 6 100086302.775 6  24442090.906                    24442100.988
 117168273.644 7  91300009.697 7  22296383.023                    22296390.199
 107467405.988 8  83740861.764 8  20450334.508                    20450341.336
 114123538.496 7  88927573.55545  21716980.508                    21716986.125
 113992909.906 7  88825756.117 7  21692144.695                    21692151.813
 113830955.716 7  88699623.62845  21661340.102                    21661347.801
 113554559.851 8  88484134.536 7  21608719.352                    21608729.082
 11  8 11  3  0  0.0000000  0  9G26G10G15G29G05G02G12G30G25
 123411525.060 7  96164863.55244  23484427.828                    23484436.832
 125168549.364 6  97534089.14443  23818778.508                    23818787.066
 128348771.095 6 100012078.709 6  24423965.297                    24423975.242
 117088703.599 7  91238007.122 7  22281240.828                    22281248.281
 107499237.068 8  83765665.219 8  20456391.898                    20456398.578
 114164339.471 8  88959366.53045  21724745.117                    21724750.152
 114062508.004 8  88879988.384 7  21705388.734                    21705395.863
 113872438.154 7  88731947.61145  21669233.914                    21669241.430
 113564501.842 8  88491881.542 7  21610611.328                    21610621.215
 11  8 11  3  0 30.0000000  0  9G26G10G15G29G05G02G12G30G25
 123316979.403 7  96091191.70244  23466436.219                    23466445.473
 125274570.697 6  97616703.15543  23838953.523                    23838961.684
 128253418.494 6  99937778.111 5  24405820.273                    24405829.043
 117009248.922 7  91176094.489 7  22266121.258                    22266128.867
 107531565.621 8  83790856.328 8  20462543.273                    20462550.207
 114205232.464 8  88991231.21445  21732526.516                    21732532.035
 114132492.620 8  88934521.830 7  21718706.852                    21718713.859
 113914433.084 7  88764670.92745  21677225.281                    21677233.000
 113575011.892 8  88500071.166 7  21612611.273                    21612620.465
 11  8 11  3  1  0.0000000  0  9G26G10G15G29G05G02G12G30G25
 123222544.857 7  96017606.37844  23448466.164                    23448474.410
 125380720.626 6  97699417.39143  23859153.516                    23859161.613
 128157969.652 6  99863402.411 5  24387656.828                    24387665.477
 116929911.927 7  91114273.523 7  22251023.563                    22251030.996
 107564389.202 8  83816433.159 8  20468789.852                    20468796.566
 114246216.990 8  89023167.22046  21740325.742                    21740330.723
 114202860.220 8  88989353.703 7  21732097.352                    21732104.090
 113956937.720 7  88797791.42046  21685313.656                    21685321.188
 113586088.598 8  88508702.353 7  21614719.031                    21614728.711
 11  8 11  3  1 30.0000000  0  9G26G10G15G29G05G02G12G30G25
 123128225.178 7  95944110.60844  23430517.953                    23430526.371
 125486996.648 6  97782229.86243  23879377.000                    23879385.414
 128062427.897 6  99788954.438 6  24369474.953                    24369485.352
 116850694.823 7  91052546.012 7  22235949.016                    22235956.930
 107597706.666 8  83842394.822 8  20475129.789                    20475136.566
 114287293.342 8  89055174.77645  21748141.836                    21748147.133
 114273609.039 8  89044482.622 7  21745560.484                    21745567.504
 113999950.314 7  88831307.72245  21693498.383                    21693506.465
 113597731.628 8  88517774.839 7  21616934.617                    21616944.406
 11  8 11  3  2  0.0000000  0  9G26G10G15G29G05G02G12G30G25
 123034024.091 7  95870707.24244  23412591.719                    23412600.750
 125593396.531 6  97865138.84243  23899625.242                    23899632.676
 127966795.653 6  99714436.024 6  24351277.617                    24351287.148
 116771599.237 7  90990913.208 7  22220897.906                    22220905.082
 107631516.045 8  83868739.805 8  20481563.617                    20481570.027
 114328461.388 8  89087253.80146  21755976.172                    21755980.980
 114344735.807 7  89099906.068 7  21759095.094                    21759102.344
 114043468.452 8  88865217.95245  21701780.031                    21701787.793
 113609939.900 8  88527287.770 7  21619257.625                    21619267.555
 11  8 11  3  2 30.0000000  0  9G26G10G15G29G05G02G12G30G25
 122939945.117 7  95797399.02244  23394689.172                    23394697.016
 125699917.301 6  97948142.02543  23919894.453                    23919902.418
 127871075.511 7  99639848.985 6  24333061.727                    24333071.160
 116692627.356 7  90929376.792 7  22205870.117                    22205877.242
 107665815.494 8  83895466.653 8  20488090.563                    20488097.188
 114369720.981 8  89119404.13845  21763827.734                    21763832.641
 114416237.787 8  89155621.883 7  21772702.047                    21772708.859
 114087489.856 7  88899520.34645  21710156.969                    21710164.727
 113622712.483 8  88537240.427 7  21621688.438                    21621698.129
 11  8 11  3  3  0.0000000  0  9G26G10G15G29G05G02G12G30G25
 122845991.802 7  95724188.71544  23376810.430                    23376819.250
 125806556.350 6  98031237.45443  23940187.477                    23940195.641
 127775270.121 6  99565195.569 6  24314829.766                    24314839.895
 116613780.812 7  90867938.032 7  22190865.484                    22190872.969
 107700602.743 8  83922573.616 8  20494710.336                    20494716.953
 114411072.047 7  89151625.75145  21771696.664                    21771701.598
 114488112.198 7  89211627.895 7  21786378.938                    21786385.977
 114132012.081 7  88934212.99145  21718629.117                    21718636.656
 113636048.261 8  88547631.942 7  21624226.203                    21624235.641
 11  8 11  3  3 30.0000000  0  9G26G10G15G29G05G02G12G30G25
 122752168.011 7  95651079.35244  23358956.250                    23358964.762
 125913311.333 6  98114423.13943  23960502.117                    23960510.223
 127679382.346 7  99490477.956 6  24296584.328                    24296593.395
 116535062.131 7  90806598.905 7  22175885.859                    22175892.988
 107735876.556 8  83950059.711 8  20501422.617                    20501429.297
 114452515.099 8  89183919.04845  21779583.109                    21779587.805
 114560356.641 7  89267922.246 7  21800126.672                    21800133.918
 114177033.191 7  88969294.36445  21727196.313                    21727204.082
 113649946.652 8  88558461.858 7  21626870.828                    21626880.574
 11  8 11  3  4  0.0000000  0  9G26G10G15G29G05G02G12G30G25
 122658476.630 7  95578073.15344  23341127.273                    23341135.777
 126020179.358 6  98197696.95643  23980838.461                    23980846.176
 127583414.204 6  99415697.678 6  24278321.734                    24278330.688
 116456472.665 7  90745360.419 7  22160930.891                    22160938.281
 107771634.062 8  83977922.712 8  20508227.109                    20508233.598
 114494049.152 7  89216283.24545  21787486.453                    21787491.570
 114632968.260 8  89324502.715 7  21813944.031                    21813951.586
 114222550.127 7  89004762.09446  21735857.961                    21735865.578
 113664405.945 8  88569728.837 7  21629622.148                    21629632.063
 11  8 11  3  4 30.0000000  0  9G26G10G15G29G05G02G12G30G25
 122564921.845 7  95505173.37444  23323324.516                    23323332.613
 126127158.442 6  98281057.25843  24001195.961                    24001203.766
 127487368.802 6  99340857.236 5  24260044.438                    24260053.668
 116378014.961 7  90684224.625 7  22146000.633                    22146008.324
 107807874.331 8  84006161.897 8  20515123.492                    20515129.637
 114535674.876 8  89248718.87546  21795407.688                    21795412.918
 114705943.835 7  89381366.781 7  21827830.906                    21827837.961
 114268561.137 7  89040614.82846  21744613.680                    21744621.555
 113679425.673 8  88581432.518 7  21632480.797                    21632490.219
 11  8 11  3  5  0.0000000  0  9G26G10G15G29G05G02G12G30G25
 122471507.272 7  95432382.88044  23305547.828                    23305555.930
 126234245.515 6  98364501.76143  24021574.031                    24021582.059
 127391249.057 7  99265958.786 5  24241753.898                    24241761.316
 116299691.083 7  90623193.087 7  22131095.914                    22131103.598
 107844595.307 8  84034775.649 8  20522111.305                    20522118.000
 114577391.962 8  89281225.69745  21803346.328                    21803351.070
 114779280.783 7  89438512.441 7  21841786.523                    21841793.633
 114315063.694 8  89076850.57345  21753462.469                    21753470.559
 113695004.691 8  88593572.012 7  21635445.070                    21635454.691
 11  8 11  3  5 30.0000000  0  9G26G10G15G29G05G02G12G30G25
 122378236.033 7  95359704.04644  23287799.531                    23287807.641
 126341437.971 6  98448028.34943  24041972.602                    24041980.445
 127295056.991 7  99191004.048 6  24223449.344                    24223457.863
 116221502.720 8  90562267.135 7  22116217.750                    22116224.961
 107881794.226 8  84063761.824 8  20529189.703                    20529196.367
 114619199.877 8  89313803.30945  21811302.219                    21811306.820
 114852975.972 7  89495937.242 7  21855810.328                    21855817.504
 114362054.888 8  89113467.07945  21762404.602                    21762412.660
 113711141.382 8  88606146.052 7  21638516.047                    21638525.758
 11  8 11  3  6  0.0000000  0  9G26G10G15G29G05G02G12G30G25
 122285112.204 7  95287140.09644  23270077.672                    23270086.602
 126448733.197 6  98531635.07043  24062389.586                    24062397.957
 127198795.896 7  99115995.478 6  24205131.414                    24205139.883
 116143452.421 8  90501448.748 7  22101364.563                    22101372.430
 107919469.994 8  84093119.570 8  20536359.313                    20536366.219
 114661099.163 8  89346452.10645  21819275.305                    21819280.289
 114927027.288 7  89553639.564 7  21869901.500                    21869908.719
 114409532.833 8  89150462.86845  21771439.789                    21771447.359
 113727835.149 8  88619154.190 7  21641692.344                    21641702.387
 11  8 11  3  6 30.0000000  0  9G26G10G15G29G05G02G12G30G25
 122192139.119 7  95214693.61544  23252386.328                    23252395.074
 126556128.845 6  98615320.01543  24082827.102                    24082834.617
 127102468.135 7  99040935.028 6  24186800.195                    24186809.070
 116065542.202 7  90440739.522 7  22086539.164                    22086546.355
 107957620.420 8  84122847.178 8  20543619.211                    20543625.680
 114703089.832 7  89379172.12345  21827265.484                    21827270.477
 115001431.489 7  89611616.841 7  21884060.188                    21884067.426
 114457494.847 8  89187835.85845  21780566.336                    21780574.105
 113745084.599 8  88632595.318 7  21644975.195                    21644984.344
 11  8 11  3  7  0.0000000  0  9G26G10G15G29G05G02G12G30G25
 122099320.735 7  95142367.64444  23234722.711                    23234731.348
 126663622.934 6  98699081.62943  24103282.148                    24103289.586
 127006076.749 7  98965824.951 6  24168458.000                    24168466.109
 115987773.425 7  90380140.515 7  22071740.102                    22071747.484
 107996243.639 8  84152943.206 8  20550968.867                    20550975.617
 114745171.694 8  89411963.19345  21835273.219                    21835278.828
 115076185.886 7  89669867.003 7  21898285.508                    21898292.809
 114505938.614 8  89225584.24045  21789784.898                    21789792.539
 113762888.746 8  88646468.671 7  21648363.156                    21648372.422
 11  8 11  3  7 30.0000000  0  9G26G10G15G29G05G02G12G30G25
 122006660.317 7  95070164.78844  23217090.219                    23217097.723
 126771212.355 6  98782917.42443  24123755.766                    24123764.035
 126909624.251 6  98890667.263 6  24150102.813                    24150111.984
 115910148.728 7  90319653.754 7  22056968.430                    22056976.043
 108035337.588 8  84183406.038 8  20558408.063                    20558414.777
 114787344.690 7  89444825.26345  21843298.852                    21843303.816
 115151287.386 7  89728387.639 7  21912576.898                    21912584.195
 114554861.696 8  89263706.10845  21799094.969                    21799102.430
 113781246.395 8  88660773.338 7  21651856.484                    21651866.125
 11  8 11  3  8  0.0000000  0  9G26G10G15G29G05G02G12G30G25
 121914161.608 7  94998087.92644  23199488.672                    23199496.555
 126878894.358 6  98866825.52043  24144246.859                    24144254.426
 126813113.250 7  98815464.055 6  24131737.578                    24131746.887
 115832670.379 7  90259281.039 7  22042225.000                    22042232.656
 108074899.953 8  84214233.868 8  20565936.445                    20565943.418
 114829608.743 7  89477758.31945  21851341.063                    21851346.227
 115226733.122 7  89787176.506 7  21926933.969                    21926941.152
 114604261.231 8  89302199.25045  21808495.289                    21808503.074
 113800155.972 8  88675508.078 7  21655454.602                    21655464.637
 11  8 11  3  8 30.0000000  0  9G26G10G15G29G05G02G12G30G25
 121821828.059 7  94926139.74344  23181917.617                    23181925.633
 126986666.686 6  98950804.02543  24164755.719                    24164762.648
 126716546.386 6  98740217.256 6  24113361.578                    24113370.156
 115755340.071 7  90199023.682 7  22027509.758                    22027516.906
 108114928.644 8  84245425.061 8  20573554.000                    20573560.703
 114871963.809 8  89510762.27945  21859401.008                    21859406.234
 115302520.207 7  89846231.356 7  21941355.500                    21941362.969
 114654134.702 8  89341061.69245  21817985.594                    21817993.891
 113819616.252 8  88690671.937 7  21659157.930                    21659167.355
 11  8 11  3  9  0.0000000  0  9G26G10G15G29G05G02G12G30G25
 121729663.180 7  94854323.01344  23164379.375                    23164387.441
 127094526.797 6  99034850.89743  24185280.836                    24185288.035
 126619926.434 6  98664929.129 6  24094975.047                    24094984.020
 115678159.952 7  90138883.341 7  22012822.617                    22012830.121
 108155421.658 8  84276978.066 8  20581259.375                    20581266.395
 114914409.775 8  89543837.06645  21867478.172                    21867483.504
 115378645.903 8  89905550.059 7  21955842.195                    21955848.996
 114704479.688 8  89380291.54445  21827566.258                    21827573.684
 113839626.047 8  88706263.987 7  21662965.180                    21662975.348
 11  8 11  3  9 30.0000000  0  9G26G10G15G29G05G02G12G30G25
 121637671.175 7  94782640.97844  23146873.719                    23146882.352
 127202472.448 6  99118964.35343  24205821.023                    24205829.555
 126523256.398 6  98589601.974 6  24076578.961                    24076588.359
 115601132.478 7  90078861.963 7  21998164.422                    21998172.063
 108196377.464 7  84308891.691 8  20589052.820                    20589059.523
 114956946.956 7  89576982.93645  21875572.773                    21875578.141
 115455107.574 8  89965130.578 7  21970391.813                    21970399.266
 114755293.743 8  89419886.90045  21837235.211                    21837243.234
 113860184.234 8  88722283.354 7  21666877.930                    21666887.707
 11  8 11  3 10  0.0000000  0  9G26G10G15G29G05G02G12G30G25
 121545855.324 7  94711096.20544  23129401.797                    23129409.910
 127310501.203 6  99203142.65643  24226377.906                    24226386.824
 126426538.635 6  98514237.627 6  24058174.813                    24058183.621
 115524259.331 7  90018960.826 7  21983536.234                    21983543.484
 108237793.562 8  84341163.983 8  20596934.313                    20596940.766
 114999575.233 7  89610199.79145  21883684.945                    21883690.031
 115531902.259 8  90024970.561 7  21985005.836                    21985013.043
 114806574.089 8  89459845.61345  21846994.227                    21847002.160
 113881289.212 8  88738728.778 7  21670893.828                    21670903.500
 11  8 11  3 10 30.0000000  0  9G26G10G15G29G05G02G12G30G25
 121454219.326 7  94639691.59444  23111964.242                    23111972.027
 127418610.221 6  99287383.47443  24246950.906                    24246958.855
 126329776.215 6  98438838.449 6  24039760.586                    24039769.637
 115447542.826 7  89959181.753 7  21968937.617                    21968945.051
 108279668.088 8  84373793.491 8  20604902.719                    20604909.199
 115042294.798 7  89643487.80145  21891813.969                    21891819.270
 115609026.569 8  90085067.416 7  21999682.156                    21999689.047
 114858318.304 8  89500165.78845  21856840.820                    21856848.551
 113902939.801 8  88755599.369 7  21675013.672                    21675023.594
 11  8 11  3 11  0.0000000  0  9G26G10G15G29G05G02G12G30G25
 121362766.835 7  94568429.97544  23094561.258                    23094569.484
 127526797.128 6  99371685.00943  24267538.477                    24267546.105
 126232971.652 6  98363406.469 6  24021339.898                    24021348.426
 115370985.070 8  89899526.375 7  21954369.172                    21954376.430
 108321998.757 8  84406778.431 8  20612957.992                    20612964.828
 115085105.519 8  89676846.81145  21899960.656                    21899965.914
 115686477.879 8  90145419.084 7  22014420.016                    22014427.559
 114910523.668 8  89540845.29945  21866774.563                    21866783.000
 113925134.523 8  88772893.954 7  21679237.477                    21679247.340
 11  8 11  3 11 30.0000000  0  9G26G10G15G29G05G02G12G30G25
 121271501.507 7  94497314.19644  23077193.711                    23077202.172
 127635059.440 6  99456045.30443  24288140.250                    24288147.672
 126136128.204 7  98287944.195 6  24002910.891                    24002919.699
 115294588.303 7  89839996.461 7  21939831.234                    21939838.996
 108364783.638 8  84440117.307 8  20621099.445                    20621105.738
 115128007.470 8  89710276.92445  21908124.438                    21908129.941
 115764253.486 8  90206023.434 7  22029220.867                    22029228.059
 114963187.623 8  89581882.15045  21876796.656                    21876804.180
 113947872.132 8  88790611.569 7  21683564.133                    21683574.090
 11  8 11  3 12  0.0000000  0  9G26G10G15G29G05G02G12G30G25
 121180426.835 7  94426346.98144  23059862.742                    23059871.066
 127743394.651 6  99540462.40843  24308755.125                    24308763.172
 126039248.013 7  98212453.273 6  23984475.219                    23984483.875
 115218354.423 8  89780593.461 7  21925324.273                    21925331.469
 108408020.259 8  84473808.184 8  20629326.953                    20629334.086
 115171000.401 8  89743777.92745  21916305.773                    21916310.594
 115842349.921 8  90266877.784 7  22044081.727                    22044089.188
 115016307.404 8  89623274.18545  21886905.219                    21886913.168
 113971150.908 8  88808750.872 7  21687994.125                    21688003.996
 11  8 11  3 12 30.0000000  0  9G26G10G15G29G05G02G12G30G25
 121089547.036 7  94355531.63144  23042569.000                    23042577.230
 127851800.608 6  99624934.63043  24329384.445                    24329391.789
 125942334.465 7  98136936.321 6  23966033.445                    23966041.199
 115142286.068 8  89721319.452 7  21910849.000                    21910856.027
 108451707.230 8  84507849.983 8  20637640.555                    20637647.078
 115214084.830 7  89777350.23945  21924504.625                    21924510.402
 115920764.799 8  90327980.270 7  22059003.680                    22059011.273
 115069880.730 8  89665019.63145  21897099.758                    21897107.656
 113994969.929 8  88827311.140 7  21692526.570                    21692536.477
 11  8 11  3 13  0.0000000  0  9G26G10G15G29G05G02G12G30G25
 120998865.411 7  94284870.68444  23025313.258                    23025320.914
 127960274.747 6  99709459.91343  24350026.219                    24350034.336
 125845390.013 6  98061395.263 6  23947584.867                    23947593.348
 115066384.823 8  89662175.662 7  21896405.367                    21896412.797
 108495842.010 8  84542240.731 7  20646039.305                    20646045.996
 115257260.506 8  89810993.63445  21932721.102                    21932725.820
 115999494.939 8  90389328.396 7  22073985.961                    22073992.605
 115123904.638 8  89707116.17945  21907380.438                    21907387.656
 114019327.352 8  88846290.958 7  21697161.516                    21697170.996
 11  8 11  3 13 30.0000000  0 10G26G10G15G29G05G21G02G12G30G25
 120908385.563 7  94214366.95244  23008095.438                    23008103.098
 128068814.658 6  99794036.43243  24370680.656                    24370689.305
 125748417.429 6  97985832.332 6  23929131.445                    23929140.328
 114990653.356 7  89603164.164 7  21881994.445                    21882000.930
 108540422.536 7  84576978.812 8  20654522.531                    20654529.059
 132308872.43216 103097915.40053  25177554.672                    25177564.008
 115300527.741 7  89844708.37245  21940954.320                    21940959.309
 116078537.433 8  90450919.965 7  22089026.969                    22089033.871
 115178376.476 7  89749561.76045  21917745.977                    21917753.777
 114044221.754 8  88865689.181 7  21701898.836                    21701908.160
 11  8 11  3 14  0.0000000  0 10G26G10G15G29G05G21G02G12G30G25
 120818111.619 7  94144023.69544  22990916.242                    22990924.758
 128177418.391 6  99878662.76043  24391347.492                    24391355.594
 125651420.261 6  97910250.231 6  23910673.828                    23910681.961
 114915093.991 8  89544286.769 7  21867615.727                    21867622.789
 108585447.121 8  84612062.922 8  20663090.391                    20663096.910
 132251154.552 6 103052940.49343  25166572.008                    25166580.754
 115343886.763 8  89878494.64345  21949205.266                    21949210.266
 116157890.032 8  90512753.135 7  22104127.289                    22104134.609
 115233294.093 8  89792354.70845  21928196.086                    21928204.207
 114069652.106 8  88885505.050 7  21706738.234                    21706747.777
 11  8 11  3 14 30.0000000  0 10G26G10G15G29G05G21G02G12G30G25
 120728047.136 7  94073843.63944  22973777.914                    22973786.426
 128286083.100 6  99963336.56643  24412025.445                    24412033.777
 125554401.029 6  97834650.909 6  23892211.102                    23892219.590
 114839708.747 8  89485545.044 7  21853270.539                    21853277.664
 108630913.302 8  84647491.131 8  20671742.398                    20671748.574
 132193449.144 6 103007975.32143  25155590.672                    25155598.848
 115387337.658 8  89912352.49845  21957473.414                    21957478.570
 116237549.670 7  90574825.583 7  22119285.945                    22119293.293
 115288654.469 7  89835492.66045  21938731.195                    21938738.715
 114095616.632 8  88905737.145 7  21711679.250                    21711688.641
